<?xml version="1.0" encoding="UTF-8" standalone="no" ?>
<gpx xmlns="http://www.topografix.com/GPX/1/1" xmlns:xsi="http://www.w3.org/2001/XMLSchema-instance" xsi:schemaLocation="http://www.topografix.com/GPX/1/1 http://www.topografix.com/GPX/1/1/gpx.xsd" version="1.1" creator="VisuGPX - https://www.visugpx.com">
  <metadata>
    <name>Landévant Fort-bloqué 80km</name>
    <desc><![CDATA[Landévant Fort-bloqué 80km]]></desc>
  </metadata>
  <wpt lat="38.85555" lon="-94.79902">
    <ele>333.5</ele>
    <name><![CDATA[GARMIN]]></name>
  </wpt>
  <wpt lat="50.98288" lon="-1.4639">
    <ele>33.5</ele>
    <name><![CDATA[GRMEUR]]></name>
  </wpt>
  <wpt lat="25.06178" lon="121.64027">
    <ele>19</ele>
    <name><![CDATA[GRMTWN]]></name>
  </wpt>
  <wpt lat="47.87632" lon="-3.01188">
    <ele>86.9</ele>
    <name><![CDATA[H]]></name>
  </wpt>
  <trk>
    <name><![CDATA[Fort bloqué Auray_5]]></name>
    <extensions>
      <line xmlns="http://www.topografix.com/GPX/gpx_style/0/2">
        <color>FFFF00</color>
        <width>4</width>
      </line>
    </extensions>
    <trkseg>
      <trkpt lat="47.59496" lon="-3.13233">
        <ele>5.633149</ele>
        <time>2021-12-01T10:36:14.000Z</time>
      </trkpt>
      <trkpt lat="47.59475" lon="-3.13251">
        <ele>5.694793</ele>
        <time>2021-12-01T10:36:20.000Z</time>
      </trkpt>
      <trkpt lat="47.59472" lon="-3.13252">
        <ele>5.70431</ele>
        <time>2021-12-01T10:36:21.000Z</time>
      </trkpt>
      <trkpt lat="47.59467" lon="-3.13247">
        <ele>5.719004</ele>
        <time>2021-12-01T10:36:23.000Z</time>
      </trkpt>
      <trkpt lat="47.59465" lon="-3.13244">
        <ele>5.726829</ele>
        <time>2021-12-01T10:36:24.000Z</time>
      </trkpt>
      <trkpt lat="47.59452" lon="-3.13222">
        <ele>5.777186</ele>
        <time>2021-12-01T10:36:29.000Z</time>
      </trkpt>
      <trkpt lat="47.59434" lon="-3.13206">
        <ele>5.830539</ele>
        <time>2021-12-01T10:36:34.000Z</time>
      </trkpt>
      <trkpt lat="47.59421" lon="-3.13205">
        <ele>5.864779</ele>
        <time>2021-12-01T10:36:37.000Z</time>
      </trkpt>
      <trkpt lat="47.59411" lon="-3.13209">
        <ele>5.891036</ele>
        <time>2021-12-01T10:36:39.000Z</time>
      </trkpt>
      <trkpt lat="47.5938" lon="-3.13224">
        <ele>5.787722</ele>
        <time>2021-12-01T10:36:45.000Z</time>
      </trkpt>
      <trkpt lat="47.59357" lon="-3.13224">
        <ele>5.691255</ele>
        <time>2021-12-01T10:36:50.000Z</time>
      </trkpt>
      <trkpt lat="47.59339" lon="-3.13224">
        <ele>5.616319</ele>
        <time>2021-12-01T10:36:54.000Z</time>
      </trkpt>
      <trkpt lat="47.59331" lon="-3.13229">
        <ele>5.582334</ele>
        <time>2021-12-01T10:36:56.000Z</time>
      </trkpt>
      <trkpt lat="47.59309" lon="-3.13238">
        <ele>5.48715</ele>
        <time>2021-12-01T10:37:01.000Z</time>
      </trkpt>
      <trkpt lat="47.59304" lon="-3.1324">
        <ele>5.464544</ele>
        <time>2021-12-01T10:37:02.000Z</time>
      </trkpt>
      <trkpt lat="47.59292" lon="-3.13243">
        <ele>5.415361</ele>
        <time>2021-12-01T10:37:05.000Z</time>
      </trkpt>
      <trkpt lat="47.59275" lon="-3.13239">
        <ele>5.343459</ele>
        <time>2021-12-01T10:37:10.000Z</time>
      </trkpt>
      <trkpt lat="47.59259" lon="-3.13224">
        <ele>5.263339</ele>
        <time>2021-12-01T10:37:15.000Z</time>
      </trkpt>
      <trkpt lat="47.59254" lon="-3.13223">
        <ele>5.243085</ele>
        <time>2021-12-01T10:37:16.000Z</time>
      </trkpt>
      <trkpt lat="47.59244" lon="-3.13223">
        <ele>5.203339</ele>
        <time>2021-12-01T10:37:18.000Z</time>
      </trkpt>
      <trkpt lat="47.59238" lon="-3.13224">
        <ele>5.177864</ele>
        <time>2021-12-01T10:37:19.000Z</time>
      </trkpt>
      <trkpt lat="47.59201" lon="-3.13233">
        <ele>5.06458</ele>
        <time>2021-12-01T10:37:26.000Z</time>
      </trkpt>
      <trkpt lat="47.59173" lon="-3.1324">
        <ele>4.9849</ele>
        <time>2021-12-01T10:37:31.000Z</time>
      </trkpt>
      <trkpt lat="47.59156" lon="-3.13244">
        <ele>4.937822</ele>
        <time>2021-12-01T10:37:34.000Z</time>
      </trkpt>
      <trkpt lat="47.59128" lon="-3.13251">
        <ele>4.858323</ele>
        <time>2021-12-01T10:37:39.000Z</time>
      </trkpt>
      <trkpt lat="47.59105" lon="-3.13256">
        <ele>4.792918</ele>
        <time>2021-12-01T10:37:43.000Z</time>
      </trkpt>
      <trkpt lat="47.59047" lon="-3.13272">
        <ele>4.675354</ele>
        <time>2021-12-01T10:37:53.000Z</time>
      </trkpt>
      <trkpt lat="47.59006" lon="-3.13284">
        <ele>4.778022</ele>
        <time>2021-12-01T10:38:00.000Z</time>
      </trkpt>
      <trkpt lat="47.58966" lon="-3.13294">
        <ele>4.879576</ele>
        <time>2021-12-01T10:38:07.000Z</time>
      </trkpt>
      <trkpt lat="47.58914" lon="-3.13307">
        <ele>5.012006</ele>
        <time>2021-12-01T10:38:16.000Z</time>
      </trkpt>
      <trkpt lat="47.58867" lon="-3.1332">
        <ele>5.098866</ele>
        <time>2021-12-01T10:38:24.000Z</time>
      </trkpt>
      <trkpt lat="47.58844" lon="-3.13327">
        <ele>5.096979</ele>
        <time>2021-12-01T10:38:28.000Z</time>
      </trkpt>
      <trkpt lat="47.58833" lon="-3.13329">
        <ele>5.096032</ele>
        <time>2021-12-01T10:38:30.000Z</time>
      </trkpt>
      <trkpt lat="47.58792" lon="-3.13338">
        <ele>5.092704</ele>
        <time>2021-12-01T10:38:37.000Z</time>
      </trkpt>
      <trkpt lat="47.58763" lon="-3.13346">
        <ele>5.090314</ele>
        <time>2021-12-01T10:38:42.000Z</time>
      </trkpt>
      <trkpt lat="47.58752" lon="-3.13349">
        <ele>5.089366</ele>
        <time>2021-12-01T10:38:44.000Z</time>
      </trkpt>
      <trkpt lat="47.58693" lon="-3.13364">
        <ele>5.076819</ele>
        <time>2021-12-01T10:38:54.000Z</time>
      </trkpt>
      <trkpt lat="47.58639" lon="-3.13377">
        <ele>5.024324</ele>
        <time>2021-12-01T10:39:03.000Z</time>
      </trkpt>
      <trkpt lat="47.58634" lon="-3.13379">
        <ele>5.018732</ele>
        <time>2021-12-01T10:39:04.000Z</time>
      </trkpt>
      <trkpt lat="47.58589" lon="-3.13391">
        <ele>4.975127</ele>
        <time>2021-12-01T10:39:12.000Z</time>
      </trkpt>
      <trkpt lat="47.58557" lon="-3.13405">
        <ele>4.942435</ele>
        <time>2021-12-01T10:39:18.000Z</time>
      </trkpt>
      <trkpt lat="47.58528" lon="-3.1341">
        <ele>4.915062</ele>
        <time>2021-12-01T10:39:23.000Z</time>
      </trkpt>
      <trkpt lat="47.58511" lon="-3.13415">
        <ele>4.970273</ele>
        <time>2021-12-01T10:39:26.000Z</time>
      </trkpt>
      <trkpt lat="47.58464" lon="-3.13429">
        <ele>5.164433</ele>
        <time>2021-12-01T10:39:34.000Z</time>
      </trkpt>
      <trkpt lat="47.58411" lon="-3.13442">
        <ele>5.383593</ele>
        <time>2021-12-01T10:39:43.000Z</time>
      </trkpt>
      <trkpt lat="47.58358" lon="-3.13455">
        <ele>5.603511</ele>
        <time>2021-12-01T10:39:52.000Z</time>
      </trkpt>
      <trkpt lat="47.58334" lon="-3.13461">
        <ele>5.560062</ele>
        <time>2021-12-01T10:39:56.000Z</time>
      </trkpt>
      <trkpt lat="47.58281" lon="-3.13475">
        <ele>5.232037</ele>
        <time>2021-12-01T10:40:05.000Z</time>
      </trkpt>
      <trkpt lat="47.58275" lon="-3.13476">
        <ele>5.195062</ele>
        <time>2021-12-01T10:40:06.000Z</time>
      </trkpt>
      <trkpt lat="47.58219" lon="-3.13494">
        <ele>4.847695</ele>
        <time>2021-12-01T10:40:16.000Z</time>
      </trkpt>
      <trkpt lat="47.58214" lon="-3.13495">
        <ele>4.816906</ele>
        <time>2021-12-01T10:40:17.000Z</time>
      </trkpt>
      <trkpt lat="47.58196" lon="-3.13498">
        <ele>4.707176</ele>
        <time>2021-12-01T10:40:21.000Z</time>
      </trkpt>
      <trkpt lat="47.58194" lon="-3.135">
        <ele>4.690102</ele>
        <time>2021-12-01T10:40:22.000Z</time>
      </trkpt>
      <trkpt lat="47.5819" lon="-3.13504">
        <ele>4.662569</ele>
        <time>2021-12-01T10:40:24.000Z</time>
      </trkpt>
      <trkpt lat="47.58185" lon="-3.13507">
        <ele>4.62816</ele>
        <time>2021-12-01T10:40:26.000Z</time>
      </trkpt>
      <trkpt lat="47.58181" lon="-3.13509">
        <ele>4.604983</ele>
        <time>2021-12-01T10:40:27.000Z</time>
      </trkpt>
      <trkpt lat="47.58166" lon="-3.13514">
        <ele>4.567026</ele>
        <time>2021-12-01T10:40:31.000Z</time>
      </trkpt>
      <trkpt lat="47.58162" lon="-3.13514">
        <ele>4.575816</ele>
        <time>2021-12-01T10:40:32.000Z</time>
      </trkpt>
      <trkpt lat="47.58152" lon="-3.1351">
        <ele>4.59469</ele>
        <time>2021-12-01T10:40:34.000Z</time>
      </trkpt>
      <trkpt lat="47.58148" lon="-3.13507">
        <ele>4.604422</ele>
        <time>2021-12-01T10:40:35.000Z</time>
      </trkpt>
      <trkpt lat="47.58139" lon="-3.135">
        <ele>4.624814</ele>
        <time>2021-12-01T10:40:37.000Z</time>
      </trkpt>
      <trkpt lat="47.58124" lon="-3.13494">
        <ele>4.655216</ele>
        <time>2021-12-01T10:40:40.000Z</time>
      </trkpt>
      <trkpt lat="47.58114" lon="-3.13492">
        <ele>4.676523</ele>
        <time>2021-12-01T10:40:42.000Z</time>
      </trkpt>
      <trkpt lat="47.58091" lon="-3.13491">
        <ele>4.721845</ele>
        <time>2021-12-01T10:40:46.000Z</time>
      </trkpt>
      <trkpt lat="47.58073" lon="-3.1349">
        <ele>4.756948</ele>
        <time>2021-12-01T10:40:49.000Z</time>
      </trkpt>
      <trkpt lat="47.58049" lon="-3.1349">
        <ele>4.804406</ele>
        <time>2021-12-01T10:40:53.000Z</time>
      </trkpt>
      <trkpt lat="47.58007" lon="-3.13489">
        <ele>4.888559</ele>
        <time>2021-12-01T10:41:00.000Z</time>
      </trkpt>
      <trkpt lat="47.57953" lon="-3.13488">
        <ele>4.736886</ele>
        <time>2021-12-01T10:41:09.000Z</time>
      </trkpt>
      <trkpt lat="47.57929" lon="-3.13488">
        <ele>4.641428</ele>
        <time>2021-12-01T10:41:13.000Z</time>
      </trkpt>
      <trkpt lat="47.57918" lon="-3.1349">
        <ele>4.592726</ele>
        <time>2021-12-01T10:41:15.000Z</time>
      </trkpt>
      <trkpt lat="47.57912" lon="-3.13492">
        <ele>4.568662</ele>
        <time>2021-12-01T10:41:16.000Z</time>
      </trkpt>
      <trkpt lat="47.57888" lon="-3.13494">
        <ele>4.470247</ele>
        <time>2021-12-01T10:41:20.000Z</time>
      </trkpt>
      <trkpt lat="47.57832" lon="-3.13493">
        <ele>4.24427</ele>
        <time>2021-12-01T10:41:29.000Z</time>
      </trkpt>
      <trkpt lat="47.57814" lon="-3.13492">
        <ele>4.178093</ele>
        <time>2021-12-01T10:41:32.000Z</time>
      </trkpt>
      <trkpt lat="47.57759" lon="-3.13492">
        <ele>4.17806</ele>
        <time>2021-12-01T10:41:41.000Z</time>
      </trkpt>
      <trkpt lat="47.57734" lon="-3.13492">
        <ele>4.178045</ele>
        <time>2021-12-01T10:41:45.000Z</time>
      </trkpt>
      <trkpt lat="47.57703" lon="-3.13494">
        <ele>4.178027</ele>
        <time>2021-12-01T10:41:50.000Z</time>
      </trkpt>
      <trkpt lat="47.57697" lon="-3.13493">
        <ele>4.178023</ele>
        <time>2021-12-01T10:41:51.000Z</time>
      </trkpt>
      <trkpt lat="47.5768" lon="-3.13494">
        <ele>4.178013</ele>
        <time>2021-12-01T10:41:54.000Z</time>
      </trkpt>
      <trkpt lat="47.5767" lon="-3.13498">
        <ele>4.178007</ele>
        <time>2021-12-01T10:41:56.000Z</time>
      </trkpt>
      <trkpt lat="47.57658" lon="-3.13506">
        <ele>4.177998</ele>
        <time>2021-12-01T10:42:00.000Z</time>
      </trkpt>
      <trkpt lat="47.57649" lon="-3.1351">
        <ele>4.177993</ele>
        <time>2021-12-01T10:42:03.000Z</time>
      </trkpt>
      <trkpt lat="47.57646" lon="-3.13508">
        <ele>4.177991</ele>
        <time>2021-12-01T10:42:04.000Z</time>
      </trkpt>
      <trkpt lat="47.57632" lon="-3.13499">
        <ele>4.150592</ele>
        <time>2021-12-01T10:42:08.000Z</time>
      </trkpt>
      <trkpt lat="47.57627" lon="-3.13498">
        <ele>4.132483</ele>
        <time>2021-12-01T10:42:09.000Z</time>
      </trkpt>
      <trkpt lat="47.57605" lon="-3.13497">
        <ele>4.051809</ele>
        <time>2021-12-01T10:42:13.000Z</time>
      </trkpt>
      <trkpt lat="47.57575" lon="-3.13493">
        <ele>3.943185</ele>
        <time>2021-12-01T10:42:18.000Z</time>
      </trkpt>
      <trkpt lat="47.5757" lon="-3.13493">
        <ele>3.925535</ele>
        <time>2021-12-01T10:42:19.000Z</time>
      </trkpt>
      <trkpt lat="47.57522" lon="-3.13494">
        <ele>3.751564</ele>
        <time>2021-12-01T10:42:27.000Z</time>
      </trkpt>
      <trkpt lat="47.57515" lon="-3.13494">
        <ele>3.729598</ele>
        <time>2021-12-01T10:42:28.000Z</time>
      </trkpt>
      <trkpt lat="47.57503" lon="-3.13498">
        <ele>3.682898</ele>
        <time>2021-12-01T10:42:30.000Z</time>
      </trkpt>
      <trkpt lat="47.57497" lon="-3.135">
        <ele>3.66032</ele>
        <time>2021-12-01T10:42:31.000Z</time>
      </trkpt>
      <trkpt lat="47.57491" lon="-3.13503">
        <ele>3.637595</ele>
        <time>2021-12-01T10:42:32.000Z</time>
      </trkpt>
      <trkpt lat="47.57479" lon="-3.13503">
        <ele>3.594342</ele>
        <time>2021-12-01T10:42:34.000Z</time>
      </trkpt>
      <trkpt lat="47.57472" lon="-3.13502">
        <ele>3.571828</ele>
        <time>2021-12-01T10:42:35.000Z</time>
      </trkpt>
      <trkpt lat="47.5746" lon="-3.13499">
        <ele>3.529509</ele>
        <time>2021-12-01T10:42:37.000Z</time>
      </trkpt>
      <trkpt lat="47.57441" lon="-3.13492">
        <ele>3.513924</ele>
        <time>2021-12-01T10:42:40.000Z</time>
      </trkpt>
      <trkpt lat="47.57435" lon="-3.13489">
        <ele>3.508519</ele>
        <time>2021-12-01T10:42:41.000Z</time>
      </trkpt>
      <trkpt lat="47.57422" lon="-3.13487">
        <ele>3.498282</ele>
        <time>2021-12-01T10:42:43.000Z</time>
      </trkpt>
      <trkpt lat="47.57398" lon="-3.13486">
        <ele>3.479176</ele>
        <time>2021-12-01T10:42:47.000Z</time>
      </trkpt>
      <trkpt lat="47.57381" lon="-3.13485">
        <ele>3.465425</ele>
        <time>2021-12-01T10:42:50.000Z</time>
      </trkpt>
      <trkpt lat="47.5737" lon="-3.13484">
        <ele>3.456628</ele>
        <time>2021-12-01T10:42:52.000Z</time>
      </trkpt>
      <trkpt lat="47.57342" lon="-3.13486">
        <ele>3.434563</ele>
        <time>2021-12-01T10:42:57.000Z</time>
      </trkpt>
      <trkpt lat="47.57325" lon="-3.13489">
        <ele>3.420943</ele>
        <time>2021-12-01T10:43:00.000Z</time>
      </trkpt>
      <trkpt lat="47.57316" lon="-3.13492">
        <ele>3.413404</ele>
        <time>2021-12-01T10:43:02.000Z</time>
      </trkpt>
      <trkpt lat="47.57308" lon="-3.13496">
        <ele>3.406303</ele>
        <time>2021-12-01T10:43:04.000Z</time>
      </trkpt>
      <trkpt lat="47.57298" lon="-3.13493">
        <ele>3.398481</ele>
        <time>2021-12-01T10:43:06.000Z</time>
      </trkpt>
      <trkpt lat="47.57294" lon="-3.13488">
        <ele>3.394532</ele>
        <time>2021-12-01T10:43:07.000Z</time>
      </trkpt>
      <trkpt lat="47.57287" lon="-3.13478">
        <ele>3.386285</ele>
        <time>2021-12-01T10:43:09.000Z</time>
      </trkpt>
      <trkpt lat="47.57277" lon="-3.13473">
        <ele>3.375297</ele>
        <time>2021-12-01T10:43:11.000Z</time>
      </trkpt>
      <trkpt lat="47.57245" lon="-3.13473">
        <ele>3.339828</ele>
        <time>2021-12-01T10:43:17.000Z</time>
      </trkpt>
      <trkpt lat="47.57233" lon="-3.13474">
        <ele>3.326462</ele>
        <time>2021-12-01T10:43:19.000Z</time>
      </trkpt>
      <trkpt lat="47.57214" lon="-3.13473">
        <ele>3.306642</ele>
        <time>2021-12-01T10:43:22.000Z</time>
      </trkpt>
      <trkpt lat="47.57173" lon="-3.13472">
        <ele>3.261211</ele>
        <time>2021-12-01T10:43:29.000Z</time>
      </trkpt>
      <trkpt lat="47.57126" lon="-3.13471">
        <ele>3.209865</ele>
        <time>2021-12-01T10:43:37.000Z</time>
      </trkpt>
      <trkpt lat="47.57102" lon="-3.13472">
        <ele>3.173362</ele>
        <time>2021-12-01T10:43:41.000Z</time>
      </trkpt>
      <trkpt lat="47.57091" lon="-3.13477">
        <ele>3.137321</ele>
        <time>2021-12-01T10:43:43.000Z</time>
      </trkpt>
      <trkpt lat="47.57073" lon="-3.13484">
        <ele>3.082131</ele>
        <time>2021-12-01T10:43:46.000Z</time>
      </trkpt>
      <trkpt lat="47.57067" lon="-3.13484">
        <ele>3.063948</ele>
        <time>2021-12-01T10:43:47.000Z</time>
      </trkpt>
      <trkpt lat="47.57062" lon="-3.13482">
        <ele>3.04686</ele>
        <time>2021-12-01T10:43:48.000Z</time>
      </trkpt>
      <trkpt lat="47.57047" lon="-3.1347">
        <ele>2.99631</ele>
        <time>2021-12-01T10:43:51.000Z</time>
      </trkpt>
      <trkpt lat="47.57025" lon="-3.13469">
        <ele>2.930605</ele>
        <time>2021-12-01T10:43:55.000Z</time>
      </trkpt>
      <trkpt lat="47.56972" lon="-3.13467">
        <ele>2.768691</ele>
        <time>2021-12-01T10:44:04.000Z</time>
      </trkpt>
      <trkpt lat="47.56923" lon="-3.13466">
        <ele>2.671827</ele>
        <time>2021-12-01T10:44:12.000Z</time>
      </trkpt>
      <trkpt lat="47.56865" lon="-3.13465">
        <ele>2.849726</ele>
        <time>2021-12-01T10:44:21.000Z</time>
      </trkpt>
      <trkpt lat="47.56859" lon="-3.13465">
        <ele>2.869251</ele>
        <time>2021-12-01T10:44:22.000Z</time>
      </trkpt>
      <trkpt lat="47.56803" lon="-3.13464">
        <ele>3.044041</ele>
        <time>2021-12-01T10:44:31.000Z</time>
      </trkpt>
      <trkpt lat="47.56755" lon="-3.13463">
        <ele>3.192837</ele>
        <time>2021-12-01T10:44:39.000Z</time>
      </trkpt>
      <trkpt lat="47.567" lon="-3.13462">
        <ele>3.401485</ele>
        <time>2021-12-01T10:44:48.000Z</time>
      </trkpt>
      <trkpt lat="47.56682" lon="-3.13461">
        <ele>3.470493</ele>
        <time>2021-12-01T10:44:51.000Z</time>
      </trkpt>
      <trkpt lat="47.56666" lon="-3.13462">
        <ele>3.534467</ele>
        <time>2021-12-01T10:44:54.000Z</time>
      </trkpt>
      <trkpt lat="47.56661" lon="-3.13464">
        <ele>3.555493</ele>
        <time>2021-12-01T10:44:55.000Z</time>
      </trkpt>
      <trkpt lat="47.5665" lon="-3.13472">
        <ele>3.59938</ele>
        <time>2021-12-01T10:44:57.000Z</time>
      </trkpt>
      <trkpt lat="47.5664" lon="-3.13478">
        <ele>3.644341</ele>
        <time>2021-12-01T10:44:59.000Z</time>
      </trkpt>
      <trkpt lat="47.56634" lon="-3.1348">
        <ele>3.665972</ele>
        <time>2021-12-01T10:45:00.000Z</time>
      </trkpt>
      <trkpt lat="47.56623" lon="-3.13485">
        <ele>3.711975</ele>
        <time>2021-12-01T10:45:02.000Z</time>
      </trkpt>
      <trkpt lat="47.56612" lon="-3.13491">
        <ele>3.756585</ele>
        <time>2021-12-01T10:45:04.000Z</time>
      </trkpt>
      <trkpt lat="47.56607" lon="-3.13492">
        <ele>3.778439</ele>
        <time>2021-12-01T10:45:05.000Z</time>
      </trkpt>
      <trkpt lat="47.56601" lon="-3.13491">
        <ele>3.79883</ele>
        <time>2021-12-01T10:45:06.000Z</time>
      </trkpt>
      <trkpt lat="47.56587" lon="-3.13482">
        <ele>3.860759</ele>
        <time>2021-12-01T10:45:09.000Z</time>
      </trkpt>
      <trkpt lat="47.56581" lon="-3.13479">
        <ele>3.882678</ele>
        <time>2021-12-01T10:45:10.000Z</time>
      </trkpt>
      <trkpt lat="47.56564" lon="-3.13477">
        <ele>3.951119</ele>
        <time>2021-12-01T10:45:13.000Z</time>
      </trkpt>
      <trkpt lat="47.5653" lon="-3.13481">
        <ele>4.086419</ele>
        <time>2021-12-01T10:45:19.000Z</time>
      </trkpt>
      <trkpt lat="47.56524" lon="-3.13479">
        <ele>4.108535</ele>
        <time>2021-12-01T10:45:20.000Z</time>
      </trkpt>
      <trkpt lat="47.56519" lon="-3.13476">
        <ele>4.132368</ele>
        <time>2021-12-01T10:45:21.000Z</time>
      </trkpt>
      <trkpt lat="47.56502" lon="-3.13467">
        <ele>4.202181</ele>
        <time>2021-12-01T10:45:24.000Z</time>
      </trkpt>
      <trkpt lat="47.56496" lon="-3.13466">
        <ele>4.22488</ele>
        <time>2021-12-01T10:45:25.000Z</time>
      </trkpt>
      <trkpt lat="47.56491" lon="-3.13466">
        <ele>4.247428</ele>
        <time>2021-12-01T10:45:26.000Z</time>
      </trkpt>
      <trkpt lat="47.56463" lon="-3.13466">
        <ele>4.358556</ele>
        <time>2021-12-01T10:45:31.000Z</time>
      </trkpt>
      <trkpt lat="47.56434" lon="-3.13469">
        <ele>4.471874</ele>
        <time>2021-12-01T10:45:37.000Z</time>
      </trkpt>
      <trkpt lat="47.56423" lon="-3.1347">
        <ele>4.515515</ele>
        <time>2021-12-01T10:45:39.000Z</time>
      </trkpt>
      <trkpt lat="47.56417" lon="-3.1347">
        <ele>4.538454</ele>
        <time>2021-12-01T10:45:40.000Z</time>
      </trkpt>
      <trkpt lat="47.56405" lon="-3.1347">
        <ele>4.586702</ele>
        <time>2021-12-01T10:45:42.000Z</time>
      </trkpt>
      <trkpt lat="47.56381" lon="-3.13468">
        <ele>4.613818</ele>
        <time>2021-12-01T10:45:46.000Z</time>
      </trkpt>
      <trkpt lat="47.56375" lon="-3.13465">
        <ele>4.614705</ele>
        <time>2021-12-01T10:45:47.000Z</time>
      </trkpt>
      <trkpt lat="47.56358" lon="-3.1346">
        <ele>4.617283</ele>
        <time>2021-12-01T10:45:50.000Z</time>
      </trkpt>
      <trkpt lat="47.56341" lon="-3.13458">
        <ele>4.619924</ele>
        <time>2021-12-01T10:45:53.000Z</time>
      </trkpt>
      <trkpt lat="47.56298" lon="-3.13457">
        <ele>4.626308</ele>
        <time>2021-12-01T10:46:01.000Z</time>
      </trkpt>
      <trkpt lat="47.56283" lon="-3.13457">
        <ele>4.6286</ele>
        <time>2021-12-01T10:46:04.000Z</time>
      </trkpt>
      <trkpt lat="47.56272" lon="-3.13456">
        <ele>4.630235</ele>
        <time>2021-12-01T10:46:06.000Z</time>
      </trkpt>
      <trkpt lat="47.56232" lon="-3.13456">
        <ele>4.636168</ele>
        <time>2021-12-01T10:46:14.000Z</time>
      </trkpt>
      <trkpt lat="47.56223" lon="-3.13457">
        <ele>4.637502</ele>
        <time>2021-12-01T10:46:16.000Z</time>
      </trkpt>
      <trkpt lat="47.56205" lon="-3.13456">
        <ele>4.651174</ele>
        <time>2021-12-01T10:46:20.000Z</time>
      </trkpt>
      <trkpt lat="47.56156" lon="-3.13454">
        <ele>4.696016</ele>
        <time>2021-12-01T10:46:29.000Z</time>
      </trkpt>
      <trkpt lat="47.56104" lon="-3.13451">
        <ele>4.743612</ele>
        <time>2021-12-01T10:46:38.000Z</time>
      </trkpt>
      <trkpt lat="47.56054" lon="-3.13452">
        <ele>4.790087</ele>
        <time>2021-12-01T10:46:47.000Z</time>
      </trkpt>
      <trkpt lat="47.5602" lon="-3.13451">
        <ele>4.737529</ele>
        <time>2021-12-01T10:46:54.000Z</time>
      </trkpt>
      <trkpt lat="47.56013" lon="-3.13454">
        <ele>4.711827</ele>
        <time>2021-12-01T10:46:56.000Z</time>
      </trkpt>
      <trkpt lat="47.56009" lon="-3.13462">
        <ele>4.688805</ele>
        <time>2021-12-01T10:46:58.000Z</time>
      </trkpt>
      <trkpt lat="47.56007" lon="-3.13467">
        <ele>4.67655</ele>
        <time>2021-12-01T10:46:59.000Z</time>
      </trkpt>
      <trkpt lat="47.56005" lon="-3.13485">
        <ele>4.635691</ele>
        <time>2021-12-01T10:47:02.000Z</time>
      </trkpt>
      <trkpt lat="47.56001" lon="-3.13515">
        <ele>4.567765</ele>
        <time>2021-12-01T10:47:06.000Z</time>
      </trkpt>
      <trkpt lat="47.56003" lon="-3.1354">
        <ele>4.511629</ele>
        <time>2021-12-01T10:47:09.000Z</time>
      </trkpt>
      <trkpt lat="47.56002" lon="-3.13548">
        <ele>4.493072</ele>
        <time>2021-12-01T10:47:10.000Z</time>
      </trkpt>
      <trkpt lat="47.56" lon="-3.13555">
        <ele>4.476195</ele>
        <time>2021-12-01T10:47:11.000Z</time>
      </trkpt>
      <trkpt lat="47.55995" lon="-3.13569">
        <ele>4.440598</ele>
        <time>2021-12-01T10:47:13.000Z</time>
      </trkpt>
      <trkpt lat="47.55993" lon="-3.13582">
        <ele>4.41197</ele>
        <time>2021-12-01T10:47:16.000Z</time>
      </trkpt>
      <trkpt lat="47.55992" lon="-3.13597">
        <ele>4.377319</ele>
        <time>2021-12-01T10:47:20.000Z</time>
      </trkpt>
      <trkpt lat="47.55992" lon="-3.13602">
        <ele>4.365881</ele>
        <time>2021-12-01T10:47:21.000Z</time>
      </trkpt>
      <trkpt lat="47.55997" lon="-3.13637">
        <ele>4.28561</ele>
        <time>2021-12-01T10:47:27.000Z</time>
      </trkpt>
      <trkpt lat="47.55998" lon="-3.13661">
        <ele>4.232714</ele>
        <time>2021-12-01T10:47:30.000Z</time>
      </trkpt>
      <trkpt lat="47.55996" lon="-3.13676">
        <ele>4.232755</ele>
        <time>2021-12-01T10:47:32.000Z</time>
      </trkpt>
      <trkpt lat="47.55995" lon="-3.13683">
        <ele>4.290952</ele>
        <time>2021-12-01T10:47:33.000Z</time>
      </trkpt>
      <trkpt lat="47.55987" lon="-3.13712">
        <ele>4.520028</ele>
        <time>2021-12-01T10:47:38.000Z</time>
      </trkpt>
      <trkpt lat="47.55987" lon="-3.13721">
        <ele>4.590373</ele>
        <time>2021-12-01T10:47:40.000Z</time>
      </trkpt>
      <trkpt lat="47.55987" lon="-3.13725">
        <ele>4.621902</ele>
        <time>2021-12-01T10:47:41.000Z</time>
      </trkpt>
      <trkpt lat="47.55983" lon="-3.13741">
        <ele>4.750027</ele>
        <time>2021-12-01T10:47:45.000Z</time>
      </trkpt>
      <trkpt lat="47.55978" lon="-3.1376">
        <ele>4.912988</ele>
        <time>2021-12-01T10:47:50.000Z</time>
      </trkpt>
      <trkpt lat="47.55974" lon="-3.13769">
        <ele>4.989963</ele>
        <time>2021-12-01T10:47:54.000Z</time>
      </trkpt>
      <trkpt lat="47.55973" lon="-3.13771">
        <ele>5.005839</ele>
        <time>2021-12-01T10:47:55.000Z</time>
      </trkpt>
      <trkpt lat="47.55973" lon="-3.13773">
        <ele>5.027621</ele>
        <time>2021-12-01T10:47:59.000Z</time>
      </trkpt>
      <trkpt lat="47.55972" lon="-3.13772">
        <ele>5.042173</ele>
        <time>2021-12-01T10:48:37.000Z</time>
      </trkpt>
      <trkpt lat="47.55962" lon="-3.13764">
        <ele>5.172426</ele>
        <time>2021-12-01T10:48:42.000Z</time>
      </trkpt>
      <trkpt lat="47.5595" lon="-3.1376">
        <ele>5.308968</ele>
        <time>2021-12-01T10:48:45.000Z</time>
      </trkpt>
      <trkpt lat="47.55942" lon="-3.13756">
        <ele>5.410401</ele>
        <time>2021-12-01T10:48:47.000Z</time>
      </trkpt>
      <trkpt lat="47.55907" lon="-3.13748">
        <ele>5.800393</ele>
        <time>2021-12-01T10:48:54.000Z</time>
      </trkpt>
      <trkpt lat="47.55903" lon="-3.13747">
        <ele>5.856178</ele>
        <time>2021-12-01T10:48:55.000Z</time>
      </trkpt>
      <trkpt lat="47.55876" lon="-3.13737">
        <ele>6.166592</ele>
        <time>2021-12-01T10:49:00.000Z</time>
      </trkpt>
      <trkpt lat="47.55835" lon="-3.13725">
        <ele>6.241933</ele>
        <time>2021-12-01T10:49:07.000Z</time>
      </trkpt>
      <trkpt lat="47.55781" lon="-3.1371">
        <ele>6.253801</ele>
        <time>2021-12-01T10:49:16.000Z</time>
      </trkpt>
      <trkpt lat="47.55775" lon="-3.13708">
        <ele>6.255108</ele>
        <time>2021-12-01T10:49:17.000Z</time>
      </trkpt>
      <trkpt lat="47.55721" lon="-3.13691">
        <ele>6.267125</ele>
        <time>2021-12-01T10:49:26.000Z</time>
      </trkpt>
      <trkpt lat="47.5567" lon="-3.13671">
        <ele>6.371357</ele>
        <time>2021-12-01T10:49:35.000Z</time>
      </trkpt>
      <trkpt lat="47.55628" lon="-3.13655">
        <ele>6.536555</ele>
        <time>2021-12-01T10:49:43.000Z</time>
      </trkpt>
      <trkpt lat="47.55619" lon="-3.13651">
        <ele>6.573852</ele>
        <time>2021-12-01T10:49:45.000Z</time>
      </trkpt>
      <trkpt lat="47.5561" lon="-3.13648">
        <ele>6.610958</ele>
        <time>2021-12-01T10:49:47.000Z</time>
      </trkpt>
      <trkpt lat="47.55605" lon="-3.13645">
        <ele>6.629539</ele>
        <time>2021-12-01T10:49:48.000Z</time>
      </trkpt>
      <trkpt lat="47.55592" lon="-3.13638">
        <ele>6.686574</ele>
        <time>2021-12-01T10:49:51.000Z</time>
      </trkpt>
      <trkpt lat="47.55587" lon="-3.13636">
        <ele>6.705889</ele>
        <time>2021-12-01T10:49:52.000Z</time>
      </trkpt>
      <trkpt lat="47.55577" lon="-3.13635">
        <ele>6.744376</ele>
        <time>2021-12-01T10:49:54.000Z</time>
      </trkpt>
      <trkpt lat="47.55545" lon="-3.13628">
        <ele>6.868009</ele>
        <time>2021-12-01T10:50:00.000Z</time>
      </trkpt>
      <trkpt lat="47.55495" lon="-3.13606">
        <ele>6.993092</ele>
        <time>2021-12-01T10:50:09.000Z</time>
      </trkpt>
      <trkpt lat="47.55443" lon="-3.13582">
        <ele>7.038436</ele>
        <time>2021-12-01T10:50:18.000Z</time>
      </trkpt>
      <trkpt lat="47.55437" lon="-3.1358">
        <ele>7.043399</ele>
        <time>2021-12-01T10:50:19.000Z</time>
      </trkpt>
      <trkpt lat="47.55396" lon="-3.13562">
        <ele>7.079312</ele>
        <time>2021-12-01T10:50:26.000Z</time>
      </trkpt>
      <trkpt lat="47.5534" lon="-3.13536">
        <ele>7.097176</ele>
        <time>2021-12-01T10:50:36.000Z</time>
      </trkpt>
      <trkpt lat="47.55289" lon="-3.13521">
        <ele>6.943184</ele>
        <time>2021-12-01T10:50:45.000Z</time>
      </trkpt>
      <trkpt lat="47.55246" lon="-3.13509">
        <ele>6.811831</ele>
        <time>2021-12-01T10:50:53.000Z</time>
      </trkpt>
      <trkpt lat="47.55236" lon="-3.13505">
        <ele>6.780996</ele>
        <time>2021-12-01T10:50:55.000Z</time>
      </trkpt>
      <trkpt lat="47.55228" lon="-3.13495">
        <ele>6.750675</ele>
        <time>2021-12-01T10:50:57.000Z</time>
      </trkpt>
      <trkpt lat="47.55225" lon="-3.1348">
        <ele>6.718334</ele>
        <time>2021-12-01T10:50:59.000Z</time>
      </trkpt>
      <trkpt lat="47.55225" lon="-3.13471">
        <ele>6.700621</ele>
        <time>2021-12-01T10:51:00.000Z</time>
      </trkpt>
      <trkpt lat="47.55226" lon="-3.13454">
        <ele>6.665169</ele>
        <time>2021-12-01T10:51:02.000Z</time>
      </trkpt>
      <trkpt lat="47.55224" lon="-3.1344">
        <ele>6.637136</ele>
        <time>2021-12-01T10:51:04.000Z</time>
      </trkpt>
      <trkpt lat="47.5522" lon="-3.13433">
        <ele>6.619743</ele>
        <time>2021-12-01T10:51:06.000Z</time>
      </trkpt>
      <trkpt lat="47.55218" lon="-3.13431">
        <ele>6.611714</ele>
        <time>2021-12-01T10:51:07.000Z</time>
      </trkpt>
      <trkpt lat="47.55215" lon="-3.13428">
        <ele>6.601861</ele>
        <time>2021-12-01T10:51:08.000Z</time>
      </trkpt>
      <trkpt lat="47.55207" lon="-3.13427">
        <ele>6.600254</ele>
        <time>2021-12-01T10:51:10.000Z</time>
      </trkpt>
      <trkpt lat="47.55203" lon="-3.13427">
        <ele>6.630524</ele>
        <time>2021-12-01T10:51:11.000Z</time>
      </trkpt>
      <trkpt lat="47.55178" lon="-3.13427">
        <ele>6.796064</ele>
        <time>2021-12-01T10:51:16.000Z</time>
      </trkpt>
      <trkpt lat="47.55134" lon="-3.13426">
        <ele>7.083814</ele>
        <time>2021-12-01T10:51:24.000Z</time>
      </trkpt>
      <trkpt lat="47.55101" lon="-3.13427">
        <ele>7.300614</ele>
        <time>2021-12-01T10:51:30.000Z</time>
      </trkpt>
      <trkpt lat="47.55079" lon="-3.13427">
        <ele>7.444476</ele>
        <time>2021-12-01T10:51:34.000Z</time>
      </trkpt>
      <trkpt lat="47.55027" lon="-3.13424">
        <ele>7.764046</ele>
        <time>2021-12-01T10:51:43.000Z</time>
      </trkpt>
      <trkpt lat="47.54967" lon="-3.13422">
        <ele>7.719284</ele>
        <time>2021-12-01T10:51:53.000Z</time>
      </trkpt>
      <trkpt lat="47.54913" lon="-3.1342">
        <ele>7.678285</ele>
        <time>2021-12-01T10:52:02.000Z</time>
      </trkpt>
      <trkpt lat="47.54901" lon="-3.13419">
        <ele>7.669016</ele>
        <time>2021-12-01T10:52:04.000Z</time>
      </trkpt>
      <trkpt lat="47.54844" lon="-3.13418">
        <ele>7.619744</ele>
        <time>2021-12-01T10:52:13.000Z</time>
      </trkpt>
      <trkpt lat="47.54826" lon="-3.13418">
        <ele>7.583179</ele>
        <time>2021-12-01T10:52:16.000Z</time>
      </trkpt>
      <trkpt lat="47.54771" lon="-3.13416">
        <ele>7.473253</ele>
        <time>2021-12-01T10:52:25.000Z</time>
      </trkpt>
      <trkpt lat="47.54764" lon="-3.13416">
        <ele>7.460335</ele>
        <time>2021-12-01T10:52:26.000Z</time>
      </trkpt>
      <trkpt lat="47.54708" lon="-3.13415">
        <ele>7.348048</ele>
        <time>2021-12-01T10:52:35.000Z</time>
      </trkpt>
      <trkpt lat="47.54702" lon="-3.13414">
        <ele>7.336522</ele>
        <time>2021-12-01T10:52:36.000Z</time>
      </trkpt>
      <trkpt lat="47.5465" lon="-3.13414">
        <ele>7.467596</ele>
        <time>2021-12-01T10:52:45.000Z</time>
      </trkpt>
      <trkpt lat="47.5461" lon="-3.13412">
        <ele>7.857517</ele>
        <time>2021-12-01T10:52:52.000Z</time>
      </trkpt>
      <trkpt lat="47.54558" lon="-3.13406">
        <ele>8.354667</ele>
        <time>2021-12-01T10:53:01.000Z</time>
      </trkpt>
      <trkpt lat="47.54519" lon="-3.13416">
        <ele>8.73201</ele>
        <time>2021-12-01T10:53:08.000Z</time>
      </trkpt>
      <trkpt lat="47.54514" lon="-3.13417">
        <ele>8.786782</ele>
        <time>2021-12-01T10:53:09.000Z</time>
      </trkpt>
      <trkpt lat="47.54475" lon="-3.13428">
        <ele>9.213353</ele>
        <time>2021-12-01T10:53:16.000Z</time>
      </trkpt>
      <trkpt lat="47.54469" lon="-3.13429">
        <ele>9.284134</ele>
        <time>2021-12-01T10:53:17.000Z</time>
      </trkpt>
      <trkpt lat="47.54421" lon="-3.13442">
        <ele>9.895226</ele>
        <time>2021-12-01T10:53:26.000Z</time>
      </trkpt>
      <trkpt lat="47.544" lon="-3.13447">
        <ele>10.164412</ele>
        <time>2021-12-01T10:53:30.000Z</time>
      </trkpt>
      <trkpt lat="47.54366" lon="-3.13456">
        <ele>10.591046</ele>
        <time>2021-12-01T10:53:36.000Z</time>
      </trkpt>
      <trkpt lat="47.5432" lon="-3.13469">
        <ele>11.176525</ele>
        <time>2021-12-01T10:53:44.000Z</time>
      </trkpt>
      <trkpt lat="47.54279" lon="-3.13479">
        <ele>11.121019</ele>
        <time>2021-12-01T10:53:52.000Z</time>
      </trkpt>
      <trkpt lat="47.54266" lon="-3.13486">
        <ele>11.071123</ele>
        <time>2021-12-01T10:53:56.000Z</time>
      </trkpt>
      <trkpt lat="47.54255" lon="-3.13487">
        <ele>11.033436</ele>
        <time>2021-12-01T10:53:59.000Z</time>
      </trkpt>
      <trkpt lat="47.54252" lon="-3.13489">
        <ele>11.020842</ele>
        <time>2021-12-01T10:54:00.000Z</time>
      </trkpt>
      <trkpt lat="47.54229" lon="-3.13494">
        <ele>10.939605</ele>
        <time>2021-12-01T10:54:05.000Z</time>
      </trkpt>
      <trkpt lat="47.54186" lon="-3.13507">
        <ele>10.787806</ele>
        <time>2021-12-01T10:54:13.000Z</time>
      </trkpt>
      <trkpt lat="47.54154" lon="-3.13517">
        <ele>10.672001</ele>
        <time>2021-12-01T10:54:19.000Z</time>
      </trkpt>
      <trkpt lat="47.54143" lon="-3.13521">
        <ele>10.631998</ele>
        <time>2021-12-01T10:54:21.000Z</time>
      </trkpt>
      <trkpt lat="47.5409" lon="-3.13538">
        <ele>9.611537</ele>
        <time>2021-12-01T10:54:30.000Z</time>
      </trkpt>
      <trkpt lat="47.54039" lon="-3.13554">
        <ele>8.536145</ele>
        <time>2021-12-01T10:54:38.000Z</time>
      </trkpt>
      <trkpt lat="47.54026" lon="-3.13559">
        <ele>8.257716</ele>
        <time>2021-12-01T10:54:40.000Z</time>
      </trkpt>
      <trkpt lat="47.54012" lon="-3.13562">
        <ele>7.982686</ele>
        <time>2021-12-01T10:54:42.000Z</time>
      </trkpt>
      <trkpt lat="47.53981" lon="-3.13572">
        <ele>7.323196</ele>
        <time>2021-12-01T10:54:47.000Z</time>
      </trkpt>
      <trkpt lat="47.53975" lon="-3.13574">
        <ele>7.198254</ele>
        <time>2021-12-01T10:54:48.000Z</time>
      </trkpt>
      <trkpt lat="47.53959" lon="-3.13578">
        <ele>6.937624</ele>
        <time>2021-12-01T10:54:51.000Z</time>
      </trkpt>
      <trkpt lat="47.53944" lon="-3.13583">
        <ele>6.941441</ele>
        <time>2021-12-01T10:54:54.000Z</time>
      </trkpt>
      <trkpt lat="47.53889" lon="-3.136">
        <ele>6.954886</ele>
        <time>2021-12-01T10:55:04.000Z</time>
      </trkpt>
      <trkpt lat="47.53883" lon="-3.13602">
        <ele>6.956248</ele>
        <time>2021-12-01T10:55:05.000Z</time>
      </trkpt>
      <trkpt lat="47.53839" lon="-3.13618">
        <ele>6.967177</ele>
        <time>2021-12-01T10:55:13.000Z</time>
      </trkpt>
      <trkpt lat="47.53813" lon="-3.1362">
        <ele>6.973419</ele>
        <time>2021-12-01T10:55:18.000Z</time>
      </trkpt>
      <trkpt lat="47.53809" lon="-3.1362">
        <ele>6.974502</ele>
        <time>2021-12-01T10:55:19.000Z</time>
      </trkpt>
      <trkpt lat="47.53795" lon="-3.13621">
        <ele>6.977757</ele>
        <time>2021-12-01T10:55:22.000Z</time>
      </trkpt>
      <trkpt lat="47.53777" lon="-3.13625">
        <ele>7.057833</ele>
        <time>2021-12-01T10:55:26.000Z</time>
      </trkpt>
      <trkpt lat="47.53767" lon="-3.13625">
        <ele>7.147019</ele>
        <time>2021-12-01T10:55:28.000Z</time>
      </trkpt>
      <trkpt lat="47.53758" lon="-3.13628">
        <ele>7.23108</ele>
        <time>2021-12-01T10:55:30.000Z</time>
      </trkpt>
      <trkpt lat="47.53749" lon="-3.13631">
        <ele>7.316553</ele>
        <time>2021-12-01T10:55:32.000Z</time>
      </trkpt>
      <trkpt lat="47.53722" lon="-3.13638">
        <ele>7.563492</ele>
        <time>2021-12-01T10:55:38.000Z</time>
      </trkpt>
      <trkpt lat="47.53709" lon="-3.13643">
        <ele>7.685691</ele>
        <time>2021-12-01T10:55:41.000Z</time>
      </trkpt>
      <trkpt lat="47.53699" lon="-3.13646">
        <ele>7.772482</ele>
        <time>2021-12-01T10:55:43.000Z</time>
      </trkpt>
      <trkpt lat="47.53695" lon="-3.13648">
        <ele>7.816169</ele>
        <time>2021-12-01T10:55:44.000Z</time>
      </trkpt>
      <trkpt lat="47.5369" lon="-3.1365">
        <ele>7.861039</ele>
        <time>2021-12-01T10:55:45.000Z</time>
      </trkpt>
      <trkpt lat="47.53668" lon="-3.13656">
        <ele>8.062117</ele>
        <time>2021-12-01T10:55:50.000Z</time>
      </trkpt>
      <trkpt lat="47.53641" lon="-3.13663">
        <ele>8.306998</ele>
        <time>2021-12-01T10:55:56.000Z</time>
      </trkpt>
      <trkpt lat="47.53626" lon="-3.13668">
        <ele>8.447729</ele>
        <time>2021-12-01T10:56:00.000Z</time>
      </trkpt>
      <trkpt lat="47.53621" lon="-3.13672">
        <ele>8.498524</ele>
        <time>2021-12-01T10:56:02.000Z</time>
      </trkpt>
      <trkpt lat="47.53616" lon="-3.13675">
        <ele>8.543886</ele>
        <time>2021-12-01T10:56:04.000Z</time>
      </trkpt>
      <trkpt lat="47.53613" lon="-3.13675">
        <ele>8.57001</ele>
        <time>2021-12-01T10:56:05.000Z</time>
      </trkpt>
      <trkpt lat="47.53597" lon="-3.13671">
        <ele>8.566285</ele>
        <time>2021-12-01T10:56:09.000Z</time>
      </trkpt>
      <trkpt lat="47.53588" lon="-3.13672">
        <ele>8.541816</ele>
        <time>2021-12-01T10:56:11.000Z</time>
      </trkpt>
      <trkpt lat="47.53572" lon="-3.13678">
        <ele>8.50151</ele>
        <time>2021-12-01T10:56:14.000Z</time>
      </trkpt>
      <trkpt lat="47.53566" lon="-3.1368">
        <ele>8.487026</ele>
        <time>2021-12-01T10:56:15.000Z</time>
      </trkpt>
      <trkpt lat="47.53543" lon="-3.13685">
        <ele>8.428255</ele>
        <time>2021-12-01T10:56:19.000Z</time>
      </trkpt>
      <trkpt lat="47.53488" lon="-3.13702">
        <ele>8.288681</ele>
        <time>2021-12-01T10:56:28.000Z</time>
      </trkpt>
      <trkpt lat="47.53453" lon="-3.13711">
        <ele>8.199831</ele>
        <time>2021-12-01T10:56:34.000Z</time>
      </trkpt>
      <trkpt lat="47.53397" lon="-3.13727">
        <ele>8.378525</ele>
        <time>2021-12-01T10:56:44.000Z</time>
      </trkpt>
      <trkpt lat="47.53345" lon="-3.1374">
        <ele>8.709439</ele>
        <time>2021-12-01T10:56:54.000Z</time>
      </trkpt>
      <trkpt lat="47.53298" lon="-3.13755">
        <ele>9.006252</ele>
        <time>2021-12-01T10:57:03.000Z</time>
      </trkpt>
      <trkpt lat="47.53244" lon="-3.13769">
        <ele>9.336138</ele>
        <time>2021-12-01T10:57:12.000Z</time>
      </trkpt>
      <trkpt lat="47.53237" lon="-3.13771">
        <ele>9.370454</ele>
        <time>2021-12-01T10:57:13.000Z</time>
      </trkpt>
      <trkpt lat="47.53214" lon="-3.13777">
        <ele>9.498708</ele>
        <time>2021-12-01T10:57:17.000Z</time>
      </trkpt>
      <trkpt lat="47.53165" lon="-3.13791">
        <ele>9.770761</ele>
        <time>2021-12-01T10:57:26.000Z</time>
      </trkpt>
      <trkpt lat="47.53117" lon="-3.13805">
        <ele>10.037815</ele>
        <time>2021-12-01T10:57:35.000Z</time>
      </trkpt>
      <trkpt lat="47.53093" lon="-3.13812">
        <ele>10.176486</ele>
        <time>2021-12-01T10:57:40.000Z</time>
      </trkpt>
      <trkpt lat="47.53083" lon="-3.13815">
        <ele>10.23004</ele>
        <time>2021-12-01T10:57:42.000Z</time>
      </trkpt>
      <trkpt lat="47.53051" lon="-3.13824">
        <ele>10.785347</ele>
        <time>2021-12-01T10:57:49.000Z</time>
      </trkpt>
      <trkpt lat="47.53046" lon="-3.13825">
        <ele>10.867927</ele>
        <time>2021-12-01T10:57:50.000Z</time>
      </trkpt>
      <trkpt lat="47.53023" lon="-3.13831">
        <ele>11.300797</ele>
        <time>2021-12-01T10:57:55.000Z</time>
      </trkpt>
      <trkpt lat="47.53009" lon="-3.13835">
        <ele>11.562116</ele>
        <time>2021-12-01T10:57:58.000Z</time>
      </trkpt>
      <trkpt lat="47.52972" lon="-3.13846">
        <ele>12.25094</ele>
        <time>2021-12-01T10:58:06.000Z</time>
      </trkpt>
      <trkpt lat="47.52962" lon="-3.13849">
        <ele>12.424036</ele>
        <time>2021-12-01T10:58:08.000Z</time>
      </trkpt>
      <trkpt lat="47.52924" lon="-3.13858">
        <ele>13.128268</ele>
        <time>2021-12-01T10:58:16.000Z</time>
      </trkpt>
      <trkpt lat="47.52906" lon="-3.13864">
        <ele>13.465593</ele>
        <time>2021-12-01T10:58:20.000Z</time>
      </trkpt>
      <trkpt lat="47.52884" lon="-3.13871">
        <ele>13.784935</ele>
        <time>2021-12-01T10:58:25.000Z</time>
      </trkpt>
      <trkpt lat="47.52852" lon="-3.13879">
        <ele>14.247457</ele>
        <time>2021-12-01T10:58:32.000Z</time>
      </trkpt>
      <trkpt lat="47.52838" lon="-3.13884">
        <ele>14.4373</ele>
        <time>2021-12-01T10:58:35.000Z</time>
      </trkpt>
      <trkpt lat="47.52834" lon="-3.13885">
        <ele>14.499522</ele>
        <time>2021-12-01T10:58:36.000Z</time>
      </trkpt>
      <trkpt lat="47.52825" lon="-3.13887">
        <ele>14.61847</ele>
        <time>2021-12-01T10:58:38.000Z</time>
      </trkpt>
      <trkpt lat="47.52821" lon="-3.13888">
        <ele>14.674593</ele>
        <time>2021-12-01T10:58:39.000Z</time>
      </trkpt>
      <trkpt lat="47.52797" lon="-3.13894">
        <ele>15.01646</ele>
        <time>2021-12-01T10:58:45.000Z</time>
      </trkpt>
      <trkpt lat="47.52779" lon="-3.13898">
        <ele>15.26431</ele>
        <time>2021-12-01T10:58:49.000Z</time>
      </trkpt>
      <trkpt lat="47.52775" lon="-3.13899">
        <ele>15.32772</ele>
        <time>2021-12-01T10:58:50.000Z</time>
      </trkpt>
      <trkpt lat="47.52766" lon="-3.13903">
        <ele>15.454731</ele>
        <time>2021-12-01T10:58:52.000Z</time>
      </trkpt>
      <trkpt lat="47.52723" lon="-3.13915">
        <ele>15.979187</ele>
        <time>2021-12-01T10:59:01.000Z</time>
      </trkpt>
      <trkpt lat="47.52678" lon="-3.13927">
        <ele>15.608484</ele>
        <time>2021-12-01T10:59:10.000Z</time>
      </trkpt>
      <trkpt lat="47.52639" lon="-3.13936">
        <ele>15.282663</ele>
        <time>2021-12-01T10:59:18.000Z</time>
      </trkpt>
      <trkpt lat="47.52633" lon="-3.13937">
        <ele>15.23725</ele>
        <time>2021-12-01T10:59:19.000Z</time>
      </trkpt>
      <trkpt lat="47.526" lon="-3.13948">
        <ele>14.960143</ele>
        <time>2021-12-01T10:59:25.000Z</time>
      </trkpt>
      <trkpt lat="47.52595" lon="-3.13951">
        <ele>14.913927</ele>
        <time>2021-12-01T10:59:26.000Z</time>
      </trkpt>
      <trkpt lat="47.52578" lon="-3.13957">
        <ele>14.774597</ele>
        <time>2021-12-01T10:59:29.000Z</time>
      </trkpt>
      <trkpt lat="47.52573" lon="-3.13958">
        <ele>14.729453</ele>
        <time>2021-12-01T10:59:30.000Z</time>
      </trkpt>
      <trkpt lat="47.52562" lon="-3.13961">
        <ele>14.64088</ele>
        <time>2021-12-01T10:59:32.000Z</time>
      </trkpt>
      <trkpt lat="47.52513" lon="-3.13969">
        <ele>14.592215</ele>
        <time>2021-12-01T10:59:41.000Z</time>
      </trkpt>
      <trkpt lat="47.52486" lon="-3.13972">
        <ele>14.628969</ele>
        <time>2021-12-01T10:59:47.000Z</time>
      </trkpt>
      <trkpt lat="47.52482" lon="-3.13972">
        <ele>14.63449</ele>
        <time>2021-12-01T10:59:48.000Z</time>
      </trkpt>
      <trkpt lat="47.52475" lon="-3.13977">
        <ele>14.644346</ele>
        <time>2021-12-01T10:59:50.000Z</time>
      </trkpt>
      <trkpt lat="47.52469" lon="-3.13991">
        <ele>14.659305</ele>
        <time>2021-12-01T10:59:53.000Z</time>
      </trkpt>
      <trkpt lat="47.52461" lon="-3.14">
        <ele>14.672424</ele>
        <time>2021-12-01T10:59:56.000Z</time>
      </trkpt>
      <trkpt lat="47.52452" lon="-3.14004">
        <ele>14.685458</ele>
        <time>2021-12-01T11:00:01.000Z</time>
      </trkpt>
      <trkpt lat="47.5245" lon="-3.1401">
        <ele>14.691746</ele>
        <time>2021-12-01T11:00:03.000Z</time>
      </trkpt>
      <trkpt lat="47.52451" lon="-3.14021">
        <ele>14.701525</ele>
        <time>2021-12-01T11:00:05.000Z</time>
      </trkpt>
      <trkpt lat="47.52454" lon="-3.14035">
        <ele>14.714966</ele>
        <time>2021-12-01T11:00:07.000Z</time>
      </trkpt>
      <trkpt lat="47.52459" lon="-3.14053">
        <ele>14.732403</ele>
        <time>2021-12-01T11:00:09.000Z</time>
      </trkpt>
      <trkpt lat="47.52481" lon="-3.14099">
        <ele>14.782758</ele>
        <time>2021-12-01T11:00:15.000Z</time>
      </trkpt>
      <trkpt lat="47.52515" lon="-3.14171">
        <ele>14.262121</ele>
        <time>2021-12-01T11:00:25.000Z</time>
      </trkpt>
      <trkpt lat="47.52521" lon="-3.14185">
        <ele>14.163083</ele>
        <time>2021-12-01T11:00:27.000Z</time>
      </trkpt>
      <trkpt lat="47.52549" lon="-3.14242">
        <ele>13.745366</ele>
        <time>2021-12-01T11:00:36.000Z</time>
      </trkpt>
      <trkpt lat="47.52577" lon="-3.14302">
        <ele>13.31245</ele>
        <time>2021-12-01T11:00:45.000Z</time>
      </trkpt>
      <trkpt lat="47.52601" lon="-3.14338">
        <ele>12.958261</ele>
        <time>2021-12-01T11:00:51.000Z</time>
      </trkpt>
      <trkpt lat="47.5264" lon="-3.14388">
        <ele>12.368475</ele>
        <time>2021-12-01T11:01:00.000Z</time>
      </trkpt>
      <trkpt lat="47.52677" lon="-3.1444">
        <ele>11.792505</ele>
        <time>2021-12-01T11:01:09.000Z</time>
      </trkpt>
      <trkpt lat="47.52699" lon="-3.14488">
        <ele>11.343949</ele>
        <time>2021-12-01T11:01:16.000Z</time>
      </trkpt>
      <trkpt lat="47.52721" lon="-3.14526">
        <ele>11.19957</ele>
        <time>2021-12-01T11:01:22.000Z</time>
      </trkpt>
      <trkpt lat="47.52735" lon="-3.1455">
        <ele>11.245887</ele>
        <time>2021-12-01T11:01:26.000Z</time>
      </trkpt>
      <trkpt lat="47.52747" lon="-3.14567">
        <ele>11.280912</ele>
        <time>2021-12-01T11:01:29.000Z</time>
      </trkpt>
      <trkpt lat="47.52756" lon="-3.14582">
        <ele>11.310431</ele>
        <time>2021-12-01T11:01:32.000Z</time>
      </trkpt>
      <trkpt lat="47.52759" lon="-3.14587">
        <ele>11.319969</ele>
        <time>2021-12-01T11:01:33.000Z</time>
      </trkpt>
      <trkpt lat="47.52761" lon="-3.14599">
        <ele>11.33717</ele>
        <time>2021-12-01T11:01:35.000Z</time>
      </trkpt>
      <trkpt lat="47.52757" lon="-3.14614">
        <ele>11.361836</ele>
        <time>2021-12-01T11:01:38.000Z</time>
      </trkpt>
      <trkpt lat="47.52757" lon="-3.14637">
        <ele>11.394926</ele>
        <time>2021-12-01T11:01:42.000Z</time>
      </trkpt>
      <trkpt lat="47.52759" lon="-3.14669">
        <ele>11.442664</ele>
        <time>2021-12-01T11:01:47.000Z</time>
      </trkpt>
      <trkpt lat="47.52763" lon="-3.14709">
        <ele>11.502246</ele>
        <time>2021-12-01T11:01:53.000Z</time>
      </trkpt>
      <trkpt lat="47.52765" lon="-3.14716">
        <ele>11.512094</ele>
        <time>2021-12-01T11:01:54.000Z</time>
      </trkpt>
      <trkpt lat="47.52773" lon="-3.1474">
        <ele>11.537551</ele>
        <time>2021-12-01T11:01:58.000Z</time>
      </trkpt>
      <trkpt lat="47.5278" lon="-3.14758">
        <ele>11.308538</ele>
        <time>2021-12-01T11:02:01.000Z</time>
      </trkpt>
      <trkpt lat="47.52799" lon="-3.14802">
        <ele>10.735401</ele>
        <time>2021-12-01T11:02:08.000Z</time>
      </trkpt>
      <trkpt lat="47.52802" lon="-3.14819">
        <ele>10.544252</ele>
        <time>2021-12-01T11:02:10.000Z</time>
      </trkpt>
      <trkpt lat="47.52803" lon="-3.14854">
        <ele>10.160163</ele>
        <time>2021-12-01T11:02:14.000Z</time>
      </trkpt>
      <trkpt lat="47.52802" lon="-3.14871">
        <ele>9.973744</ele>
        <time>2021-12-01T11:02:16.000Z</time>
      </trkpt>
      <trkpt lat="47.52801" lon="-3.14896">
        <ele>9.702828</ele>
        <time>2021-12-01T11:02:19.000Z</time>
      </trkpt>
      <trkpt lat="47.52798" lon="-3.14942">
        <ele>9.199376</ele>
        <time>2021-12-01T11:02:25.000Z</time>
      </trkpt>
      <trkpt lat="47.52798" lon="-3.14956">
        <ele>9.040988</ele>
        <time>2021-12-01T11:02:27.000Z</time>
      </trkpt>
      <trkpt lat="47.52793" lon="-3.14991">
        <ele>8.649343</ele>
        <time>2021-12-01T11:02:32.000Z</time>
      </trkpt>
      <trkpt lat="47.52778" lon="-3.1505">
        <ele>8.553892</ele>
        <time>2021-12-01T11:02:41.000Z</time>
      </trkpt>
      <trkpt lat="47.52767" lon="-3.1509">
        <ele>8.500697</ele>
        <time>2021-12-01T11:02:47.000Z</time>
      </trkpt>
      <trkpt lat="47.52757" lon="-3.15121">
        <ele>8.457372</ele>
        <time>2021-12-01T11:02:52.000Z</time>
      </trkpt>
      <trkpt lat="47.52739" lon="-3.15177">
        <ele>8.380369</ele>
        <time>2021-12-01T11:03:01.000Z</time>
      </trkpt>
      <trkpt lat="47.5273" lon="-3.15208">
        <ele>8.337507</ele>
        <time>2021-12-01T11:03:06.000Z</time>
      </trkpt>
      <trkpt lat="47.52724" lon="-3.15225">
        <ele>8.313262</ele>
        <time>2021-12-01T11:03:09.000Z</time>
      </trkpt>
      <trkpt lat="47.52716" lon="-3.15259">
        <ele>8.169461</ele>
        <time>2021-12-01T11:03:14.000Z</time>
      </trkpt>
      <trkpt lat="47.52713" lon="-3.15282">
        <ele>8.03738</ele>
        <time>2021-12-01T11:03:17.000Z</time>
      </trkpt>
      <trkpt lat="47.52708" lon="-3.15355">
        <ele>7.63349</ele>
        <time>2021-12-01T11:03:27.000Z</time>
      </trkpt>
      <trkpt lat="47.52708" lon="-3.15381">
        <ele>7.491867</ele>
        <time>2021-12-01T11:03:30.000Z</time>
      </trkpt>
      <trkpt lat="47.5271" lon="-3.15398">
        <ele>7.393619</ele>
        <time>2021-12-01T11:03:32.000Z</time>
      </trkpt>
      <trkpt lat="47.52712" lon="-3.1543">
        <ele>7.218036</ele>
        <time>2021-12-01T11:03:36.000Z</time>
      </trkpt>
      <trkpt lat="47.52713" lon="-3.15437">
        <ele>7.177994</ele>
        <time>2021-12-01T11:03:37.000Z</time>
      </trkpt>
      <trkpt lat="47.52715" lon="-3.15485">
        <ele>6.912334</ele>
        <time>2021-12-01T11:03:44.000Z</time>
      </trkpt>
      <trkpt lat="47.52717" lon="-3.15538">
        <ele>7.687572</ele>
        <time>2021-12-01T11:03:52.000Z</time>
      </trkpt>
      <trkpt lat="47.52714" lon="-3.15562">
        <ele>8.253283</ele>
        <time>2021-12-01T11:03:56.000Z</time>
      </trkpt>
      <trkpt lat="47.52711" lon="-3.15572">
        <ele>8.504004</ele>
        <time>2021-12-01T11:03:58.000Z</time>
      </trkpt>
      <trkpt lat="47.52695" lon="-3.15603">
        <ele>9.386974</ele>
        <time>2021-12-01T11:04:05.000Z</time>
      </trkpt>
      <trkpt lat="47.52684" lon="-3.1562">
        <ele>9.924054</ele>
        <time>2021-12-01T11:04:09.000Z</time>
      </trkpt>
      <trkpt lat="47.52682" lon="-3.15624">
        <ele>10.057322</ele>
        <time>2021-12-01T11:04:10.000Z</time>
      </trkpt>
      <trkpt lat="47.52671" lon="-3.15642">
        <ele>10.600493</ele>
        <time>2021-12-01T11:04:14.000Z</time>
      </trkpt>
      <trkpt lat="47.52669" lon="-3.15646">
        <ele>10.736598</ele>
        <time>2021-12-01T11:04:15.000Z</time>
      </trkpt>
      <trkpt lat="47.52654" lon="-3.1567">
        <ele>11.48246</ele>
        <time>2021-12-01T11:04:21.000Z</time>
      </trkpt>
      <trkpt lat="47.52651" lon="-3.15674">
        <ele>11.602749</ele>
        <time>2021-12-01T11:04:22.000Z</time>
      </trkpt>
      <trkpt lat="47.52643" lon="-3.15684">
        <ele>11.972447</ele>
        <time>2021-12-01T11:04:25.000Z</time>
      </trkpt>
      <trkpt lat="47.52636" lon="-3.15687">
        <ele>12.219829</ele>
        <time>2021-12-01T11:04:27.000Z</time>
      </trkpt>
      <trkpt lat="47.52632" lon="-3.15687">
        <ele>12.349341</ele>
        <time>2021-12-01T11:04:28.000Z</time>
      </trkpt>
      <trkpt lat="47.52607" lon="-3.15679">
        <ele>12.920844</ele>
        <time>2021-12-01T11:04:34.000Z</time>
      </trkpt>
      <trkpt lat="47.52602" lon="-3.15677">
        <ele>12.907502</ele>
        <time>2021-12-01T11:04:35.000Z</time>
      </trkpt>
      <trkpt lat="47.5257" lon="-3.15662">
        <ele>12.808318</ele>
        <time>2021-12-01T11:04:43.000Z</time>
      </trkpt>
      <trkpt lat="47.52561" lon="-3.15659">
        <ele>12.782105</ele>
        <time>2021-12-01T11:04:45.000Z</time>
      </trkpt>
      <trkpt lat="47.52537" lon="-3.15649">
        <ele>12.707524</ele>
        <time>2021-12-01T11:04:50.000Z</time>
      </trkpt>
      <trkpt lat="47.52526" lon="-3.15645">
        <ele>12.674996</ele>
        <time>2021-12-01T11:04:52.000Z</time>
      </trkpt>
      <trkpt lat="47.52517" lon="-3.15634">
        <ele>12.641487</ele>
        <time>2021-12-01T11:04:54.000Z</time>
      </trkpt>
      <trkpt lat="47.52512" lon="-3.15616">
        <ele>12.60292</ele>
        <time>2021-12-01T11:04:56.000Z</time>
      </trkpt>
      <trkpt lat="47.52511" lon="-3.15606">
        <ele>12.581547</ele>
        <time>2021-12-01T11:04:57.000Z</time>
      </trkpt>
      <trkpt lat="47.52508" lon="-3.15572">
        <ele>12.513592</ele>
        <time>2021-12-01T11:05:00.000Z</time>
      </trkpt>
      <trkpt lat="47.52508" lon="-3.15548">
        <ele>12.465226</ele>
        <time>2021-12-01T11:05:02.000Z</time>
      </trkpt>
      <trkpt lat="47.5251" lon="-3.15535">
        <ele>12.440382</ele>
        <time>2021-12-01T11:05:03.000Z</time>
      </trkpt>
      <trkpt lat="47.52516" lon="-3.15511">
        <ele>12.218828</ele>
        <time>2021-12-01T11:05:05.000Z</time>
      </trkpt>
      <trkpt lat="47.5252" lon="-3.15499">
        <ele>12.032093</ele>
        <time>2021-12-01T11:05:06.000Z</time>
      </trkpt>
      <trkpt lat="47.5254" lon="-3.15441">
        <ele>11.073407</ele>
        <time>2021-12-01T11:05:11.000Z</time>
      </trkpt>
      <trkpt lat="47.52542" lon="-3.15429">
        <ele>10.886397</ele>
        <time>2021-12-01T11:05:12.000Z</time>
      </trkpt>
      <trkpt lat="47.52544" lon="-3.15406">
        <ele>10.555613</ele>
        <time>2021-12-01T11:05:14.000Z</time>
      </trkpt>
      <trkpt lat="47.52543" lon="-3.15388">
        <ele>10.283669</ele>
        <time>2021-12-01T11:05:16.000Z</time>
      </trkpt>
      <trkpt lat="47.5254" lon="-3.15369">
        <ele>10.007203</ele>
        <time>2021-12-01T11:05:18.000Z</time>
      </trkpt>
      <trkpt lat="47.52536" lon="-3.15331">
        <ele>9.437376</ele>
        <time>2021-12-01T11:05:22.000Z</time>
      </trkpt>
      <trkpt lat="47.52532" lon="-3.15304">
        <ele>9.039399</ele>
        <time>2021-12-01T11:05:25.000Z</time>
      </trkpt>
      <trkpt lat="47.5253" lon="-3.15287">
        <ele>8.786689</ele>
        <time>2021-12-01T11:05:27.000Z</time>
      </trkpt>
      <trkpt lat="47.52531" lon="-3.1527">
        <ele>8.538001</ele>
        <time>2021-12-01T11:05:29.000Z</time>
      </trkpt>
      <trkpt lat="47.52539" lon="-3.15205">
        <ele>9.291036</ele>
        <time>2021-12-01T11:05:37.000Z</time>
      </trkpt>
      <trkpt lat="47.5254" lon="-3.15195">
        <ele>9.412526</ele>
        <time>2021-12-01T11:05:38.000Z</time>
      </trkpt>
      <trkpt lat="47.52537" lon="-3.15161">
        <ele>9.816077</ele>
        <time>2021-12-01T11:05:42.000Z</time>
      </trkpt>
      <trkpt lat="47.52524" lon="-3.15103">
        <ele>10.530137</ele>
        <time>2021-12-01T11:05:49.000Z</time>
      </trkpt>
      <trkpt lat="47.52508" lon="-3.15045">
        <ele>11.266607</ele>
        <time>2021-12-01T11:05:57.000Z</time>
      </trkpt>
      <trkpt lat="47.52507" lon="-3.15039">
        <ele>11.339139</ele>
        <time>2021-12-01T11:05:58.000Z</time>
      </trkpt>
      <trkpt lat="47.52503" lon="-3.15028">
        <ele>11.48697</ele>
        <time>2021-12-01T11:06:00.000Z</time>
      </trkpt>
      <trkpt lat="47.52501" lon="-3.15022">
        <ele>11.567193</ele>
        <time>2021-12-01T11:06:01.000Z</time>
      </trkpt>
      <trkpt lat="47.52496" lon="-3.15011">
        <ele>11.758093</ele>
        <time>2021-12-01T11:06:03.000Z</time>
      </trkpt>
      <trkpt lat="47.52493" lon="-3.15007">
        <ele>11.876504</ele>
        <time>2021-12-01T11:06:04.000Z</time>
      </trkpt>
      <trkpt lat="47.52486" lon="-3.14999">
        <ele>12.123658</ele>
        <time>2021-12-01T11:06:06.000Z</time>
      </trkpt>
      <trkpt lat="47.52478" lon="-3.14991">
        <ele>12.37448</ele>
        <time>2021-12-01T11:06:08.000Z</time>
      </trkpt>
      <trkpt lat="47.52458" lon="-3.1498">
        <ele>12.962353</ele>
        <time>2021-12-01T11:06:13.000Z</time>
      </trkpt>
      <trkpt lat="47.52442" lon="-3.14974">
        <ele>13.4175</ele>
        <time>2021-12-01T11:06:17.000Z</time>
      </trkpt>
      <trkpt lat="47.52429" lon="-3.14969">
        <ele>13.784424</ele>
        <time>2021-12-01T11:06:20.000Z</time>
      </trkpt>
      <trkpt lat="47.52425" lon="-3.14968">
        <ele>13.900453</ele>
        <time>2021-12-01T11:06:21.000Z</time>
      </trkpt>
      <trkpt lat="47.52378" lon="-3.14951">
        <ele>15.235143</ele>
        <time>2021-12-01T11:06:31.000Z</time>
      </trkpt>
      <trkpt lat="47.52344" lon="-3.14939">
        <ele>16.19943</ele>
        <time>2021-12-01T11:06:38.000Z</time>
      </trkpt>
      <trkpt lat="47.52341" lon="-3.14935">
        <ele>16.311602</ele>
        <time>2021-12-01T11:06:39.000Z</time>
      </trkpt>
      <trkpt lat="47.52339" lon="-3.1493">
        <ele>16.427638</ele>
        <time>2021-12-01T11:06:40.000Z</time>
      </trkpt>
      <trkpt lat="47.5234" lon="-3.14917">
        <ele>16.606411</ele>
        <time>2021-12-01T11:06:42.000Z</time>
      </trkpt>
      <trkpt lat="47.52346" lon="-3.14872">
        <ele>16.414785</ele>
        <time>2021-12-01T11:06:48.000Z</time>
      </trkpt>
      <trkpt lat="47.52349" lon="-3.14854">
        <ele>16.335809</ele>
        <time>2021-12-01T11:06:51.000Z</time>
      </trkpt>
      <trkpt lat="47.52351" lon="-3.14842">
        <ele>16.282144</ele>
        <time>2021-12-01T11:06:53.000Z</time>
      </trkpt>
      <trkpt lat="47.5235" lon="-3.1483">
        <ele>16.22969</ele>
        <time>2021-12-01T11:06:55.000Z</time>
      </trkpt>
      <trkpt lat="47.52343" lon="-3.14821">
        <ele>16.175651</ele>
        <time>2021-12-01T11:06:57.000Z</time>
      </trkpt>
      <trkpt lat="47.52338" lon="-3.14819">
        <ele>16.139614</ele>
        <time>2021-12-01T11:06:58.000Z</time>
      </trkpt>
      <trkpt lat="47.52311" lon="-3.14814">
        <ele>15.971288</ele>
        <time>2021-12-01T11:07:03.000Z</time>
      </trkpt>
      <trkpt lat="47.52269" lon="-3.14811">
        <ele>15.71161</ele>
        <time>2021-12-01T11:07:10.000Z</time>
      </trkpt>
      <trkpt lat="47.52263" lon="-3.14812">
        <ele>15.668881</ele>
        <time>2021-12-01T11:07:11.000Z</time>
      </trkpt>
      <trkpt lat="47.52229" lon="-3.14819">
        <ele>15.51879</ele>
        <time>2021-12-01T11:07:17.000Z</time>
      </trkpt>
      <trkpt lat="47.52208" lon="-3.14821">
        <ele>15.622597</ele>
        <time>2021-12-01T11:07:21.000Z</time>
      </trkpt>
      <trkpt lat="47.52188" lon="-3.1482">
        <ele>15.714626</ele>
        <time>2021-12-01T11:07:25.000Z</time>
      </trkpt>
      <trkpt lat="47.52156" lon="-3.14806">
        <ele>15.878806</ele>
        <time>2021-12-01T11:07:32.000Z</time>
      </trkpt>
      <trkpt lat="47.52146" lon="-3.14798">
        <ele>15.933456</ele>
        <time>2021-12-01T11:07:34.000Z</time>
      </trkpt>
      <trkpt lat="47.52116" lon="-3.1477">
        <ele>16.10192</ele>
        <time>2021-12-01T11:07:41.000Z</time>
      </trkpt>
      <trkpt lat="47.52081" lon="-3.14735">
        <ele>16.307302</ele>
        <time>2021-12-01T11:07:50.000Z</time>
      </trkpt>
      <trkpt lat="47.5204" lon="-3.14699">
        <ele>16.707534</ele>
        <time>2021-12-01T11:07:58.000Z</time>
      </trkpt>
      <trkpt lat="47.52034" lon="-3.14693">
        <ele>16.774787</ele>
        <time>2021-12-01T11:07:59.000Z</time>
      </trkpt>
      <trkpt lat="47.52001" lon="-3.14674">
        <ele>17.113415</ele>
        <time>2021-12-01T11:08:05.000Z</time>
      </trkpt>
      <trkpt lat="47.51985" lon="-3.1467">
        <ele>17.264501</ele>
        <time>2021-12-01T11:08:08.000Z</time>
      </trkpt>
      <trkpt lat="47.51968" lon="-3.14672">
        <ele>17.422823</ele>
        <time>2021-12-01T11:08:11.000Z</time>
      </trkpt>
      <trkpt lat="47.51925" lon="-3.14687">
        <ele>17.846363</ele>
        <time>2021-12-01T11:08:19.000Z</time>
      </trkpt>
      <trkpt lat="47.51921" lon="-3.14689">
        <ele>17.887921</ele>
        <time>2021-12-01T11:08:20.000Z</time>
      </trkpt>
      <trkpt lat="47.5187" lon="-3.14711">
        <ele>18.504769</ele>
        <time>2021-12-01T11:08:30.000Z</time>
      </trkpt>
      <trkpt lat="47.5185" lon="-3.1472">
        <ele>18.777026</ele>
        <time>2021-12-01T11:08:34.000Z</time>
      </trkpt>
      <trkpt lat="47.51825" lon="-3.14732">
        <ele>19.114951</ele>
        <time>2021-12-01T11:08:39.000Z</time>
      </trkpt>
      <trkpt lat="47.51784" lon="-3.14745">
        <ele>19.652306</ele>
        <time>2021-12-01T11:08:47.000Z</time>
      </trkpt>
      <trkpt lat="47.5177" lon="-3.14748">
        <ele>19.833896</ele>
        <time>2021-12-01T11:08:50.000Z</time>
      </trkpt>
      <trkpt lat="47.51761" lon="-3.14748">
        <ele>19.952757</ele>
        <time>2021-12-01T11:08:52.000Z</time>
      </trkpt>
      <trkpt lat="47.51745" lon="-3.14747">
        <ele>20.159673</ele>
        <time>2021-12-01T11:08:55.000Z</time>
      </trkpt>
      <trkpt lat="47.51731" lon="-3.14744">
        <ele>20.340255</ele>
        <time>2021-12-01T11:08:58.000Z</time>
      </trkpt>
      <trkpt lat="47.51721" lon="-3.1474">
        <ele>20.393082</ele>
        <time>2021-12-01T11:09:00.000Z</time>
      </trkpt>
      <trkpt lat="47.517" lon="-3.1473">
        <ele>20.420249</ele>
        <time>2021-12-01T11:09:05.000Z</time>
      </trkpt>
      <trkpt lat="47.51673" lon="-3.1471">
        <ele>20.457793</ele>
        <time>2021-12-01T11:09:12.000Z</time>
      </trkpt>
      <trkpt lat="47.51669" lon="-3.14708">
        <ele>20.46314</ele>
        <time>2021-12-01T11:09:13.000Z</time>
      </trkpt>
      <trkpt lat="47.5166" lon="-3.14706">
        <ele>20.474467</ele>
        <time>2021-12-01T11:09:16.000Z</time>
      </trkpt>
      <trkpt lat="47.51659" lon="-3.14705">
        <ele>20.475631</ele>
        <time>2021-12-01T11:09:18.000Z</time>
      </trkpt>
      <trkpt lat="47.51657" lon="-3.14702">
        <ele>20.479364</ele>
        <time>2021-12-01T11:09:38.000Z</time>
      </trkpt>
      <trkpt lat="47.51645" lon="-3.14696">
        <ele>20.495026</ele>
        <time>2021-12-01T11:09:42.000Z</time>
      </trkpt>
      <trkpt lat="47.51621" lon="-3.14687">
        <ele>20.525495</ele>
        <time>2021-12-01T11:09:47.000Z</time>
      </trkpt>
      <trkpt lat="47.51594" lon="-3.14674">
        <ele>20.560258</ele>
        <time>2021-12-01T11:09:52.000Z</time>
      </trkpt>
      <trkpt lat="47.51589" lon="-3.14674">
        <ele>20.56735</ele>
        <time>2021-12-01T11:09:53.000Z</time>
      </trkpt>
      <trkpt lat="47.51583" lon="-3.14674">
        <ele>20.574039</ele>
        <time>2021-12-01T11:09:54.000Z</time>
      </trkpt>
      <trkpt lat="47.51572" lon="-3.14677">
        <ele>20.587651</ele>
        <time>2021-12-01T11:09:57.000Z</time>
      </trkpt>
      <trkpt lat="47.51562" lon="-3.14682">
        <ele>20.601591</ele>
        <time>2021-12-01T11:09:58.000Z</time>
      </trkpt>
      <trkpt lat="47.51552" lon="-3.1469">
        <ele>20.554049</ele>
        <time>2021-12-01T11:10:00.000Z</time>
      </trkpt>
      <trkpt lat="47.51549" lon="-3.14695">
        <ele>20.521158</ele>
        <time>2021-12-01T11:10:01.000Z</time>
      </trkpt>
      <trkpt lat="47.51546" lon="-3.14703">
        <ele>20.473148</ele>
        <time>2021-12-01T11:10:04.000Z</time>
      </trkpt>
      <trkpt lat="47.51546" lon="-3.14703">
        <ele>20.469629</ele>
        <time>2021-12-01T11:10:07.000Z</time>
      </trkpt>
      <trkpt lat="47.51544" lon="-3.14707">
        <ele>20.446475</ele>
        <time>2021-12-01T11:10:37.000Z</time>
      </trkpt>
      <trkpt lat="47.51536" lon="-3.14728">
        <ele>20.316424</ele>
        <time>2021-12-01T11:10:41.000Z</time>
      </trkpt>
      <trkpt lat="47.51533" lon="-3.14734">
        <ele>20.274534</ele>
        <time>2021-12-01T11:10:42.000Z</time>
      </trkpt>
      <trkpt lat="47.51519" lon="-3.14752">
        <ele>20.133606</ele>
        <time>2021-12-01T11:10:45.000Z</time>
      </trkpt>
      <trkpt lat="47.51514" lon="-3.14757">
        <ele>20.086955</ele>
        <time>2021-12-01T11:10:46.000Z</time>
      </trkpt>
      <trkpt lat="47.51503" lon="-3.14763">
        <ele>19.996149</ele>
        <time>2021-12-01T11:10:48.000Z</time>
      </trkpt>
      <trkpt lat="47.51498" lon="-3.14765">
        <ele>19.953795</ele>
        <time>2021-12-01T11:10:49.000Z</time>
      </trkpt>
      <trkpt lat="47.51468" lon="-3.14768">
        <ele>19.717885</ele>
        <time>2021-12-01T11:10:55.000Z</time>
      </trkpt>
      <trkpt lat="47.5142" lon="-3.14773">
        <ele>19.34697</ele>
        <time>2021-12-01T11:11:04.000Z</time>
      </trkpt>
      <trkpt lat="47.51374" lon="-3.1478">
        <ele>17.850413</ele>
        <time>2021-12-01T11:11:12.000Z</time>
      </trkpt>
      <trkpt lat="47.51357" lon="-3.14784">
        <ele>17.056126</ele>
        <time>2021-12-01T11:11:15.000Z</time>
      </trkpt>
      <trkpt lat="47.51351" lon="-3.14786">
        <ele>16.760503</ele>
        <time>2021-12-01T11:11:16.000Z</time>
      </trkpt>
      <trkpt lat="47.51345" lon="-3.1479">
        <ele>16.441178</ele>
        <time>2021-12-01T11:11:17.000Z</time>
      </trkpt>
      <trkpt lat="47.51338" lon="-3.14794">
        <ele>16.104527</ele>
        <time>2021-12-01T11:11:18.000Z</time>
      </trkpt>
      <trkpt lat="47.51327" lon="-3.14801">
        <ele>15.51803</ele>
        <time>2021-12-01T11:11:20.000Z</time>
      </trkpt>
      <trkpt lat="47.51321" lon="-3.14801">
        <ele>15.272055</ele>
        <time>2021-12-01T11:11:21.000Z</time>
      </trkpt>
      <trkpt lat="47.51316" lon="-3.14799">
        <ele>15.02174</ele>
        <time>2021-12-01T11:11:22.000Z</time>
      </trkpt>
      <trkpt lat="47.51311" lon="-3.14794">
        <ele>14.74262</ele>
        <time>2021-12-01T11:11:23.000Z</time>
      </trkpt>
      <trkpt lat="47.51306" lon="-3.14789">
        <ele>14.451655</ele>
        <time>2021-12-01T11:11:24.000Z</time>
      </trkpt>
      <trkpt lat="47.51302" lon="-3.14783">
        <ele>14.16069</ele>
        <time>2021-12-01T11:11:25.000Z</time>
      </trkpt>
      <trkpt lat="47.51291" lon="-3.14777">
        <ele>13.600638</ele>
        <time>2021-12-01T11:11:27.000Z</time>
      </trkpt>
      <trkpt lat="47.51285" lon="-3.14777">
        <ele>13.316629</ele>
        <time>2021-12-01T11:11:28.000Z</time>
      </trkpt>
      <trkpt lat="47.51279" lon="-3.1478">
        <ele>13.031619</ele>
        <time>2021-12-01T11:11:29.000Z</time>
      </trkpt>
      <trkpt lat="47.51271" lon="-3.14795">
        <ele>12.434567</ele>
        <time>2021-12-01T11:11:31.000Z</time>
      </trkpt>
      <trkpt lat="47.51265" lon="-3.14832">
        <ele>11.210025</ele>
        <time>2021-12-01T11:11:36.000Z</time>
      </trkpt>
      <trkpt lat="47.51262" lon="-3.14848">
        <ele>10.701864</ele>
        <time>2021-12-01T11:11:38.000Z</time>
      </trkpt>
      <trkpt lat="47.51259" lon="-3.14862">
        <ele>10.765717</ele>
        <time>2021-12-01T11:11:40.000Z</time>
      </trkpt>
      <trkpt lat="47.51259" lon="-3.1487">
        <ele>10.796567</ele>
        <time>2021-12-01T11:11:41.000Z</time>
      </trkpt>
      <trkpt lat="47.51257" lon="-3.14905">
        <ele>10.943139</ele>
        <time>2021-12-01T11:11:46.000Z</time>
      </trkpt>
      <trkpt lat="47.51256" lon="-3.14918">
        <ele>11.001151</ele>
        <time>2021-12-01T11:11:48.000Z</time>
      </trkpt>
      <trkpt lat="47.51254" lon="-3.14966">
        <ele>11.201956</ele>
        <time>2021-12-01T11:11:55.000Z</time>
      </trkpt>
      <trkpt lat="47.51254" lon="-3.14979">
        <ele>11.257751</ele>
        <time>2021-12-01T11:11:57.000Z</time>
      </trkpt>
      <trkpt lat="47.51255" lon="-3.14986">
        <ele>11.283611</ele>
        <time>2021-12-01T11:11:58.000Z</time>
      </trkpt>
      <trkpt lat="47.51257" lon="-3.14995">
        <ele>11.327951</ele>
        <time>2021-12-01T11:12:00.000Z</time>
      </trkpt>
      <trkpt lat="47.51258" lon="-3.15">
        <ele>11.348552</ele>
        <time>2021-12-01T11:12:01.000Z</time>
      </trkpt>
      <trkpt lat="47.51257" lon="-3.15009">
        <ele>11.38416</ele>
        <time>2021-12-01T11:12:03.000Z</time>
      </trkpt>
      <trkpt lat="47.5126" lon="-3.15023">
        <ele>11.445642</ele>
        <time>2021-12-01T11:12:07.000Z</time>
      </trkpt>
      <trkpt lat="47.5126" lon="-3.15026">
        <ele>11.461362</ele>
        <time>2021-12-01T11:12:11.000Z</time>
      </trkpt>
      <trkpt lat="47.51259" lon="-3.15029">
        <ele>11.47489</ele>
        <time>2021-12-01T11:13:22.000Z</time>
      </trkpt>
      <trkpt lat="47.51258" lon="-3.15035">
        <ele>11.499548</ele>
        <time>2021-12-01T11:13:24.000Z</time>
      </trkpt>
      <trkpt lat="47.51256" lon="-3.15038">
        <ele>11.517421</ele>
        <time>2021-12-01T11:13:25.000Z</time>
      </trkpt>
      <trkpt lat="47.51251" lon="-3.1505">
        <ele>11.577564</ele>
        <time>2021-12-01T11:13:28.000Z</time>
      </trkpt>
      <trkpt lat="47.51247" lon="-3.15059">
        <ele>11.623522</ele>
        <time>2021-12-01T11:13:30.000Z</time>
      </trkpt>
      <trkpt lat="47.51233" lon="-3.15079">
        <ele>11.739344</ele>
        <time>2021-12-01T11:13:36.000Z</time>
      </trkpt>
      <trkpt lat="47.51225" lon="-3.1509">
        <ele>11.808757</ele>
        <time>2021-12-01T11:13:41.000Z</time>
      </trkpt>
      <trkpt lat="47.51222" lon="-3.15095">
        <ele>11.891308</ele>
        <time>2021-12-01T11:13:46.000Z</time>
      </trkpt>
      <trkpt lat="47.5122" lon="-3.15097">
        <ele>11.942048</ele>
        <time>2021-12-01T11:14:24.000Z</time>
      </trkpt>
      <trkpt lat="47.51208" lon="-3.1511">
        <ele>12.26029</ele>
        <time>2021-12-01T11:14:29.000Z</time>
      </trkpt>
      <trkpt lat="47.51201" lon="-3.15117">
        <ele>12.446102</ele>
        <time>2021-12-01T11:14:32.000Z</time>
      </trkpt>
      <trkpt lat="47.51197" lon="-3.15123">
        <ele>12.559332</ele>
        <time>2021-12-01T11:14:34.000Z</time>
      </trkpt>
      <trkpt lat="47.51196" lon="-3.15127">
        <ele>12.614871</ele>
        <time>2021-12-01T11:14:35.000Z</time>
      </trkpt>
      <trkpt lat="47.51192" lon="-3.15154">
        <ele>13.017738</ele>
        <time>2021-12-01T11:14:43.000Z</time>
      </trkpt>
      <trkpt lat="47.51192" lon="-3.15156">
        <ele>13.055863</ele>
        <time>2021-12-01T11:14:44.000Z</time>
      </trkpt>
      <trkpt lat="47.51191" lon="-3.15158">
        <ele>13.091812</ele>
        <time>2021-12-01T11:14:45.000Z</time>
      </trkpt>
      <trkpt lat="47.51189" lon="-3.15162">
        <ele>13.164153</ele>
        <time>2021-12-01T11:14:47.000Z</time>
      </trkpt>
      <trkpt lat="47.51188" lon="-3.15164">
        <ele>13.197697</ele>
        <time>2021-12-01T11:14:48.000Z</time>
      </trkpt>
      <trkpt lat="47.5118" lon="-3.1517">
        <ele>13.381282</ele>
        <time>2021-12-01T11:14:53.000Z</time>
      </trkpt>
      <trkpt lat="47.51179" lon="-3.15171">
        <ele>13.400206</ele>
        <time>2021-12-01T11:14:55.000Z</time>
      </trkpt>
      <trkpt lat="47.51177" lon="-3.15171">
        <ele>13.449511</ele>
        <time>2021-12-01T11:15:37.000Z</time>
      </trkpt>
      <trkpt lat="47.51163" lon="-3.15176">
        <ele>13.761207</ele>
        <time>2021-12-01T11:15:41.000Z</time>
      </trkpt>
      <trkpt lat="47.51144" lon="-3.15187">
        <ele>14.192002</ele>
        <time>2021-12-01T11:15:47.000Z</time>
      </trkpt>
      <trkpt lat="47.51137" lon="-3.1519">
        <ele>14.353728</ele>
        <time>2021-12-01T11:15:50.000Z</time>
      </trkpt>
      <trkpt lat="47.51136" lon="-3.1519">
        <ele>14.383723</ele>
        <time>2021-12-01T11:15:51.000Z</time>
      </trkpt>
      <trkpt lat="47.51133" lon="-3.1519">
        <ele>14.433972</ele>
        <time>2021-12-01T11:15:55.000Z</time>
      </trkpt>
      <trkpt lat="47.51128" lon="-3.15188">
        <ele>14.538395</ele>
        <time>2021-12-01T11:16:01.000Z</time>
      </trkpt>
      <trkpt lat="47.51126" lon="-3.15187">
        <ele>14.593408</ele>
        <time>2021-12-01T11:16:03.000Z</time>
      </trkpt>
      <trkpt lat="47.51124" lon="-3.15184">
        <ele>14.645878</ele>
        <time>2021-12-01T11:16:06.000Z</time>
      </trkpt>
      <trkpt lat="47.51123" lon="-3.15184">
        <ele>14.680391</ele>
        <time>2021-12-01T11:16:08.000Z</time>
      </trkpt>
      <trkpt lat="47.51121" lon="-3.15183">
        <ele>14.716545</ele>
        <time>2021-12-01T11:16:11.000Z</time>
      </trkpt>
      <trkpt lat="47.5111" lon="-3.15175">
        <ele>14.977054</ele>
        <time>2021-12-01T11:16:18.000Z</time>
      </trkpt>
      <trkpt lat="47.51099" lon="-3.15159">
        <ele>15.302034</ele>
        <time>2021-12-01T11:16:23.000Z</time>
      </trkpt>
      <trkpt lat="47.51082" lon="-3.15134">
        <ele>15.550997</ele>
        <time>2021-12-01T11:16:30.000Z</time>
      </trkpt>
      <trkpt lat="47.51079" lon="-3.1513">
        <ele>15.487091</ele>
        <time>2021-12-01T11:16:31.000Z</time>
      </trkpt>
      <trkpt lat="47.51066" lon="-3.15116">
        <ele>15.233908</ele>
        <time>2021-12-01T11:16:35.000Z</time>
      </trkpt>
      <trkpt lat="47.51062" lon="-3.15113">
        <ele>15.165758</ele>
        <time>2021-12-01T11:16:36.000Z</time>
      </trkpt>
      <trkpt lat="47.51052" lon="-3.15102">
        <ele>14.963379</ele>
        <time>2021-12-01T11:16:39.000Z</time>
      </trkpt>
      <trkpt lat="47.51046" lon="-3.15094">
        <ele>14.829305</ele>
        <time>2021-12-01T11:16:41.000Z</time>
      </trkpt>
      <trkpt lat="47.51044" lon="-3.1509">
        <ele>14.784932</ele>
        <time>2021-12-01T11:16:42.000Z</time>
      </trkpt>
      <trkpt lat="47.51035" lon="-3.15073">
        <ele>14.555934</ele>
        <time>2021-12-01T11:16:46.000Z</time>
      </trkpt>
      <trkpt lat="47.51028" lon="-3.15061">
        <ele>14.386817</ele>
        <time>2021-12-01T11:16:49.000Z</time>
      </trkpt>
      <trkpt lat="47.51024" lon="-3.15057">
        <ele>14.303435</ele>
        <time>2021-12-01T11:16:51.000Z</time>
      </trkpt>
      <trkpt lat="47.51021" lon="-3.15057">
        <ele>14.257085</ele>
        <time>2021-12-01T11:16:52.000Z</time>
      </trkpt>
      <trkpt lat="47.51007" lon="-3.15046">
        <ele>14.012891</ele>
        <time>2021-12-01T11:16:57.000Z</time>
      </trkpt>
      <trkpt lat="47.51004" lon="-3.15034">
        <ele>13.867601</ele>
        <time>2021-12-01T11:17:02.000Z</time>
      </trkpt>
      <trkpt lat="47.51003" lon="-3.15032">
        <ele>13.847094</ele>
        <time>2021-12-01T11:17:04.000Z</time>
      </trkpt>
      <trkpt lat="47.51002" lon="-3.15028">
        <ele>13.799982</ele>
        <time>2021-12-01T11:17:08.000Z</time>
      </trkpt>
      <trkpt lat="47.50999" lon="-3.15023">
        <ele>13.721111</ele>
        <time>2021-12-01T11:17:15.000Z</time>
      </trkpt>
      <trkpt lat="47.50997" lon="-3.15022">
        <ele>13.700279</ele>
        <time>2021-12-01T11:17:16.000Z</time>
      </trkpt>
      <trkpt lat="47.50994" lon="-3.15013">
        <ele>13.587705</ele>
        <time>2021-12-01T11:17:19.000Z</time>
      </trkpt>
      <trkpt lat="47.50995" lon="-3.14987">
        <ele>13.307767</ele>
        <time>2021-12-01T11:17:24.000Z</time>
      </trkpt>
      <trkpt lat="47.50995" lon="-3.14981">
        <ele>13.24224</ele>
        <time>2021-12-01T11:17:25.000Z</time>
      </trkpt>
      <trkpt lat="47.5099" lon="-3.14964">
        <ele>13.05171</ele>
        <time>2021-12-01T11:17:28.000Z</time>
      </trkpt>
      <trkpt lat="47.50987" lon="-3.14943">
        <ele>12.821336</ele>
        <time>2021-12-01T11:17:32.000Z</time>
      </trkpt>
      <trkpt lat="47.50987" lon="-3.14938">
        <ele>12.856219</ele>
        <time>2021-12-01T11:17:33.000Z</time>
      </trkpt>
      <trkpt lat="47.50991" lon="-3.14925">
        <ele>12.964422</ele>
        <time>2021-12-01T11:17:36.000Z</time>
      </trkpt>
      <trkpt lat="47.50997" lon="-3.14917">
        <ele>13.05002</ele>
        <time>2021-12-01T11:17:40.000Z</time>
      </trkpt>
      <trkpt lat="47.50998" lon="-3.14915">
        <ele>13.067458</ele>
        <time>2021-12-01T11:17:41.000Z</time>
      </trkpt>
      <trkpt lat="47.51003" lon="-3.14906">
        <ele>13.156189</ele>
        <time>2021-12-01T11:17:46.000Z</time>
      </trkpt>
      <trkpt lat="47.51003" lon="-3.14906">
        <ele>13.156189</ele>
        <time>2021-12-01T11:17:47.000Z</time>
      </trkpt>
      <trkpt lat="47.51001" lon="-3.14903">
        <ele>13.184562</ele>
        <time>2021-12-01T11:17:55.000Z</time>
      </trkpt>
      <trkpt lat="47.50995" lon="-3.14899">
        <ele>13.255367</ele>
        <time>2021-12-01T11:17:58.000Z</time>
      </trkpt>
      <trkpt lat="47.50985" lon="-3.14884">
        <ele>13.418495</ele>
        <time>2021-12-01T11:18:02.000Z</time>
      </trkpt>
      <trkpt lat="47.5097" lon="-3.14853">
        <ele>13.693626</ele>
        <time>2021-12-01T11:18:07.000Z</time>
      </trkpt>
      <trkpt lat="47.50959" lon="-3.14828">
        <ele>13.91725</ele>
        <time>2021-12-01T11:18:11.000Z</time>
      </trkpt>
      <trkpt lat="47.50954" lon="-3.1481">
        <ele>14.058126</ele>
        <time>2021-12-01T11:18:14.000Z</time>
      </trkpt>
      <trkpt lat="47.50952" lon="-3.14798">
        <ele>14.15166</ele>
        <time>2021-12-01T11:18:16.000Z</time>
      </trkpt>
      <trkpt lat="47.50947" lon="-3.14777">
        <ele>14.317023</ele>
        <time>2021-12-01T11:18:19.000Z</time>
      </trkpt>
      <trkpt lat="47.50945" lon="-3.1477">
        <ele>14.371122</ele>
        <time>2021-12-01T11:18:20.000Z</time>
      </trkpt>
      <trkpt lat="47.5093" lon="-3.14737">
        <ele>14.66453</ele>
        <time>2021-12-01T11:18:25.000Z</time>
      </trkpt>
      <trkpt lat="47.50927" lon="-3.14733">
        <ele>14.708241</ele>
        <time>2021-12-01T11:18:26.000Z</time>
      </trkpt>
      <trkpt lat="47.50923" lon="-3.14728">
        <ele>14.773083</ele>
        <time>2021-12-01T11:18:27.000Z</time>
      </trkpt>
      <trkpt lat="47.50908" lon="-3.14712">
        <ele>15.380805</ele>
        <time>2021-12-01T11:18:31.000Z</time>
      </trkpt>
      <trkpt lat="47.50893" lon="-3.14697">
        <ele>15.997376</ele>
        <time>2021-12-01T11:18:35.000Z</time>
      </trkpt>
      <trkpt lat="47.50881" lon="-3.14684">
        <ele>16.535957</ele>
        <time>2021-12-01T11:18:39.000Z</time>
      </trkpt>
      <trkpt lat="47.5087" lon="-3.14667">
        <ele>17.101847</ele>
        <time>2021-12-01T11:18:43.000Z</time>
      </trkpt>
      <trkpt lat="47.50858" lon="-3.14648">
        <ele>17.695677</ele>
        <time>2021-12-01T11:18:47.000Z</time>
      </trkpt>
      <trkpt lat="47.50855" lon="-3.14643">
        <ele>17.868137</ele>
        <time>2021-12-01T11:18:48.000Z</time>
      </trkpt>
      <trkpt lat="47.50842" lon="-3.14622">
        <ele>18.533777</ele>
        <time>2021-12-01T11:18:54.000Z</time>
      </trkpt>
      <trkpt lat="47.5084" lon="-3.14622">
        <ele>18.61592</ele>
        <time>2021-12-01T11:18:55.000Z</time>
      </trkpt>
      <trkpt lat="47.50834" lon="-3.14624">
        <ele>18.818991</ele>
        <time>2021-12-01T11:18:57.000Z</time>
      </trkpt>
      <trkpt lat="47.50825" lon="-3.14634">
        <ele>19.222513</ele>
        <time>2021-12-01T11:19:00.000Z</time>
      </trkpt>
      <trkpt lat="47.50822" lon="-3.14638">
        <ele>19.381059</ele>
        <time>2021-12-01T11:19:01.000Z</time>
      </trkpt>
      <trkpt lat="47.50798" lon="-3.14676">
        <ele>20.604481</ele>
        <time>2021-12-01T11:19:08.000Z</time>
      </trkpt>
      <trkpt lat="47.50771" lon="-3.14718">
        <ele>20.618082</ele>
        <time>2021-12-01T11:19:15.000Z</time>
      </trkpt>
      <trkpt lat="47.50733" lon="-3.14776">
        <ele>19.472854</ele>
        <time>2021-12-01T11:19:25.000Z</time>
      </trkpt>
      <trkpt lat="47.50729" lon="-3.14781">
        <ele>19.369652</ele>
        <time>2021-12-01T11:19:26.000Z</time>
      </trkpt>
      <trkpt lat="47.50719" lon="-3.14796">
        <ele>19.07289</ele>
        <time>2021-12-01T11:19:30.000Z</time>
      </trkpt>
      <trkpt lat="47.50718" lon="-3.14797">
        <ele>19.044451</ele>
        <time>2021-12-01T11:19:31.000Z</time>
      </trkpt>
      <trkpt lat="47.50717" lon="-3.14797">
        <ele>19.017358</ele>
        <time>2021-12-01T11:19:32.000Z</time>
      </trkpt>
      <trkpt lat="47.50716" lon="-3.14797">
        <ele>18.989404</ele>
        <time>2021-12-01T11:19:33.000Z</time>
      </trkpt>
      <trkpt lat="47.50714" lon="-3.14795">
        <ele>18.949581</ele>
        <time>2021-12-01T11:19:34.000Z</time>
      </trkpt>
      <trkpt lat="47.50708" lon="-3.14786">
        <ele>18.768508</ele>
        <time>2021-12-01T11:19:37.000Z</time>
      </trkpt>
      <trkpt lat="47.50701" lon="-3.14761">
        <ele>18.389335</ele>
        <time>2021-12-01T11:19:42.000Z</time>
      </trkpt>
      <trkpt lat="47.50702" lon="-3.14748">
        <ele>18.212996</ele>
        <time>2021-12-01T11:19:44.000Z</time>
      </trkpt>
      <trkpt lat="47.50705" lon="-3.14733">
        <ele>17.987079</ele>
        <time>2021-12-01T11:19:46.000Z</time>
      </trkpt>
      <trkpt lat="47.50711" lon="-3.14691">
        <ele>17.377653</ele>
        <time>2021-12-01T11:19:52.000Z</time>
      </trkpt>
      <trkpt lat="47.50714" lon="-3.14668">
        <ele>17.471953</ele>
        <time>2021-12-01T11:19:55.000Z</time>
      </trkpt>
      <trkpt lat="47.50715" lon="-3.1464">
        <ele>17.587318</ele>
        <time>2021-12-01T11:19:59.000Z</time>
      </trkpt>
      <trkpt lat="47.50715" lon="-3.14608">
        <ele>17.720172</ele>
        <time>2021-12-01T11:20:03.000Z</time>
      </trkpt>
      <trkpt lat="47.50714" lon="-3.14567">
        <ele>17.894423</ele>
        <time>2021-12-01T11:20:09.000Z</time>
      </trkpt>
      <trkpt lat="47.50714" lon="-3.14552">
        <ele>17.954662</ele>
        <time>2021-12-01T11:20:11.000Z</time>
      </trkpt>
      <trkpt lat="47.50709" lon="-3.14539">
        <ele>18.018252</ele>
        <time>2021-12-01T11:20:13.000Z</time>
      </trkpt>
      <trkpt lat="47.50701" lon="-3.14531">
        <ele>18.077119</ele>
        <time>2021-12-01T11:20:15.000Z</time>
      </trkpt>
      <trkpt lat="47.5069" lon="-3.14527">
        <ele>18.142002</ele>
        <time>2021-12-01T11:20:17.000Z</time>
      </trkpt>
      <trkpt lat="47.50676" lon="-3.1452">
        <ele>18.236916</ele>
        <time>2021-12-01T11:20:20.000Z</time>
      </trkpt>
      <trkpt lat="47.50664" lon="-3.14523">
        <ele>18.308191</ele>
        <time>2021-12-01T11:20:22.000Z</time>
      </trkpt>
      <trkpt lat="47.50657" lon="-3.14534">
        <ele>18.374981</ele>
        <time>2021-12-01T11:20:24.000Z</time>
      </trkpt>
      <trkpt lat="47.50654" lon="-3.14539">
        <ele>18.400651</ele>
        <time>2021-12-01T11:20:25.000Z</time>
      </trkpt>
      <trkpt lat="47.50639" lon="-3.14579">
        <ele>18.601054</ele>
        <time>2021-12-01T11:20:31.000Z</time>
      </trkpt>
      <trkpt lat="47.50636" lon="-3.14586">
        <ele>18.641993</ele>
        <time>2021-12-01T11:20:32.000Z</time>
      </trkpt>
      <trkpt lat="47.50616" lon="-3.14639">
        <ele>18.914508</ele>
        <time>2021-12-01T11:20:40.000Z</time>
      </trkpt>
      <trkpt lat="47.50601" lon="-3.1469">
        <ele>19.164632</ele>
        <time>2021-12-01T11:20:47.000Z</time>
      </trkpt>
      <trkpt lat="47.50592" lon="-3.14719">
        <ele>19.311268</ele>
        <time>2021-12-01T11:20:51.000Z</time>
      </trkpt>
      <trkpt lat="47.50588" lon="-3.14731">
        <ele>19.372426</ele>
        <time>2021-12-01T11:20:53.000Z</time>
      </trkpt>
      <trkpt lat="47.50572" lon="-3.1477">
        <ele>19.5788</ele>
        <time>2021-12-01T11:20:59.000Z</time>
      </trkpt>
      <trkpt lat="47.5057" lon="-3.14777">
        <ele>19.613094</ele>
        <time>2021-12-01T11:21:00.000Z</time>
      </trkpt>
      <trkpt lat="47.50559" lon="-3.14808">
        <ele>19.910723</ele>
        <time>2021-12-01T11:21:05.000Z</time>
      </trkpt>
      <trkpt lat="47.50555" lon="-3.14819">
        <ele>20.060172</ele>
        <time>2021-12-01T11:21:07.000Z</time>
      </trkpt>
      <trkpt lat="47.50552" lon="-3.14838">
        <ele>20.310025</ele>
        <time>2021-12-01T11:21:10.000Z</time>
      </trkpt>
      <trkpt lat="47.50551" lon="-3.14843">
        <ele>20.371181</ele>
        <time>2021-12-01T11:21:11.000Z</time>
      </trkpt>
      <trkpt lat="47.50549" lon="-3.14848">
        <ele>20.445049</ele>
        <time>2021-12-01T11:21:12.000Z</time>
      </trkpt>
      <trkpt lat="47.50544" lon="-3.14854">
        <ele>20.567587</ele>
        <time>2021-12-01T11:21:14.000Z</time>
      </trkpt>
      <trkpt lat="47.50528" lon="-3.14851">
        <ele>20.865244</ele>
        <time>2021-12-01T11:21:18.000Z</time>
      </trkpt>
      <trkpt lat="47.50523" lon="-3.1485">
        <ele>20.946973</ele>
        <time>2021-12-01T11:21:19.000Z</time>
      </trkpt>
      <trkpt lat="47.50498" lon="-3.14848">
        <ele>21.412369</ele>
        <time>2021-12-01T11:21:24.000Z</time>
      </trkpt>
      <trkpt lat="47.50474" lon="-3.14846">
        <ele>21.860926</ele>
        <time>2021-12-01T11:21:29.000Z</time>
      </trkpt>
      <trkpt lat="47.50466" lon="-3.14847">
        <ele>22.016508</ele>
        <time>2021-12-01T11:21:31.000Z</time>
      </trkpt>
      <trkpt lat="47.50457" lon="-3.14848">
        <ele>22.180821</ele>
        <time>2021-12-01T11:21:33.000Z</time>
      </trkpt>
      <trkpt lat="47.50444" lon="-3.14848">
        <ele>22.407708</ele>
        <time>2021-12-01T11:21:36.000Z</time>
      </trkpt>
      <trkpt lat="47.50441" lon="-3.1485">
        <ele>22.476024</ele>
        <time>2021-12-01T11:21:37.000Z</time>
      </trkpt>
      <trkpt lat="47.5043" lon="-3.1485">
        <ele>22.675133</ele>
        <time>2021-12-01T11:21:40.000Z</time>
      </trkpt>
      <trkpt lat="47.50422" lon="-3.14848">
        <ele>22.830975</ele>
        <time>2021-12-01T11:21:42.000Z</time>
      </trkpt>
      <trkpt lat="47.5041" lon="-3.14845">
        <ele>23.060307</ele>
        <time>2021-12-01T11:21:45.000Z</time>
      </trkpt>
      <trkpt lat="47.50402" lon="-3.14845">
        <ele>23.245385</ele>
        <time>2021-12-01T11:21:47.000Z</time>
      </trkpt>
      <trkpt lat="47.50384" lon="-3.14844">
        <ele>23.646545</ele>
        <time>2021-12-01T11:21:51.000Z</time>
      </trkpt>
      <trkpt lat="47.50376" lon="-3.14844">
        <ele>23.820376</ele>
        <time>2021-12-01T11:21:53.000Z</time>
      </trkpt>
      <trkpt lat="47.50368" lon="-3.14843">
        <ele>24.009678</ele>
        <time>2021-12-01T11:21:55.000Z</time>
      </trkpt>
      <trkpt lat="47.50338" lon="-3.14842">
        <ele>24.688306</ele>
        <time>2021-12-01T11:22:02.000Z</time>
      </trkpt>
      <trkpt lat="47.5033" lon="-3.1484">
        <ele>24.867775</ele>
        <time>2021-12-01T11:22:04.000Z</time>
      </trkpt>
      <trkpt lat="47.50307" lon="-3.14835">
        <ele>25.393501</ele>
        <time>2021-12-01T11:22:09.000Z</time>
      </trkpt>
      <trkpt lat="47.50296" lon="-3.14834">
        <ele>25.628086</ele>
        <time>2021-12-01T11:22:11.000Z</time>
      </trkpt>
      <trkpt lat="47.5026" lon="-3.14831">
        <ele>26.449475</ele>
        <time>2021-12-01T11:22:19.000Z</time>
      </trkpt>
      <trkpt lat="47.50254" lon="-3.14832">
        <ele>26.574004</ele>
        <time>2021-12-01T11:22:20.000Z</time>
      </trkpt>
      <trkpt lat="47.50236" lon="-3.14832">
        <ele>26.990909</ele>
        <time>2021-12-01T11:22:24.000Z</time>
      </trkpt>
      <trkpt lat="47.50223" lon="-3.1483">
        <ele>26.932825</ele>
        <time>2021-12-01T11:22:27.000Z</time>
      </trkpt>
      <trkpt lat="47.50215" lon="-3.14828">
        <ele>26.807258</ele>
        <time>2021-12-01T11:22:29.000Z</time>
      </trkpt>
      <trkpt lat="47.50202" lon="-3.14819">
        <ele>26.611336</ele>
        <time>2021-12-01T11:22:32.000Z</time>
      </trkpt>
      <trkpt lat="47.50172" lon="-3.14805">
        <ele>26.1765</ele>
        <time>2021-12-01T11:22:38.000Z</time>
      </trkpt>
      <trkpt lat="47.50131" lon="-3.14793">
        <ele>25.591206</ele>
        <time>2021-12-01T11:22:45.000Z</time>
      </trkpt>
      <trkpt lat="47.50125" lon="-3.14791">
        <ele>25.502638</ele>
        <time>2021-12-01T11:22:46.000Z</time>
      </trkpt>
      <trkpt lat="47.50113" lon="-3.14785">
        <ele>25.327621</ele>
        <time>2021-12-01T11:22:48.000Z</time>
      </trkpt>
      <trkpt lat="47.50102" lon="-3.14777">
        <ele>25.156956</ele>
        <time>2021-12-01T11:22:50.000Z</time>
      </trkpt>
      <trkpt lat="47.50097" lon="-3.14773">
        <ele>25.072419</ele>
        <time>2021-12-01T11:22:51.000Z</time>
      </trkpt>
      <trkpt lat="47.5009" lon="-3.1477">
        <ele>24.971679</ele>
        <time>2021-12-01T11:22:52.000Z</time>
      </trkpt>
      <trkpt lat="47.50069" lon="-3.1476">
        <ele>24.660331</ele>
        <time>2021-12-01T11:22:56.000Z</time>
      </trkpt>
      <trkpt lat="47.50043" lon="-3.14742">
        <ele>24.123055</ele>
        <time>2021-12-01T11:23:01.000Z</time>
      </trkpt>
      <trkpt lat="47.50034" lon="-3.14735">
        <ele>23.899355</ele>
        <time>2021-12-01T11:23:03.000Z</time>
      </trkpt>
      <trkpt lat="47.50013" lon="-3.14731">
        <ele>23.437254</ele>
        <time>2021-12-01T11:23:07.000Z</time>
      </trkpt>
      <trkpt lat="47.50002" lon="-3.14724">
        <ele>23.183944</ele>
        <time>2021-12-01T11:23:09.000Z</time>
      </trkpt>
      <trkpt lat="47.49997" lon="-3.14719">
        <ele>23.056079</ele>
        <time>2021-12-01T11:23:10.000Z</time>
      </trkpt>
      <trkpt lat="47.49983" lon="-3.14697">
        <ele>22.616759</ele>
        <time>2021-12-01T11:23:13.000Z</time>
      </trkpt>
      <trkpt lat="47.49977" lon="-3.14679">
        <ele>22.326292</ele>
        <time>2021-12-01T11:23:15.000Z</time>
      </trkpt>
      <trkpt lat="47.49971" lon="-3.14664">
        <ele>22.075639</ele>
        <time>2021-12-01T11:23:17.000Z</time>
      </trkpt>
      <trkpt lat="47.49969" lon="-3.14654">
        <ele>21.922504</ele>
        <time>2021-12-01T11:23:19.000Z</time>
      </trkpt>
      <trkpt lat="47.49967" lon="-3.14648">
        <ele>21.82785</ele>
        <time>2021-12-01T11:23:21.000Z</time>
      </trkpt>
      <trkpt lat="47.49965" lon="-3.14646">
        <ele>21.784455</ele>
        <time>2021-12-01T11:23:22.000Z</time>
      </trkpt>
      <trkpt lat="47.49961" lon="-3.14644">
        <ele>21.689262</ele>
        <time>2021-12-01T11:23:24.000Z</time>
      </trkpt>
      <trkpt lat="47.49958" lon="-3.14638">
        <ele>21.58846</ele>
        <time>2021-12-01T11:23:26.000Z</time>
      </trkpt>
      <trkpt lat="47.49952" lon="-3.14639">
        <ele>21.456018</ele>
        <time>2021-12-01T11:23:29.000Z</time>
      </trkpt>
      <trkpt lat="47.49938" lon="-3.14636">
        <ele>21.15146</ele>
        <time>2021-12-01T11:23:33.000Z</time>
      </trkpt>
      <trkpt lat="47.49929" lon="-3.14641">
        <ele>20.951206</ele>
        <time>2021-12-01T11:23:35.000Z</time>
      </trkpt>
      <trkpt lat="47.49925" lon="-3.14645">
        <ele>20.844795</ele>
        <time>2021-12-01T11:23:36.000Z</time>
      </trkpt>
      <trkpt lat="47.49908" lon="-3.14662">
        <ele>20.698508</ele>
        <time>2021-12-01T11:23:40.000Z</time>
      </trkpt>
      <trkpt lat="47.49903" lon="-3.14664">
        <ele>20.695261</ele>
        <time>2021-12-01T11:23:41.000Z</time>
      </trkpt>
      <trkpt lat="47.49898" lon="-3.14665">
        <ele>20.692031</ele>
        <time>2021-12-01T11:23:42.000Z</time>
      </trkpt>
      <trkpt lat="47.49872" lon="-3.14666">
        <ele>20.675421</ele>
        <time>2021-12-01T11:23:47.000Z</time>
      </trkpt>
      <trkpt lat="47.49829" lon="-3.14667">
        <ele>20.64862</ele>
        <time>2021-12-01T11:23:55.000Z</time>
      </trkpt>
      <trkpt lat="47.49824" lon="-3.14667">
        <ele>20.645223</ele>
        <time>2021-12-01T11:23:56.000Z</time>
      </trkpt>
      <trkpt lat="47.49802" lon="-3.14662">
        <ele>20.631147</ele>
        <time>2021-12-01T11:24:00.000Z</time>
      </trkpt>
      <trkpt lat="47.49773" lon="-3.1465">
        <ele>20.612701</ele>
        <time>2021-12-01T11:24:05.000Z</time>
      </trkpt>
      <trkpt lat="47.49763" lon="-3.14643">
        <ele>20.605349</ele>
        <time>2021-12-01T11:24:07.000Z</time>
      </trkpt>
      <trkpt lat="47.49743" lon="-3.14628">
        <ele>20.636803</ele>
        <time>2021-12-01T11:24:11.000Z</time>
      </trkpt>
      <trkpt lat="47.49736" lon="-3.14626">
        <ele>20.700185</ele>
        <time>2021-12-01T11:24:12.000Z</time>
      </trkpt>
      <trkpt lat="47.49727" lon="-3.14623">
        <ele>20.795286</ele>
        <time>2021-12-01T11:24:14.000Z</time>
      </trkpt>
      <trkpt lat="47.49711" lon="-3.14617">
        <ele>20.952263</ele>
        <time>2021-12-01T11:24:17.000Z</time>
      </trkpt>
      <trkpt lat="47.49707" lon="-3.14613">
        <ele>21.001614</ele>
        <time>2021-12-01T11:24:18.000Z</time>
      </trkpt>
      <trkpt lat="47.49702" lon="-3.14609">
        <ele>21.061297</ele>
        <time>2021-12-01T11:24:19.000Z</time>
      </trkpt>
      <trkpt lat="47.49689" lon="-3.14602">
        <ele>21.190238</ele>
        <time>2021-12-01T11:24:22.000Z</time>
      </trkpt>
      <trkpt lat="47.4968" lon="-3.14597">
        <ele>21.289406</ele>
        <time>2021-12-01T11:24:24.000Z</time>
      </trkpt>
      <trkpt lat="47.49665" lon="-3.14587">
        <ele>21.444777</ele>
        <time>2021-12-01T11:24:27.000Z</time>
      </trkpt>
      <trkpt lat="47.49652" lon="-3.14579">
        <ele>21.581505</ele>
        <time>2021-12-01T11:24:30.000Z</time>
      </trkpt>
      <trkpt lat="47.49632" lon="-3.14571">
        <ele>21.791163</ele>
        <time>2021-12-01T11:24:34.000Z</time>
      </trkpt>
      <trkpt lat="47.49615" lon="-3.14564">
        <ele>21.96129</ele>
        <time>2021-12-01T11:24:37.000Z</time>
      </trkpt>
      <trkpt lat="47.49594" lon="-3.14554">
        <ele>22.170065</ele>
        <time>2021-12-01T11:24:41.000Z</time>
      </trkpt>
      <trkpt lat="47.49579" lon="-3.14549">
        <ele>22.324655</ele>
        <time>2021-12-01T11:24:44.000Z</time>
      </trkpt>
      <trkpt lat="47.49553" lon="-3.14535">
        <ele>22.161028</ele>
        <time>2021-12-01T11:24:49.000Z</time>
      </trkpt>
      <trkpt lat="47.49547" lon="-3.14534">
        <ele>22.121014</ele>
        <time>2021-12-01T11:24:50.000Z</time>
      </trkpt>
      <trkpt lat="47.49515" lon="-3.14529">
        <ele>21.875907</ele>
        <time>2021-12-01T11:24:56.000Z</time>
      </trkpt>
      <trkpt lat="47.49496" lon="-3.1452">
        <ele>21.72912</ele>
        <time>2021-12-01T11:25:00.000Z</time>
      </trkpt>
      <trkpt lat="47.49488" lon="-3.14516">
        <ele>21.663796</ele>
        <time>2021-12-01T11:25:02.000Z</time>
      </trkpt>
      <trkpt lat="47.49483" lon="-3.14514">
        <ele>21.62875</ele>
        <time>2021-12-01T11:25:03.000Z</time>
      </trkpt>
      <trkpt lat="47.49453" lon="-3.14506">
        <ele>21.40082</ele>
        <time>2021-12-01T11:25:09.000Z</time>
      </trkpt>
      <trkpt lat="47.4945" lon="-3.14504">
        <ele>21.376393</ele>
        <time>2021-12-01T11:25:10.000Z</time>
      </trkpt>
      <trkpt lat="47.49447" lon="-3.14503">
        <ele>21.354416</ele>
        <time>2021-12-01T11:25:13.000Z</time>
      </trkpt>
      <trkpt lat="47.49445" lon="-3.145">
        <ele>21.33274</ele>
        <time>2021-12-01T11:25:22.000Z</time>
      </trkpt>
      <trkpt lat="47.49441" lon="-3.14496">
        <ele>21.292067</ele>
        <time>2021-12-01T11:25:24.000Z</time>
      </trkpt>
      <trkpt lat="47.49425" lon="-3.14485">
        <ele>21.162432</ele>
        <time>2021-12-01T11:25:29.000Z</time>
      </trkpt>
      <trkpt lat="47.49407" lon="-3.14476">
        <ele>21.016899</ele>
        <time>2021-12-01T11:25:34.000Z</time>
      </trkpt>
      <trkpt lat="47.49394" lon="-3.14463">
        <ele>20.494171</ele>
        <time>2021-12-01T11:25:38.000Z</time>
      </trkpt>
      <trkpt lat="47.4939" lon="-3.14457">
        <ele>20.249607</ele>
        <time>2021-12-01T11:25:40.000Z</time>
      </trkpt>
      <trkpt lat="47.49381" lon="-3.14447">
        <ele>19.834345</ele>
        <time>2021-12-01T11:25:44.000Z</time>
      </trkpt>
      <trkpt lat="47.49377" lon="-3.14442">
        <ele>19.633895</ele>
        <time>2021-12-01T11:25:46.000Z</time>
      </trkpt>
      <trkpt lat="47.49369" lon="-3.14432">
        <ele>19.209282</ele>
        <time>2021-12-01T11:25:50.000Z</time>
      </trkpt>
      <trkpt lat="47.49363" lon="-3.14425">
        <ele>18.908607</ele>
        <time>2021-12-01T11:25:53.000Z</time>
      </trkpt>
      <trkpt lat="47.49357" lon="-3.14417">
        <ele>18.588921</ele>
        <time>2021-12-01T11:25:57.000Z</time>
      </trkpt>
      <trkpt lat="47.4935" lon="-3.14408">
        <ele>18.234371</ele>
        <time>2021-12-01T11:26:00.000Z</time>
      </trkpt>
      <trkpt lat="47.49344" lon="-3.144">
        <ele>17.926962</ele>
        <time>2021-12-01T11:26:02.000Z</time>
      </trkpt>
      <trkpt lat="47.49333" lon="-3.14387">
        <ele>17.383703</ele>
        <time>2021-12-01T11:26:05.000Z</time>
      </trkpt>
      <trkpt lat="47.49329" lon="-3.14383">
        <ele>17.192817</ele>
        <time>2021-12-01T11:26:06.000Z</time>
      </trkpt>
      <trkpt lat="47.49321" lon="-3.1438">
        <ele>16.84948</ele>
        <time>2021-12-01T11:26:08.000Z</time>
      </trkpt>
      <trkpt lat="47.49312" lon="-3.14382">
        <ele>16.506356</ele>
        <time>2021-12-01T11:26:10.000Z</time>
      </trkpt>
      <trkpt lat="47.49305" lon="-3.14382">
        <ele>16.226045</ele>
        <time>2021-12-01T11:26:12.000Z</time>
      </trkpt>
      <trkpt lat="47.49302" lon="-3.14379">
        <ele>16.0821</ele>
        <time>2021-12-01T11:26:13.000Z</time>
      </trkpt>
      <trkpt lat="47.49298" lon="-3.14368">
        <ele>15.747099</ele>
        <time>2021-12-01T11:26:15.000Z</time>
      </trkpt>
      <trkpt lat="47.49295" lon="-3.14354">
        <ele>15.358386</ele>
        <time>2021-12-01T11:26:17.000Z</time>
      </trkpt>
      <trkpt lat="47.49288" lon="-3.14323">
        <ele>14.51987</ele>
        <time>2021-12-01T11:26:21.000Z</time>
      </trkpt>
      <trkpt lat="47.4928" lon="-3.14292">
        <ele>13.723518</ele>
        <time>2021-12-01T11:26:25.000Z</time>
      </trkpt>
      <trkpt lat="47.49269" lon="-3.14248">
        <ele>12.829072</ele>
        <time>2021-12-01T11:26:30.000Z</time>
      </trkpt>
      <trkpt lat="47.49262" lon="-3.1422">
        <ele>12.241509</ele>
        <time>2021-12-01T11:26:33.000Z</time>
      </trkpt>
      <trkpt lat="47.4925" lon="-3.14187">
        <ele>11.513338</ele>
        <time>2021-12-01T11:26:37.000Z</time>
      </trkpt>
      <trkpt lat="47.49248" lon="-3.1418">
        <ele>11.365538</ele>
        <time>2021-12-01T11:26:38.000Z</time>
      </trkpt>
      <trkpt lat="47.49245" lon="-3.1417">
        <ele>11.159223</ele>
        <time>2021-12-01T11:26:40.000Z</time>
      </trkpt>
      <trkpt lat="47.49243" lon="-3.14168">
        <ele>11.088903</ele>
        <time>2021-12-01T11:26:41.000Z</time>
      </trkpt>
      <trkpt lat="47.49241" lon="-3.14165">
        <ele>11.010924</ele>
        <time>2021-12-01T11:26:42.000Z</time>
      </trkpt>
      <trkpt lat="47.49239" lon="-3.14158">
        <ele>10.864389</ele>
        <time>2021-12-01T11:26:44.000Z</time>
      </trkpt>
      <trkpt lat="47.49239" lon="-3.14155">
        <ele>10.794859</ele>
        <time>2021-12-01T11:26:45.000Z</time>
      </trkpt>
      <trkpt lat="47.49229" lon="-3.1414">
        <ele>10.384648</ele>
        <time>2021-12-01T11:26:49.000Z</time>
      </trkpt>
      <trkpt lat="47.49219" lon="-3.14128">
        <ele>10.015318</ele>
        <time>2021-12-01T11:26:52.000Z</time>
      </trkpt>
      <trkpt lat="47.49209" lon="-3.14113">
        <ele>9.630331</ele>
        <time>2021-12-01T11:26:55.000Z</time>
      </trkpt>
      <trkpt lat="47.49203" lon="-3.14104">
        <ele>9.38119</ele>
        <time>2021-12-01T11:26:57.000Z</time>
      </trkpt>
      <trkpt lat="47.49197" lon="-3.14101">
        <ele>9.194956</ele>
        <time>2021-12-01T11:26:59.000Z</time>
      </trkpt>
      <trkpt lat="47.49184" lon="-3.14101">
        <ele>8.837341</ele>
        <time>2021-12-01T11:27:03.000Z</time>
      </trkpt>
      <trkpt lat="47.49168" lon="-3.1409">
        <ele>9.092685</ele>
        <time>2021-12-01T11:27:07.000Z</time>
      </trkpt>
      <trkpt lat="47.4916" lon="-3.14084">
        <ele>9.232612</ele>
        <time>2021-12-01T11:27:09.000Z</time>
      </trkpt>
      <trkpt lat="47.49156" lon="-3.14081">
        <ele>9.30086</ele>
        <time>2021-12-01T11:27:10.000Z</time>
      </trkpt>
      <trkpt lat="47.49147" lon="-3.14083">
        <ele>9.435058</ele>
        <time>2021-12-01T11:27:12.000Z</time>
      </trkpt>
      <trkpt lat="47.49142" lon="-3.14085">
        <ele>9.511721</ele>
        <time>2021-12-01T11:27:13.000Z</time>
      </trkpt>
      <trkpt lat="47.49136" lon="-3.14086">
        <ele>9.593709</ele>
        <time>2021-12-01T11:27:14.000Z</time>
      </trkpt>
      <trkpt lat="47.49126" lon="-3.14093">
        <ele>9.762156</ele>
        <time>2021-12-01T11:27:16.000Z</time>
      </trkpt>
      <trkpt lat="47.49121" lon="-3.14096">
        <ele>9.841184</ele>
        <time>2021-12-01T11:27:17.000Z</time>
      </trkpt>
      <trkpt lat="47.49108" lon="-3.14101">
        <ele>10.041846</ele>
        <time>2021-12-01T11:27:20.000Z</time>
      </trkpt>
      <trkpt lat="47.49101" lon="-3.14104">
        <ele>10.144969</ele>
        <time>2021-12-01T11:27:22.000Z</time>
      </trkpt>
      <trkpt lat="47.49099" lon="-3.14111">
        <ele>10.226433</ele>
        <time>2021-12-01T11:27:24.000Z</time>
      </trkpt>
      <trkpt lat="47.49102" lon="-3.14123">
        <ele>10.352879</ele>
        <time>2021-12-01T11:27:27.000Z</time>
      </trkpt>
      <trkpt lat="47.49103" lon="-3.14127">
        <ele>10.392264</ele>
        <time>2021-12-01T11:27:28.000Z</time>
      </trkpt>
      <trkpt lat="47.49104" lon="-3.1413">
        <ele>10.427974</ele>
        <time>2021-12-01T11:27:29.000Z</time>
      </trkpt>
      <trkpt lat="47.49105" lon="-3.14136">
        <ele>10.489987</ele>
        <time>2021-12-01T11:27:31.000Z</time>
      </trkpt>
      <trkpt lat="47.49105" lon="-3.14137">
        <ele>10.498151</ele>
        <time>2021-12-01T11:27:33.000Z</time>
      </trkpt>
      <trkpt lat="47.49106" lon="-3.14143">
        <ele>10.563446</ele>
        <time>2021-12-01T11:27:37.000Z</time>
      </trkpt>
      <trkpt lat="47.49105" lon="-3.14147">
        <ele>10.600654</ele>
        <time>2021-12-01T11:27:39.000Z</time>
      </trkpt>
      <trkpt lat="47.49105" lon="-3.14148">
        <ele>10.61983</ele>
        <time>2021-12-01T11:27:40.000Z</time>
      </trkpt>
      <trkpt lat="47.49103" lon="-3.14151">
        <ele>10.657603</ele>
        <time>2021-12-01T11:27:42.000Z</time>
      </trkpt>
      <trkpt lat="47.49102" lon="-3.14151">
        <ele>10.665379</ele>
        <time>2021-12-01T11:27:45.000Z</time>
      </trkpt>
      <trkpt lat="47.49103" lon="-3.14149">
        <ele>10.692513</ele>
        <time>2021-12-01T11:28:19.000Z</time>
      </trkpt>
      <trkpt lat="47.49103" lon="-3.14146">
        <ele>10.721232</ele>
        <time>2021-12-01T11:28:20.000Z</time>
      </trkpt>
      <trkpt lat="47.49102" lon="-3.14128">
        <ele>10.901154</ele>
        <time>2021-12-01T11:28:24.000Z</time>
      </trkpt>
      <trkpt lat="47.49095" lon="-3.14104">
        <ele>11.161035</ele>
        <time>2021-12-01T11:28:29.000Z</time>
      </trkpt>
      <trkpt lat="47.49092" lon="-3.14101">
        <ele>11.220182</ele>
        <time>2021-12-01T11:28:30.000Z</time>
      </trkpt>
      <trkpt lat="47.49088" lon="-3.14098">
        <ele>11.279671</ele>
        <time>2021-12-01T11:28:31.000Z</time>
      </trkpt>
      <trkpt lat="47.49072" lon="-3.14089">
        <ele>11.555508</ele>
        <time>2021-12-01T11:28:35.000Z</time>
      </trkpt>
      <trkpt lat="47.49067" lon="-3.14086">
        <ele>11.658827</ele>
        <time>2021-12-01T11:28:36.000Z</time>
      </trkpt>
      <trkpt lat="47.49053" lon="-3.14075">
        <ele>11.979855</ele>
        <time>2021-12-01T11:28:39.000Z</time>
      </trkpt>
      <trkpt lat="47.49047" lon="-3.14067">
        <ele>12.139065</ele>
        <time>2021-12-01T11:28:41.000Z</time>
      </trkpt>
      <trkpt lat="47.49043" lon="-3.1406">
        <ele>12.271272</ele>
        <time>2021-12-01T11:28:43.000Z</time>
      </trkpt>
      <trkpt lat="47.49033" lon="-3.14057">
        <ele>12.463116</ele>
        <time>2021-12-01T11:28:47.000Z</time>
      </trkpt>
      <trkpt lat="47.49032" lon="-3.14055">
        <ele>12.510624</ele>
        <time>2021-12-01T11:28:48.000Z</time>
      </trkpt>
      <trkpt lat="47.49032" lon="-3.14051">
        <ele>12.564162</ele>
        <time>2021-12-01T11:28:49.000Z</time>
      </trkpt>
      <trkpt lat="47.4903" lon="-3.14035">
        <ele>12.780017</ele>
        <time>2021-12-01T11:28:52.000Z</time>
      </trkpt>
      <trkpt lat="47.49027" lon="-3.14008">
        <ele>13.150871</ele>
        <time>2021-12-01T11:28:56.000Z</time>
      </trkpt>
      <trkpt lat="47.49026" lon="-3.14001">
        <ele>13.249371</ele>
        <time>2021-12-01T11:28:57.000Z</time>
      </trkpt>
      <trkpt lat="47.49016" lon="-3.13948">
        <ele>14.008052</ele>
        <time>2021-12-01T11:29:05.000Z</time>
      </trkpt>
      <trkpt lat="47.49014" lon="-3.1394">
        <ele>14.115493</ele>
        <time>2021-12-01T11:29:06.000Z</time>
      </trkpt>
      <trkpt lat="47.49002" lon="-3.13907">
        <ele>14.629526</ele>
        <time>2021-12-01T11:29:12.000Z</time>
      </trkpt>
      <trkpt lat="47.48997" lon="-3.13889">
        <ele>14.889852</ele>
        <time>2021-12-01T11:29:15.000Z</time>
      </trkpt>
      <trkpt lat="47.48993" lon="-3.13876">
        <ele>15.089819</ele>
        <time>2021-12-01T11:29:17.000Z</time>
      </trkpt>
      <trkpt lat="47.48992" lon="-3.13869">
        <ele>15.190236</ele>
        <time>2021-12-01T11:29:18.000Z</time>
      </trkpt>
      <trkpt lat="47.48985" lon="-3.13851">
        <ele>15.522619</ele>
        <time>2021-12-01T11:29:21.000Z</time>
      </trkpt>
      <trkpt lat="47.48981" lon="-3.13839">
        <ele>15.738606</ele>
        <time>2021-12-01T11:29:23.000Z</time>
      </trkpt>
      <trkpt lat="47.48979" lon="-3.13834">
        <ele>15.828498</ele>
        <time>2021-12-01T11:29:24.000Z</time>
      </trkpt>
      <trkpt lat="47.48967" lon="-3.13807">
        <ele>16.338451</ele>
        <time>2021-12-01T11:29:29.000Z</time>
      </trkpt>
      <trkpt lat="47.48962" lon="-3.13798">
        <ele>16.526137</ele>
        <time>2021-12-01T11:29:31.000Z</time>
      </trkpt>
      <trkpt lat="47.48957" lon="-3.13788">
        <ele>16.740168</ele>
        <time>2021-12-01T11:29:33.000Z</time>
      </trkpt>
      <trkpt lat="47.48948" lon="-3.13783">
        <ele>16.948695</ele>
        <time>2021-12-01T11:29:35.000Z</time>
      </trkpt>
      <trkpt lat="47.48939" lon="-3.13784">
        <ele>17.168179</ele>
        <time>2021-12-01T11:29:37.000Z</time>
      </trkpt>
      <trkpt lat="47.48929" lon="-3.13789">
        <ele>17.429255</ele>
        <time>2021-12-01T11:29:39.000Z</time>
      </trkpt>
      <trkpt lat="47.4891" lon="-3.13801">
        <ele>17.898446</ele>
        <time>2021-12-01T11:29:43.000Z</time>
      </trkpt>
      <trkpt lat="47.48902" lon="-3.1381">
        <ele>18.135835</ele>
        <time>2021-12-01T11:29:45.000Z</time>
      </trkpt>
      <trkpt lat="47.48895" lon="-3.13818">
        <ele>18.348297</ele>
        <time>2021-12-01T11:29:47.000Z</time>
      </trkpt>
      <trkpt lat="47.48886" lon="-3.13822">
        <ele>18.567422</ele>
        <time>2021-12-01T11:29:49.000Z</time>
      </trkpt>
      <trkpt lat="47.48854" lon="-3.13841">
        <ele>19.376708</ele>
        <time>2021-12-01T11:29:57.000Z</time>
      </trkpt>
      <trkpt lat="47.48849" lon="-3.13842">
        <ele>19.408882</ele>
        <time>2021-12-01T11:29:58.000Z</time>
      </trkpt>
      <trkpt lat="47.48827" lon="-3.13854">
        <ele>19.575079</ele>
        <time>2021-12-01T11:30:03.000Z</time>
      </trkpt>
      <trkpt lat="47.48817" lon="-3.13858">
        <ele>19.650697</ele>
        <time>2021-12-01T11:30:05.000Z</time>
      </trkpt>
      <trkpt lat="47.48784" lon="-3.13879">
        <ele>19.907324</ele>
        <time>2021-12-01T11:30:12.000Z</time>
      </trkpt>
      <trkpt lat="47.48745" lon="-3.13913">
        <ele>20.226208</ele>
        <time>2021-12-01T11:30:20.000Z</time>
      </trkpt>
      <trkpt lat="47.48716" lon="-3.13944">
        <ele>20.48424</ele>
        <time>2021-12-01T11:30:27.000Z</time>
      </trkpt>
      <trkpt lat="47.48706" lon="-3.13953">
        <ele>20.566747</ele>
        <time>2021-12-01T11:30:29.000Z</time>
      </trkpt>
      <trkpt lat="47.48698" lon="-3.13961">
        <ele>20.633557</ele>
        <time>2021-12-01T11:30:31.000Z</time>
      </trkpt>
      <trkpt lat="47.48688" lon="-3.13969">
        <ele>20.496273</ele>
        <time>2021-12-01T11:30:33.000Z</time>
      </trkpt>
      <trkpt lat="47.48684" lon="-3.13972">
        <ele>20.410011</ele>
        <time>2021-12-01T11:30:34.000Z</time>
      </trkpt>
      <trkpt lat="47.48664" lon="-3.13978">
        <ele>20.059787</ele>
        <time>2021-12-01T11:30:38.000Z</time>
      </trkpt>
      <trkpt lat="47.48625" lon="-3.13977">
        <ele>19.36877</ele>
        <time>2021-12-01T11:30:46.000Z</time>
      </trkpt>
      <trkpt lat="47.48613" lon="-3.13977">
        <ele>19.160168</ele>
        <time>2021-12-01T11:30:48.000Z</time>
      </trkpt>
      <trkpt lat="47.48604" lon="-3.13972">
        <ele>18.984379</ele>
        <time>2021-12-01T11:30:50.000Z</time>
      </trkpt>
      <trkpt lat="47.48597" lon="-3.13957">
        <ele>18.77047</ele>
        <time>2021-12-01T11:30:52.000Z</time>
      </trkpt>
      <trkpt lat="47.48594" lon="-3.1395">
        <ele>18.66815</ele>
        <time>2021-12-01T11:30:53.000Z</time>
      </trkpt>
      <trkpt lat="47.48578" lon="-3.13911">
        <ele>18.116663</ele>
        <time>2021-12-01T11:30:58.000Z</time>
      </trkpt>
      <trkpt lat="47.48575" lon="-3.13904">
        <ele>18.022481</ele>
        <time>2021-12-01T11:30:59.000Z</time>
      </trkpt>
      <trkpt lat="47.4856" lon="-3.13861">
        <ele>17.465219</ele>
        <time>2021-12-01T11:31:04.000Z</time>
      </trkpt>
      <trkpt lat="47.48552" lon="-3.13843">
        <ele>17.403768</ele>
        <time>2021-12-01T11:31:06.000Z</time>
      </trkpt>
      <trkpt lat="47.48538" lon="-3.13802">
        <ele>17.270354</ele>
        <time>2021-12-01T11:31:11.000Z</time>
      </trkpt>
      <trkpt lat="47.48529" lon="-3.13742">
        <ele>17.08865</ele>
        <time>2021-12-01T11:31:18.000Z</time>
      </trkpt>
      <trkpt lat="47.48519" lon="-3.13661">
        <ele>16.850779</ele>
        <time>2021-12-01T11:31:27.000Z</time>
      </trkpt>
      <trkpt lat="47.48516" lon="-3.13646">
        <ele>16.802954</ele>
        <time>2021-12-01T11:31:29.000Z</time>
      </trkpt>
      <trkpt lat="47.48498" lon="-3.13599">
        <ele>16.880885</ele>
        <time>2021-12-01T11:31:35.000Z</time>
      </trkpt>
      <trkpt lat="47.48474" lon="-3.13556">
        <ele>17.47866</ele>
        <time>2021-12-01T11:31:42.000Z</time>
      </trkpt>
      <trkpt lat="47.4846" lon="-3.1353">
        <ele>17.83401</ele>
        <time>2021-12-01T11:31:47.000Z</time>
      </trkpt>
      <trkpt lat="47.48458" lon="-3.13525">
        <ele>17.89707</ele>
        <time>2021-12-01T11:31:48.000Z</time>
      </trkpt>
      <trkpt lat="47.48453" lon="-3.13508">
        <ele>18.086951</ele>
        <time>2021-12-01T11:31:51.000Z</time>
      </trkpt>
      <trkpt lat="47.48451" lon="-3.13503">
        <ele>18.150721</ele>
        <time>2021-12-01T11:31:52.000Z</time>
      </trkpt>
      <trkpt lat="47.48447" lon="-3.13492">
        <ele>18.290477</ele>
        <time>2021-12-01T11:31:54.000Z</time>
      </trkpt>
      <trkpt lat="47.48444" lon="-3.13481">
        <ele>18.408739</ele>
        <time>2021-12-01T11:31:56.000Z</time>
      </trkpt>
      <trkpt lat="47.48442" lon="-3.13473">
        <ele>18.501459</ele>
        <time>2021-12-01T11:31:58.000Z</time>
      </trkpt>
      <trkpt lat="47.4844" lon="-3.13471">
        <ele>18.54795</ele>
        <time>2021-12-01T11:31:59.000Z</time>
      </trkpt>
      <trkpt lat="47.48437" lon="-3.13472">
        <ele>18.585923</ele>
        <time>2021-12-01T11:32:00.000Z</time>
      </trkpt>
      <trkpt lat="47.48433" lon="-3.13478">
        <ele>18.683412</ele>
        <time>2021-12-01T11:32:02.000Z</time>
      </trkpt>
      <trkpt lat="47.48417" lon="-3.13493">
        <ele>18.975819</ele>
        <time>2021-12-01T11:32:06.000Z</time>
      </trkpt>
      <trkpt lat="47.48413" lon="-3.13498">
        <ele>19.053504</ele>
        <time>2021-12-01T11:32:07.000Z</time>
      </trkpt>
      <trkpt lat="47.48409" lon="-3.13501">
        <ele>19.134019</ele>
        <time>2021-12-01T11:32:08.000Z</time>
      </trkpt>
      <trkpt lat="47.48399" lon="-3.13501">
        <ele>19.290841</ele>
        <time>2021-12-01T11:32:10.000Z</time>
      </trkpt>
      <trkpt lat="47.4838" lon="-3.13488">
        <ele>19.452712</ele>
        <time>2021-12-01T11:32:14.000Z</time>
      </trkpt>
      <trkpt lat="47.48375" lon="-3.13486">
        <ele>19.351051</ele>
        <time>2021-12-01T11:32:15.000Z</time>
      </trkpt>
      <trkpt lat="47.48366" lon="-3.13482">
        <ele>19.154458</ele>
        <time>2021-12-01T11:32:17.000Z</time>
      </trkpt>
      <trkpt lat="47.48353" lon="-3.1348">
        <ele>18.891216</ele>
        <time>2021-12-01T11:32:20.000Z</time>
      </trkpt>
      <trkpt lat="47.4835" lon="-3.13479">
        <ele>18.826465</ele>
        <time>2021-12-01T11:32:21.000Z</time>
      </trkpt>
      <trkpt lat="47.48347" lon="-3.13479">
        <ele>18.776447</ele>
        <time>2021-12-01T11:32:22.000Z</time>
      </trkpt>
      <trkpt lat="47.48343" lon="-3.1348">
        <ele>18.699565</ele>
        <time>2021-12-01T11:32:24.000Z</time>
      </trkpt>
      <trkpt lat="47.48329" lon="-3.13485">
        <ele>18.408267</ele>
        <time>2021-12-01T11:32:29.000Z</time>
      </trkpt>
      <trkpt lat="47.48325" lon="-3.13486">
        <ele>18.316918</ele>
        <time>2021-12-01T11:32:30.000Z</time>
      </trkpt>
      <trkpt lat="47.48304" lon="-3.1349">
        <ele>17.903086</ele>
        <time>2021-12-01T11:32:34.000Z</time>
      </trkpt>
      <trkpt lat="47.48271" lon="-3.13499">
        <ele>17.223597</ele>
        <time>2021-12-01T11:32:40.000Z</time>
      </trkpt>
      <trkpt lat="47.48265" lon="-3.13501">
        <ele>17.113302</ele>
        <time>2021-12-01T11:32:41.000Z</time>
      </trkpt>
      <trkpt lat="47.4824" lon="-3.13509">
        <ele>16.593345</ele>
        <time>2021-12-01T11:32:46.000Z</time>
      </trkpt>
      <trkpt lat="47.48235" lon="-3.13511">
        <ele>16.49143</ele>
        <time>2021-12-01T11:32:47.000Z</time>
      </trkpt>
      <trkpt lat="47.4822" lon="-3.13518">
        <ele>16.181092</ele>
        <time>2021-12-01T11:32:50.000Z</time>
      </trkpt>
      <trkpt lat="47.48199" lon="-3.13529">
        <ele>15.734708</ele>
        <time>2021-12-01T11:32:54.000Z</time>
      </trkpt>
      <trkpt lat="47.48182" lon="-3.13541">
        <ele>15.349905</ele>
        <time>2021-12-01T11:32:57.000Z</time>
      </trkpt>
      <trkpt lat="47.48171" lon="-3.13549">
        <ele>15.089764</ele>
        <time>2021-12-01T11:32:59.000Z</time>
      </trkpt>
      <trkpt lat="47.48133" lon="-3.13576">
        <ele>14.232167</ele>
        <time>2021-12-01T11:33:06.000Z</time>
      </trkpt>
      <trkpt lat="47.48124" lon="-3.13585">
        <ele>14.002098</ele>
        <time>2021-12-01T11:33:08.000Z</time>
      </trkpt>
      <trkpt lat="47.48117" lon="-3.1359">
        <ele>13.851007</ele>
        <time>2021-12-01T11:33:10.000Z</time>
      </trkpt>
      <trkpt lat="47.48105" lon="-3.13596">
        <ele>13.597692</ele>
        <time>2021-12-01T11:33:14.000Z</time>
      </trkpt>
      <trkpt lat="47.4809" lon="-3.13588">
        <ele>13.261378</ele>
        <time>2021-12-01T11:33:18.000Z</time>
      </trkpt>
      <trkpt lat="47.48065" lon="-3.13562">
        <ele>12.6468</ele>
        <time>2021-12-01T11:33:24.000Z</time>
      </trkpt>
      <trkpt lat="47.48058" lon="-3.13552">
        <ele>12.431355</ele>
        <time>2021-12-01T11:33:26.000Z</time>
      </trkpt>
      <trkpt lat="47.48046" lon="-3.13537">
        <ele>12.096065</ele>
        <time>2021-12-01T11:33:29.000Z</time>
      </trkpt>
      <trkpt lat="47.48042" lon="-3.13532">
        <ele>11.979577</ele>
        <time>2021-12-01T11:33:30.000Z</time>
      </trkpt>
      <trkpt lat="47.48016" lon="-3.1349">
        <ele>11.101347</ele>
        <time>2021-12-01T11:33:38.000Z</time>
      </trkpt>
      <trkpt lat="47.47991" lon="-3.13448">
        <ele>10.228443</ele>
        <time>2021-12-01T11:33:45.000Z</time>
      </trkpt>
      <trkpt lat="47.47984" lon="-3.13439">
        <ele>10.026486</ele>
        <time>2021-12-01T11:33:47.000Z</time>
      </trkpt>
      <trkpt lat="47.47976" lon="-3.13433">
        <ele>9.816278</ele>
        <time>2021-12-01T11:33:49.000Z</time>
      </trkpt>
      <trkpt lat="47.47973" lon="-3.13434">
        <ele>9.743887</ele>
        <time>2021-12-01T11:33:50.000Z</time>
      </trkpt>
      <trkpt lat="47.47969" lon="-3.13436">
        <ele>9.649003</ele>
        <time>2021-12-01T11:33:51.000Z</time>
      </trkpt>
      <trkpt lat="47.4796" lon="-3.13449">
        <ele>9.364403</ele>
        <time>2021-12-01T11:33:54.000Z</time>
      </trkpt>
      <trkpt lat="47.47957" lon="-3.13453">
        <ele>9.266934</ele>
        <time>2021-12-01T11:33:55.000Z</time>
      </trkpt>
      <trkpt lat="47.47953" lon="-3.13458">
        <ele>9.150911</ele>
        <time>2021-12-01T11:33:56.000Z</time>
      </trkpt>
      <trkpt lat="47.47938" lon="-3.13478">
        <ele>8.698396</ele>
        <time>2021-12-01T11:34:01.000Z</time>
      </trkpt>
      <trkpt lat="47.47927" lon="-3.13496">
        <ele>8.327609</ele>
        <time>2021-12-01T11:34:06.000Z</time>
      </trkpt>
      <trkpt lat="47.47926" lon="-3.13499">
        <ele>8.265519</ele>
        <time>2021-12-01T11:34:07.000Z</time>
      </trkpt>
      <trkpt lat="47.47926" lon="-3.13503">
        <ele>8.204145</ele>
        <time>2021-12-01T11:34:08.000Z</time>
      </trkpt>
      <trkpt lat="47.47924" lon="-3.13505">
        <ele>8.166957</ele>
        <time>2021-12-01T11:34:09.000Z</time>
      </trkpt>
      <trkpt lat="47.47922" lon="-3.13505">
        <ele>8.155148</ele>
        <time>2021-12-01T11:34:11.000Z</time>
      </trkpt>
      <trkpt lat="47.47921" lon="-3.13503">
        <ele>8.145027</ele>
        <time>2021-12-01T11:34:13.000Z</time>
      </trkpt>
      <trkpt lat="47.47919" lon="-3.13503">
        <ele>8.133787</ele>
        <time>2021-12-01T11:34:17.000Z</time>
      </trkpt>
      <trkpt lat="47.47918" lon="-3.13504">
        <ele>8.129864</ele>
        <time>2021-12-01T11:34:18.000Z</time>
      </trkpt>
      <trkpt lat="47.47917" lon="-3.13506">
        <ele>8.119402</ele>
        <time>2021-12-01T11:34:20.000Z</time>
      </trkpt>
      <trkpt lat="47.47916" lon="-3.1351">
        <ele>8.106401</ele>
        <time>2021-12-01T11:34:22.000Z</time>
      </trkpt>
      <trkpt lat="47.47915" lon="-3.13512">
        <ele>8.095049</ele>
        <time>2021-12-01T11:34:26.000Z</time>
      </trkpt>
      <trkpt lat="47.47916" lon="-3.1351">
        <ele>8.084434</ele>
        <time>2021-12-01T11:35:30.000Z</time>
      </trkpt>
      <trkpt lat="47.47916" lon="-3.13508">
        <ele>8.078961</ele>
        <time>2021-12-01T11:35:31.000Z</time>
      </trkpt>
      <trkpt lat="47.47917" lon="-3.13507">
        <ele>8.072691</ele>
        <time>2021-12-01T11:35:32.000Z</time>
      </trkpt>
      <trkpt lat="47.47919" lon="-3.13503">
        <ele>8.056527</ele>
        <time>2021-12-01T11:35:35.000Z</time>
      </trkpt>
      <trkpt lat="47.47919" lon="-3.13501">
        <ele>8.050024</ele>
        <time>2021-12-01T11:35:37.000Z</time>
      </trkpt>
      <trkpt lat="47.47918" lon="-3.13499">
        <ele>8.040612</ele>
        <time>2021-12-01T11:35:39.000Z</time>
      </trkpt>
      <trkpt lat="47.47914" lon="-3.13492">
        <ele>8.00609</ele>
        <time>2021-12-01T11:35:42.000Z</time>
      </trkpt>
      <trkpt lat="47.47898" lon="-3.13473">
        <ele>7.896566</ele>
        <time>2021-12-01T11:35:47.000Z</time>
      </trkpt>
      <trkpt lat="47.4787" lon="-3.13444">
        <ele>7.717743</ele>
        <time>2021-12-01T11:35:54.000Z</time>
      </trkpt>
      <trkpt lat="47.47834" lon="-3.13405">
        <ele>7.478328</ele>
        <time>2021-12-01T11:36:02.000Z</time>
      </trkpt>
      <trkpt lat="47.47788" lon="-3.13354">
        <ele>7.208388</ele>
        <time>2021-12-01T11:36:12.000Z</time>
      </trkpt>
      <trkpt lat="47.47754" lon="-3.13318">
        <ele>7.201913</ele>
        <time>2021-12-01T11:36:20.000Z</time>
      </trkpt>
      <trkpt lat="47.47713" lon="-3.13281">
        <ele>7.194538</ele>
        <time>2021-12-01T11:36:28.000Z</time>
      </trkpt>
      <trkpt lat="47.47668" lon="-3.13258">
        <ele>7.187093</ele>
        <time>2021-12-01T11:36:36.000Z</time>
      </trkpt>
      <trkpt lat="47.47615" lon="-3.13237">
        <ele>7.216097</ele>
        <time>2021-12-01T11:36:45.000Z</time>
      </trkpt>
      <trkpt lat="47.47609" lon="-3.13234">
        <ele>7.22668</ele>
        <time>2021-12-01T11:36:46.000Z</time>
      </trkpt>
      <trkpt lat="47.47557" lon="-3.13207">
        <ele>7.324086</ele>
        <time>2021-12-01T11:36:55.000Z</time>
      </trkpt>
      <trkpt lat="47.47532" lon="-3.13176">
        <ele>7.381267</ele>
        <time>2021-12-01T11:37:01.000Z</time>
      </trkpt>
      <trkpt lat="47.4751" lon="-3.13133">
        <ele>7.446396</ele>
        <time>2021-12-01T11:37:08.000Z</time>
      </trkpt>
      <trkpt lat="47.47499" lon="-3.13098">
        <ele>7.491902</ele>
        <time>2021-12-01T11:37:13.000Z</time>
      </trkpt>
      <trkpt lat="47.47497" lon="-3.13085">
        <ele>7.503042</ele>
        <time>2021-12-01T11:37:15.000Z</time>
      </trkpt>
      <trkpt lat="47.47493" lon="-3.13024">
        <ele>7.537405</ele>
        <time>2021-12-01T11:37:23.000Z</time>
      </trkpt>
      <trkpt lat="47.47495" lon="-3.13002">
        <ele>7.549493</ele>
        <time>2021-12-01T11:37:26.000Z</time>
      </trkpt>
      <trkpt lat="47.47498" lon="-3.1299">
        <ele>7.556736</ele>
        <time>2021-12-01T11:37:28.000Z</time>
      </trkpt>
      <trkpt lat="47.475" lon="-3.12982">
        <ele>7.561416</ele>
        <time>2021-12-01T11:37:30.000Z</time>
      </trkpt>
      <trkpt lat="47.475" lon="-3.12979">
        <ele>7.563395</ele>
        <time>2021-12-01T11:37:31.000Z</time>
      </trkpt>
      <trkpt lat="47.47497" lon="-3.12976">
        <ele>7.56635</ele>
        <time>2021-12-01T11:37:33.000Z</time>
      </trkpt>
      <trkpt lat="47.47493" lon="-3.12976">
        <ele>7.569077</ele>
        <time>2021-12-01T11:37:35.000Z</time>
      </trkpt>
      <trkpt lat="47.47491" lon="-3.12977">
        <ele>7.570857</ele>
        <time>2021-12-01T11:37:36.000Z</time>
      </trkpt>
      <trkpt lat="47.47489" lon="-3.12981">
        <ele>7.57355</ele>
        <time>2021-12-01T11:37:38.000Z</time>
      </trkpt>
      <trkpt lat="47.47489" lon="-3.12984">
        <ele>7.575348</ele>
        <time>2021-12-01T11:37:39.000Z</time>
      </trkpt>
      <trkpt lat="47.47487" lon="-3.12992">
        <ele>7.580079</ele>
        <time>2021-12-01T11:37:42.000Z</time>
      </trkpt>
      <trkpt lat="47.47487" lon="-3.12992">
        <ele>7.580333</ele>
        <time>2021-12-01T11:37:43.000Z</time>
      </trkpt>
      <trkpt lat="47.47485" lon="-3.12992">
        <ele>7.581904</ele>
        <time>2021-12-01T11:37:48.000Z</time>
      </trkpt>
      <trkpt lat="47.47486" lon="-3.12989">
        <ele>7.583885</ele>
        <time>2021-12-01T11:38:22.000Z</time>
      </trkpt>
      <trkpt lat="47.47488" lon="-3.12982">
        <ele>7.587987</ele>
        <time>2021-12-01T11:38:24.000Z</time>
      </trkpt>
      <trkpt lat="47.4749" lon="-3.12976">
        <ele>7.591655</ele>
        <time>2021-12-01T11:38:26.000Z</time>
      </trkpt>
      <trkpt lat="47.47497" lon="-3.12966">
        <ele>7.599567</ele>
        <time>2021-12-01T11:38:29.000Z</time>
      </trkpt>
      <trkpt lat="47.47518" lon="-3.12944">
        <ele>7.620756</ele>
        <time>2021-12-01T11:38:37.000Z</time>
      </trkpt>
      <trkpt lat="47.47527" lon="-3.12928">
        <ele>7.632298</ele>
        <time>2021-12-01T11:38:42.000Z</time>
      </trkpt>
      <trkpt lat="47.47533" lon="-3.12907">
        <ele>7.645208</ele>
        <time>2021-12-01T11:38:49.000Z</time>
      </trkpt>
      <trkpt lat="47.47539" lon="-3.12871">
        <ele>7.631543</ele>
        <time>2021-12-01T11:38:58.000Z</time>
      </trkpt>
      <trkpt lat="47.47546" lon="-3.12827">
        <ele>7.610525</ele>
        <time>2021-12-01T11:39:06.000Z</time>
      </trkpt>
      <trkpt lat="47.4755" lon="-3.12808">
        <ele>7.601347</ele>
        <time>2021-12-01T11:39:09.000Z</time>
      </trkpt>
      <trkpt lat="47.47556" lon="-3.12795">
        <ele>7.594144</ele>
        <time>2021-12-01T11:39:11.000Z</time>
      </trkpt>
      <trkpt lat="47.47564" lon="-3.12787">
        <ele>7.587788</ele>
        <time>2021-12-01T11:39:13.000Z</time>
      </trkpt>
      <trkpt lat="47.47574" lon="-3.12782">
        <ele>7.580672</ele>
        <time>2021-12-01T11:39:15.000Z</time>
      </trkpt>
      <trkpt lat="47.47611" lon="-3.12759">
        <ele>7.553294</ele>
        <time>2021-12-01T11:39:23.000Z</time>
      </trkpt>
      <trkpt lat="47.47657" lon="-3.12732">
        <ele>7.523762</ele>
        <time>2021-12-01T11:39:33.000Z</time>
      </trkpt>
      <trkpt lat="47.47696" lon="-3.12703">
        <ele>7.51904</ele>
        <time>2021-12-01T11:39:42.000Z</time>
      </trkpt>
      <trkpt lat="47.477" lon="-3.127">
        <ele>7.518537</ele>
        <time>2021-12-01T11:39:43.000Z</time>
      </trkpt>
      <trkpt lat="47.47711" lon="-3.1269">
        <ele>7.517158</ele>
        <time>2021-12-01T11:39:46.000Z</time>
      </trkpt>
      <trkpt lat="47.47717" lon="-3.1268">
        <ele>7.516241</ele>
        <time>2021-12-01T11:39:48.000Z</time>
      </trkpt>
      <trkpt lat="47.47726" lon="-3.12653">
        <ele>7.513992</ele>
        <time>2021-12-01T11:39:52.000Z</time>
      </trkpt>
      <trkpt lat="47.4773" lon="-3.12646">
        <ele>7.513348</ele>
        <time>2021-12-01T11:39:53.000Z</time>
      </trkpt>
      <trkpt lat="47.47735" lon="-3.1264">
        <ele>7.512697</ele>
        <time>2021-12-01T11:39:54.000Z</time>
      </trkpt>
      <trkpt lat="47.47745" lon="-3.12629">
        <ele>7.5113</ele>
        <time>2021-12-01T11:39:56.000Z</time>
      </trkpt>
      <trkpt lat="47.4775" lon="-3.12627">
        <ele>7.510807</ele>
        <time>2021-12-01T11:39:57.000Z</time>
      </trkpt>
      <trkpt lat="47.4776" lon="-3.12622">
        <ele>7.509683</ele>
        <time>2021-12-01T11:39:59.000Z</time>
      </trkpt>
      <trkpt lat="47.47777" lon="-3.12612">
        <ele>7.507706</ele>
        <time>2021-12-01T11:40:03.000Z</time>
      </trkpt>
      <trkpt lat="47.47781" lon="-3.12608">
        <ele>7.507189</ele>
        <time>2021-12-01T11:40:04.000Z</time>
      </trkpt>
      <trkpt lat="47.47786" lon="-3.12601">
        <ele>7.506395</ele>
        <time>2021-12-01T11:40:06.000Z</time>
      </trkpt>
      <trkpt lat="47.47792" lon="-3.12592">
        <ele>7.505542</ele>
        <time>2021-12-01T11:40:08.000Z</time>
      </trkpt>
      <trkpt lat="47.47808" lon="-3.12563">
        <ele>7.46017</ele>
        <time>2021-12-01T11:40:15.000Z</time>
      </trkpt>
      <trkpt lat="47.47814" lon="-3.12551">
        <ele>7.437925</ele>
        <time>2021-12-01T11:40:19.000Z</time>
      </trkpt>
      <trkpt lat="47.47815" lon="-3.12547">
        <ele>7.432559</ele>
        <time>2021-12-01T11:40:20.000Z</time>
      </trkpt>
      <trkpt lat="47.47822" lon="-3.12529">
        <ele>7.40342</ele>
        <time>2021-12-01T11:40:25.000Z</time>
      </trkpt>
      <trkpt lat="47.47827" lon="-3.12504">
        <ele>7.366839</ele>
        <time>2021-12-01T11:40:30.000Z</time>
      </trkpt>
      <trkpt lat="47.47833" lon="-3.12469">
        <ele>7.317117</ele>
        <time>2021-12-01T11:40:36.000Z</time>
      </trkpt>
      <trkpt lat="47.47842" lon="-3.12418">
        <ele>7.24373</ele>
        <time>2021-12-01T11:40:45.000Z</time>
      </trkpt>
      <trkpt lat="47.47846" lon="-3.12398">
        <ele>7.213234</ele>
        <time>2021-12-01T11:40:49.000Z</time>
      </trkpt>
      <trkpt lat="47.4785" lon="-3.12372">
        <ele>7.176994</ele>
        <time>2021-12-01T11:40:54.000Z</time>
      </trkpt>
      <trkpt lat="47.47851" lon="-3.12363">
        <ele>7.163535</ele>
        <time>2021-12-01T11:40:56.000Z</time>
      </trkpt>
      <trkpt lat="47.47855" lon="-3.12358">
        <ele>7.15332</ele>
        <time>2021-12-01T11:40:58.000Z</time>
      </trkpt>
      <trkpt lat="47.4787" lon="-3.12362">
        <ele>7.138338</ele>
        <time>2021-12-01T11:41:03.000Z</time>
      </trkpt>
      <trkpt lat="47.47881" lon="-3.12367">
        <ele>7.147081</ele>
        <time>2021-12-01T11:41:08.000Z</time>
      </trkpt>
      <trkpt lat="47.47882" lon="-3.12367">
        <ele>7.147556</ele>
        <time>2021-12-01T11:41:10.000Z</time>
      </trkpt>
      <trkpt lat="47.47882" lon="-3.12367">
        <ele>7.147556</ele>
        <time>2021-12-01T11:41:12.000Z</time>
      </trkpt>
      <trkpt lat="47.47884" lon="-3.12362">
        <ele>7.150907</ele>
        <time>2021-12-01T11:42:01.000Z</time>
      </trkpt>
      <trkpt lat="47.47891" lon="-3.12344">
        <ele>7.162181</ele>
        <time>2021-12-01T11:42:06.000Z</time>
      </trkpt>
      <trkpt lat="47.47898" lon="-3.12317">
        <ele>7.177398</ele>
        <time>2021-12-01T11:42:11.000Z</time>
      </trkpt>
      <trkpt lat="47.47918" lon="-3.1227">
        <ele>7.207126</ele>
        <time>2021-12-01T11:42:20.000Z</time>
      </trkpt>
      <trkpt lat="47.47936" lon="-3.1224">
        <ele>7.228312</ele>
        <time>2021-12-01T11:42:26.000Z</time>
      </trkpt>
      <trkpt lat="47.47939" lon="-3.12235">
        <ele>7.231686</ele>
        <time>2021-12-01T11:42:27.000Z</time>
      </trkpt>
      <trkpt lat="47.47964" lon="-3.12198">
        <ele>7.259412</ele>
        <time>2021-12-01T11:42:35.000Z</time>
      </trkpt>
      <trkpt lat="47.47974" lon="-3.12184">
        <ele>7.270575</ele>
        <time>2021-12-01T11:42:38.000Z</time>
      </trkpt>
      <trkpt lat="47.47994" lon="-3.12158">
        <ele>7.169375</ele>
        <time>2021-12-01T11:42:45.000Z</time>
      </trkpt>
      <trkpt lat="47.48002" lon="-3.12141">
        <ele>7.098477</ele>
        <time>2021-12-01T11:42:50.000Z</time>
      </trkpt>
      <trkpt lat="47.47997" lon="-3.12132">
        <ele>7.057172</ele>
        <time>2021-12-01T11:42:53.000Z</time>
      </trkpt>
      <trkpt lat="47.47989" lon="-3.12119">
        <ele>6.995419</ele>
        <time>2021-12-01T11:42:57.000Z</time>
      </trkpt>
      <trkpt lat="47.47982" lon="-3.12111">
        <ele>6.952331</ele>
        <time>2021-12-01T11:43:00.000Z</time>
      </trkpt>
      <trkpt lat="47.47974" lon="-3.12093">
        <ele>6.878928</ele>
        <time>2021-12-01T11:43:05.000Z</time>
      </trkpt>
      <trkpt lat="47.47969" lon="-3.12067">
        <ele>6.78583</ele>
        <time>2021-12-01T11:43:10.000Z</time>
      </trkpt>
      <trkpt lat="47.47958" lon="-3.12012">
        <ele>6.587338</ele>
        <time>2021-12-01T11:43:19.000Z</time>
      </trkpt>
      <trkpt lat="47.47948" lon="-3.11957">
        <ele>6.391845</ele>
        <time>2021-12-01T11:43:27.000Z</time>
      </trkpt>
      <trkpt lat="47.47938" lon="-3.11888">
        <ele>6.609185</ele>
        <time>2021-12-01T11:43:37.000Z</time>
      </trkpt>
      <trkpt lat="47.47933" lon="-3.11841">
        <ele>6.801275</ele>
        <time>2021-12-01T11:43:44.000Z</time>
      </trkpt>
      <trkpt lat="47.47934" lon="-3.11834">
        <ele>6.829293</ele>
        <time>2021-12-01T11:43:45.000Z</time>
      </trkpt>
      <trkpt lat="47.47934" lon="-3.11828">
        <ele>6.856862</ele>
        <time>2021-12-01T11:43:46.000Z</time>
      </trkpt>
      <trkpt lat="47.47932" lon="-3.11814">
        <ele>6.912381</ele>
        <time>2021-12-01T11:43:48.000Z</time>
      </trkpt>
      <trkpt lat="47.4793" lon="-3.11808">
        <ele>6.94143</ele>
        <time>2021-12-01T11:43:49.000Z</time>
      </trkpt>
      <trkpt lat="47.47923" lon="-3.1179">
        <ele>7.022154</ele>
        <time>2021-12-01T11:43:52.000Z</time>
      </trkpt>
      <trkpt lat="47.47917" lon="-3.11781">
        <ele>7.074156</ele>
        <time>2021-12-01T11:43:54.000Z</time>
      </trkpt>
      <trkpt lat="47.47915" lon="-3.11775">
        <ele>7.101977</ele>
        <time>2021-12-01T11:43:55.000Z</time>
      </trkpt>
      <trkpt lat="47.47913" lon="-3.11769">
        <ele>7.129888</ele>
        <time>2021-12-01T11:43:56.000Z</time>
      </trkpt>
      <trkpt lat="47.47909" lon="-3.11755">
        <ele>7.188603</ele>
        <time>2021-12-01T11:43:58.000Z</time>
      </trkpt>
      <trkpt lat="47.47905" lon="-3.11742">
        <ele>7.248249</ele>
        <time>2021-12-01T11:44:00.000Z</time>
      </trkpt>
      <trkpt lat="47.47887" lon="-3.11695">
        <ele>7.44545</ele>
        <time>2021-12-01T11:44:07.000Z</time>
      </trkpt>
      <trkpt lat="47.47881" lon="-3.11682">
        <ele>7.461836</ele>
        <time>2021-12-01T11:44:09.000Z</time>
      </trkpt>
      <trkpt lat="47.47856" lon="-3.11616">
        <ele>7.539892</ele>
        <time>2021-12-01T11:44:18.000Z</time>
      </trkpt>
      <trkpt lat="47.47837" lon="-3.11565">
        <ele>7.600807</ele>
        <time>2021-12-01T11:44:25.000Z</time>
      </trkpt>
      <trkpt lat="47.47821" lon="-3.11529">
        <ele>7.64571</ele>
        <time>2021-12-01T11:44:30.000Z</time>
      </trkpt>
      <trkpt lat="47.47788" lon="-3.11466">
        <ele>7.74199</ele>
        <time>2021-12-01T11:44:39.000Z</time>
      </trkpt>
      <trkpt lat="47.47757" lon="-3.11407">
        <ele>7.893503</ele>
        <time>2021-12-01T11:44:48.000Z</time>
      </trkpt>
      <trkpt lat="47.47726" lon="-3.1135">
        <ele>8.04213</ele>
        <time>2021-12-01T11:44:57.000Z</time>
      </trkpt>
      <trkpt lat="47.47696" lon="-3.11321">
        <ele>8.151872</ele>
        <time>2021-12-01T11:45:03.000Z</time>
      </trkpt>
      <trkpt lat="47.47676" lon="-3.11305">
        <ele>8.218811</ele>
        <time>2021-12-01T11:45:07.000Z</time>
      </trkpt>
      <trkpt lat="47.47636" lon="-3.11269">
        <ele>8.196815</ele>
        <time>2021-12-01T11:45:15.000Z</time>
      </trkpt>
      <trkpt lat="47.47627" lon="-3.1126">
        <ele>8.177367</ele>
        <time>2021-12-01T11:45:17.000Z</time>
      </trkpt>
      <trkpt lat="47.47618" lon="-3.11249">
        <ele>8.157499</ele>
        <time>2021-12-01T11:45:19.000Z</time>
      </trkpt>
      <trkpt lat="47.47605" lon="-3.11232">
        <ele>8.127028</ele>
        <time>2021-12-01T11:45:22.000Z</time>
      </trkpt>
      <trkpt lat="47.47565" lon="-3.11175">
        <ele>8.030455</ele>
        <time>2021-12-01T11:45:31.000Z</time>
      </trkpt>
      <trkpt lat="47.4756" lon="-3.11169">
        <ele>8.019373</ele>
        <time>2021-12-01T11:45:32.000Z</time>
      </trkpt>
      <trkpt lat="47.47519" lon="-3.11126">
        <ele>7.970642</ele>
        <time>2021-12-01T11:45:40.000Z</time>
      </trkpt>
      <trkpt lat="47.47513" lon="-3.11123">
        <ele>7.995826</ele>
        <time>2021-12-01T11:45:41.000Z</time>
      </trkpt>
      <trkpt lat="47.47477" lon="-3.11109">
        <ele>8.150596</ele>
        <time>2021-12-01T11:45:47.000Z</time>
      </trkpt>
      <trkpt lat="47.47429" lon="-3.1109">
        <ele>8.352299</ele>
        <time>2021-12-01T11:45:55.000Z</time>
      </trkpt>
      <trkpt lat="47.47401" lon="-3.11077">
        <ele>8.472388</ele>
        <time>2021-12-01T11:46:00.000Z</time>
      </trkpt>
      <trkpt lat="47.47391" lon="-3.11069">
        <ele>8.519373</ele>
        <time>2021-12-01T11:46:02.000Z</time>
      </trkpt>
      <trkpt lat="47.47378" lon="-3.11052">
        <ele>8.588087</ele>
        <time>2021-12-01T11:46:05.000Z</time>
      </trkpt>
      <trkpt lat="47.47367" lon="-3.11035">
        <ele>8.655889</ele>
        <time>2021-12-01T11:46:08.000Z</time>
      </trkpt>
      <trkpt lat="47.4734" lon="-3.10993">
        <ele>9.316211</ele>
        <time>2021-12-01T11:46:15.000Z</time>
      </trkpt>
      <trkpt lat="47.47328" lon="-3.10975">
        <ele>9.637509</ele>
        <time>2021-12-01T11:46:18.000Z</time>
      </trkpt>
      <trkpt lat="47.47298" lon="-3.10926">
        <ele>10.48473</ele>
        <time>2021-12-01T11:46:26.000Z</time>
      </trkpt>
      <trkpt lat="47.47291" lon="-3.10914">
        <ele>10.688769</ele>
        <time>2021-12-01T11:46:28.000Z</time>
      </trkpt>
      <trkpt lat="47.47286" lon="-3.10901">
        <ele>10.886018</ele>
        <time>2021-12-01T11:46:30.000Z</time>
      </trkpt>
      <trkpt lat="47.47285" lon="-3.10893">
        <ele>10.986949</ele>
        <time>2021-12-01T11:46:31.000Z</time>
      </trkpt>
      <trkpt lat="47.47285" lon="-3.10885">
        <ele>11.087428</ele>
        <time>2021-12-01T11:46:32.000Z</time>
      </trkpt>
      <trkpt lat="47.47287" lon="-3.1087">
        <ele>11.287993</ele>
        <time>2021-12-01T11:46:34.000Z</time>
      </trkpt>
      <trkpt lat="47.47288" lon="-3.10862">
        <ele>11.391042</ele>
        <time>2021-12-01T11:46:35.000Z</time>
      </trkpt>
      <trkpt lat="47.47291" lon="-3.10855">
        <ele>11.495887</ele>
        <time>2021-12-01T11:46:36.000Z</time>
      </trkpt>
      <trkpt lat="47.47297" lon="-3.10841">
        <ele>11.704945</ele>
        <time>2021-12-01T11:46:38.000Z</time>
      </trkpt>
      <trkpt lat="47.47304" lon="-3.10828">
        <ele>11.920087</ele>
        <time>2021-12-01T11:46:40.000Z</time>
      </trkpt>
      <trkpt lat="47.47314" lon="-3.10809">
        <ele>12.072124</ele>
        <time>2021-12-01T11:46:43.000Z</time>
      </trkpt>
      <trkpt lat="47.47343" lon="-3.10746">
        <ele>11.827075</ele>
        <time>2021-12-01T11:46:52.000Z</time>
      </trkpt>
      <trkpt lat="47.47369" lon="-3.10678">
        <ele>11.572234</ele>
        <time>2021-12-01T11:47:01.000Z</time>
      </trkpt>
      <trkpt lat="47.47394" lon="-3.10609">
        <ele>11.320315</ele>
        <time>2021-12-01T11:47:10.000Z</time>
      </trkpt>
      <trkpt lat="47.47399" lon="-3.10592">
        <ele>11.259078</ele>
        <time>2021-12-01T11:47:12.000Z</time>
      </trkpt>
      <trkpt lat="47.47411" lon="-3.10557">
        <ele>10.989646</ele>
        <time>2021-12-01T11:47:16.000Z</time>
      </trkpt>
      <trkpt lat="47.47414" lon="-3.10539">
        <ele>10.846995</ele>
        <time>2021-12-01T11:47:18.000Z</time>
      </trkpt>
      <trkpt lat="47.47417" lon="-3.10511">
        <ele>10.639724</ele>
        <time>2021-12-01T11:47:21.000Z</time>
      </trkpt>
      <trkpt lat="47.47418" lon="-3.10502">
        <ele>10.57107</ele>
        <time>2021-12-01T11:47:22.000Z</time>
      </trkpt>
      <trkpt lat="47.47417" lon="-3.10484">
        <ele>10.438142</ele>
        <time>2021-12-01T11:47:24.000Z</time>
      </trkpt>
      <trkpt lat="47.47415" lon="-3.10459">
        <ele>10.248691</ele>
        <time>2021-12-01T11:47:27.000Z</time>
      </trkpt>
      <trkpt lat="47.47413" lon="-3.10434">
        <ele>10.066761</ele>
        <time>2021-12-01T11:47:30.000Z</time>
      </trkpt>
      <trkpt lat="47.47398" lon="-3.10361">
        <ele>9.493708</ele>
        <time>2021-12-01T11:47:39.000Z</time>
      </trkpt>
      <trkpt lat="47.47381" lon="-3.10281">
        <ele>9.357619</ele>
        <time>2021-12-01T11:47:49.000Z</time>
      </trkpt>
      <trkpt lat="47.47379" lon="-3.10273">
        <ele>9.372881</ele>
        <time>2021-12-01T11:47:50.000Z</time>
      </trkpt>
      <trkpt lat="47.47377" lon="-3.10265">
        <ele>9.38868</ele>
        <time>2021-12-01T11:47:51.000Z</time>
      </trkpt>
      <trkpt lat="47.47368" lon="-3.10209">
        <ele>9.496102</ele>
        <time>2021-12-01T11:47:58.000Z</time>
      </trkpt>
      <trkpt lat="47.47356" lon="-3.10128">
        <ele>9.64852</ele>
        <time>2021-12-01T11:48:08.000Z</time>
      </trkpt>
      <trkpt lat="47.47345" lon="-3.10046">
        <ele>9.654416</ele>
        <time>2021-12-01T11:48:18.000Z</time>
      </trkpt>
      <trkpt lat="47.47343" lon="-3.09984">
        <ele>9.436211</ele>
        <time>2021-12-01T11:48:26.000Z</time>
      </trkpt>
      <trkpt lat="47.47344" lon="-3.09924">
        <ele>9.22783</ele>
        <time>2021-12-01T11:48:34.000Z</time>
      </trkpt>
      <trkpt lat="47.47349" lon="-3.09904">
        <ele>9.153683</ele>
        <time>2021-12-01T11:48:37.000Z</time>
      </trkpt>
      <trkpt lat="47.47349" lon="-3.09889">
        <ele>9.100407</ele>
        <time>2021-12-01T11:48:39.000Z</time>
      </trkpt>
      <trkpt lat="47.4735" lon="-3.09854">
        <ele>8.978836</ele>
        <time>2021-12-01T11:48:43.000Z</time>
      </trkpt>
      <trkpt lat="47.47351" lon="-3.09845">
        <ele>8.946424</ele>
        <time>2021-12-01T11:48:44.000Z</time>
      </trkpt>
      <trkpt lat="47.47352" lon="-3.09817">
        <ele>8.848638</ele>
        <time>2021-12-01T11:48:47.000Z</time>
      </trkpt>
      <trkpt lat="47.47353" lon="-3.09799">
        <ele>8.844982</ele>
        <time>2021-12-01T11:48:49.000Z</time>
      </trkpt>
      <trkpt lat="47.47359" lon="-3.09727">
        <ele>9.029618</ele>
        <time>2021-12-01T11:48:57.000Z</time>
      </trkpt>
      <trkpt lat="47.47366" lon="-3.09662">
        <ele>9.197616</ele>
        <time>2021-12-01T11:49:05.000Z</time>
      </trkpt>
      <trkpt lat="47.47373" lon="-3.09583">
        <ele>9.400021</ele>
        <time>2021-12-01T11:49:14.000Z</time>
      </trkpt>
      <trkpt lat="47.47376" lon="-3.09546">
        <ele>9.4932</ele>
        <time>2021-12-01T11:49:18.000Z</time>
      </trkpt>
      <trkpt lat="47.47378" lon="-3.09518">
        <ele>9.364215</ele>
        <time>2021-12-01T11:49:21.000Z</time>
      </trkpt>
      <trkpt lat="47.47384" lon="-3.09455">
        <ele>9.056333</ele>
        <time>2021-12-01T11:49:28.000Z</time>
      </trkpt>
      <trkpt lat="47.47388" lon="-3.09401">
        <ele>8.791991</ele>
        <time>2021-12-01T11:49:34.000Z</time>
      </trkpt>
      <trkpt lat="47.47392" lon="-3.09355">
        <ele>8.56847</ele>
        <time>2021-12-01T11:49:39.000Z</time>
      </trkpt>
      <trkpt lat="47.47395" lon="-3.09312">
        <ele>8.360317</ele>
        <time>2021-12-01T11:49:44.000Z</time>
      </trkpt>
      <trkpt lat="47.47393" lon="-3.09296">
        <ele>8.281076</ele>
        <time>2021-12-01T11:49:46.000Z</time>
      </trkpt>
      <trkpt lat="47.47387" lon="-3.09281">
        <ele>8.190865</ele>
        <time>2021-12-01T11:49:48.000Z</time>
      </trkpt>
      <trkpt lat="47.4738" lon="-3.09267">
        <ele>8.039213</ele>
        <time>2021-12-01T11:49:50.000Z</time>
      </trkpt>
      <trkpt lat="47.4736" lon="-3.0922">
        <ele>7.562655</ele>
        <time>2021-12-01T11:49:56.000Z</time>
      </trkpt>
      <trkpt lat="47.4735" lon="-3.09196">
        <ele>7.317847</ele>
        <time>2021-12-01T11:49:59.000Z</time>
      </trkpt>
      <trkpt lat="47.47329" lon="-3.09147">
        <ele>6.814224</ele>
        <time>2021-12-01T11:50:05.000Z</time>
      </trkpt>
      <trkpt lat="47.47314" lon="-3.09115">
        <ele>6.48232</ele>
        <time>2021-12-01T11:50:09.000Z</time>
      </trkpt>
      <trkpt lat="47.47292" lon="-3.09065">
        <ele>5.964431</ele>
        <time>2021-12-01T11:50:16.000Z</time>
      </trkpt>
      <trkpt lat="47.47285" lon="-3.09052">
        <ele>5.950592</ele>
        <time>2021-12-01T11:50:18.000Z</time>
      </trkpt>
      <trkpt lat="47.47269" lon="-3.09015">
        <ele>6.117391</ele>
        <time>2021-12-01T11:50:24.000Z</time>
      </trkpt>
      <trkpt lat="47.47258" lon="-3.08984">
        <ele>6.250048</ele>
        <time>2021-12-01T11:50:30.000Z</time>
      </trkpt>
      <trkpt lat="47.47247" lon="-3.08952">
        <ele>6.384808</ele>
        <time>2021-12-01T11:50:37.000Z</time>
      </trkpt>
      <trkpt lat="47.47238" lon="-3.08944">
        <ele>6.443327</ele>
        <time>2021-12-01T11:50:41.000Z</time>
      </trkpt>
      <trkpt lat="47.47237" lon="-3.08943">
        <ele>6.448998</ele>
        <time>2021-12-01T11:50:44.000Z</time>
      </trkpt>
      <trkpt lat="47.47239" lon="-3.08946">
        <ele>6.46159</ele>
        <time>2021-12-01T11:51:56.000Z</time>
      </trkpt>
      <trkpt lat="47.47248" lon="-3.08955">
        <ele>6.523994</ele>
        <time>2021-12-01T11:52:01.000Z</time>
      </trkpt>
      <trkpt lat="47.47262" lon="-3.08976">
        <ele>6.634558</ele>
        <time>2021-12-01T11:52:07.000Z</time>
      </trkpt>
      <trkpt lat="47.47282" lon="-3.08998">
        <ele>6.773972</ele>
        <time>2021-12-01T11:52:13.000Z</time>
      </trkpt>
      <trkpt lat="47.47312" lon="-3.09031">
        <ele>6.930145</ele>
        <time>2021-12-01T11:52:21.000Z</time>
      </trkpt>
      <trkpt lat="47.4735" lon="-3.09068">
        <ele>6.964229</ele>
        <time>2021-12-01T11:52:30.000Z</time>
      </trkpt>
      <trkpt lat="47.47389" lon="-3.091">
        <ele>6.998161</ele>
        <time>2021-12-01T11:52:38.000Z</time>
      </trkpt>
      <trkpt lat="47.47408" lon="-3.09113">
        <ele>7.013731</ele>
        <time>2021-12-01T11:52:42.000Z</time>
      </trkpt>
      <trkpt lat="47.47412" lon="-3.09116">
        <ele>7.017483</ele>
        <time>2021-12-01T11:52:43.000Z</time>
      </trkpt>
      <trkpt lat="47.47423" lon="-3.09119">
        <ele>7.025541</ele>
        <time>2021-12-01T11:52:45.000Z</time>
      </trkpt>
      <trkpt lat="47.47467" lon="-3.09121">
        <ele>7.071228</ele>
        <time>2021-12-01T11:52:53.000Z</time>
      </trkpt>
      <trkpt lat="47.47511" lon="-3.09118">
        <ele>7.332344</ele>
        <time>2021-12-01T11:53:01.000Z</time>
      </trkpt>
      <trkpt lat="47.47553" lon="-3.09125">
        <ele>7.58267</ele>
        <time>2021-12-01T11:53:09.000Z</time>
      </trkpt>
      <trkpt lat="47.47598" lon="-3.09149">
        <ele>7.866486</ele>
        <time>2021-12-01T11:53:18.000Z</time>
      </trkpt>
      <trkpt lat="47.47602" lon="-3.09151">
        <ele>7.897092</ele>
        <time>2021-12-01T11:53:19.000Z</time>
      </trkpt>
      <trkpt lat="47.47632" lon="-3.09167">
        <ele>8.083182</ele>
        <time>2021-12-01T11:53:25.000Z</time>
      </trkpt>
      <trkpt lat="47.47651" lon="-3.09178">
        <ele>8.154818</ele>
        <time>2021-12-01T11:53:29.000Z</time>
      </trkpt>
      <trkpt lat="47.47662" lon="-3.09189">
        <ele>8.183226</ele>
        <time>2021-12-01T11:53:32.000Z</time>
      </trkpt>
      <trkpt lat="47.47674" lon="-3.09205">
        <ele>8.216523</ele>
        <time>2021-12-01T11:53:37.000Z</time>
      </trkpt>
      <trkpt lat="47.47676" lon="-3.09208">
        <ele>8.221201</ele>
        <time>2021-12-01T11:53:38.000Z</time>
      </trkpt>
      <trkpt lat="47.47678" lon="-3.09211">
        <ele>8.228134</ele>
        <time>2021-12-01T11:53:40.000Z</time>
      </trkpt>
      <trkpt lat="47.47678" lon="-3.09212">
        <ele>8.228999</ele>
        <time>2021-12-01T11:53:42.000Z</time>
      </trkpt>
      <trkpt lat="47.4768" lon="-3.09215">
        <ele>8.234856</ele>
        <time>2021-12-01T11:54:41.000Z</time>
      </trkpt>
      <trkpt lat="47.47684" lon="-3.09223">
        <ele>8.248704</ele>
        <time>2021-12-01T11:54:43.000Z</time>
      </trkpt>
      <trkpt lat="47.47689" lon="-3.09233">
        <ele>8.26587</ele>
        <time>2021-12-01T11:54:45.000Z</time>
      </trkpt>
      <trkpt lat="47.47695" lon="-3.09244">
        <ele>8.286458</ele>
        <time>2021-12-01T11:54:47.000Z</time>
      </trkpt>
      <trkpt lat="47.47721" lon="-3.09282">
        <ele>8.360958</ele>
        <time>2021-12-01T11:54:54.000Z</time>
      </trkpt>
      <trkpt lat="47.47729" lon="-3.09291">
        <ele>8.382851</ele>
        <time>2021-12-01T11:54:56.000Z</time>
      </trkpt>
      <trkpt lat="47.47752" lon="-3.0931">
        <ele>8.436856</ele>
        <time>2021-12-01T11:55:01.000Z</time>
      </trkpt>
      <trkpt lat="47.47795" lon="-3.0934">
        <ele>8.555863</ele>
        <time>2021-12-01T11:55:10.000Z</time>
      </trkpt>
      <trkpt lat="47.47842" lon="-3.09359">
        <ele>8.715372</ele>
        <time>2021-12-01T11:55:19.000Z</time>
      </trkpt>
      <trkpt lat="47.47878" lon="-3.09365">
        <ele>8.83276</ele>
        <time>2021-12-01T11:55:26.000Z</time>
      </trkpt>
      <trkpt lat="47.47923" lon="-3.09358">
        <ele>8.981653</ele>
        <time>2021-12-01T11:55:35.000Z</time>
      </trkpt>
      <trkpt lat="47.47937" lon="-3.09354">
        <ele>9.02918</ele>
        <time>2021-12-01T11:55:38.000Z</time>
      </trkpt>
      <trkpt lat="47.47961" lon="-3.09345">
        <ele>9.077708</ele>
        <time>2021-12-01T11:55:43.000Z</time>
      </trkpt>
      <trkpt lat="47.48008" lon="-3.09336">
        <ele>8.993756</ele>
        <time>2021-12-01T11:55:52.000Z</time>
      </trkpt>
      <trkpt lat="47.4804" lon="-3.09344">
        <ele>8.93522</ele>
        <time>2021-12-01T11:55:58.000Z</time>
      </trkpt>
      <trkpt lat="47.48045" lon="-3.09347">
        <ele>8.925297</ele>
        <time>2021-12-01T11:55:59.000Z</time>
      </trkpt>
      <trkpt lat="47.4807" lon="-3.09368">
        <ele>8.874829</ele>
        <time>2021-12-01T11:56:04.000Z</time>
      </trkpt>
      <trkpt lat="47.48097" lon="-3.09397">
        <ele>8.8148</ele>
        <time>2021-12-01T11:56:10.000Z</time>
      </trkpt>
      <trkpt lat="47.48106" lon="-3.09407">
        <ele>8.795362</ele>
        <time>2021-12-01T11:56:12.000Z</time>
      </trkpt>
      <trkpt lat="47.48151" lon="-3.09456">
        <ele>9.454268</ele>
        <time>2021-12-01T11:56:22.000Z</time>
      </trkpt>
      <trkpt lat="47.48155" lon="-3.0946">
        <ele>9.538724</ele>
        <time>2021-12-01T11:56:23.000Z</time>
      </trkpt>
      <trkpt lat="47.48173" lon="-3.09484">
        <ele>9.937665</ele>
        <time>2021-12-01T11:56:28.000Z</time>
      </trkpt>
      <trkpt lat="47.48178" lon="-3.09494">
        <ele>10.089763</ele>
        <time>2021-12-01T11:56:30.000Z</time>
      </trkpt>
      <trkpt lat="47.48195" lon="-3.09532">
        <ele>10.602774</ele>
        <time>2021-12-01T11:56:37.000Z</time>
      </trkpt>
      <trkpt lat="47.48205" lon="-3.09552">
        <ele>10.883278</ele>
        <time>2021-12-01T11:56:41.000Z</time>
      </trkpt>
      <trkpt lat="47.48208" lon="-3.09563">
        <ele>11.020579</ele>
        <time>2021-12-01T11:56:43.000Z</time>
      </trkpt>
      <trkpt lat="47.48211" lon="-3.09568">
        <ele>11.090365</ele>
        <time>2021-12-01T11:56:44.000Z</time>
      </trkpt>
      <trkpt lat="47.48221" lon="-3.09588">
        <ele>11.37296</ele>
        <time>2021-12-01T11:56:48.000Z</time>
      </trkpt>
      <trkpt lat="47.48234" lon="-3.09613">
        <ele>11.73808</ele>
        <time>2021-12-01T11:56:53.000Z</time>
      </trkpt>
      <trkpt lat="47.48237" lon="-3.09619">
        <ele>11.773302</ele>
        <time>2021-12-01T11:56:54.000Z</time>
      </trkpt>
      <trkpt lat="47.48264" lon="-3.09672">
        <ele>11.283804</ele>
        <time>2021-12-01T11:57:03.000Z</time>
      </trkpt>
      <trkpt lat="47.48286" lon="-3.09724">
        <ele>10.834223</ele>
        <time>2021-12-01T11:57:11.000Z</time>
      </trkpt>
      <trkpt lat="47.48291" lon="-3.0974">
        <ele>10.710565</ele>
        <time>2021-12-01T11:57:13.000Z</time>
      </trkpt>
      <trkpt lat="47.48298" lon="-3.09763">
        <ele>10.523965</ele>
        <time>2021-12-01T11:57:16.000Z</time>
      </trkpt>
      <trkpt lat="47.4831" lon="-3.09794">
        <ele>10.264044</ele>
        <time>2021-12-01T11:57:20.000Z</time>
      </trkpt>
      <trkpt lat="47.48331" lon="-3.09828">
        <ele>9.928426</ele>
        <time>2021-12-01T11:57:25.000Z</time>
      </trkpt>
      <trkpt lat="47.48336" lon="-3.09834">
        <ele>9.863321</ele>
        <time>2021-12-01T11:57:26.000Z</time>
      </trkpt>
      <trkpt lat="47.4837" lon="-3.09876">
        <ele>9.615749</ele>
        <time>2021-12-01T11:57:34.000Z</time>
      </trkpt>
      <trkpt lat="47.48384" lon="-3.09891">
        <ele>9.523658</ele>
        <time>2021-12-01T11:57:37.000Z</time>
      </trkpt>
      <trkpt lat="47.484" lon="-3.09907">
        <ele>9.417355</ele>
        <time>2021-12-01T11:57:41.000Z</time>
      </trkpt>
      <trkpt lat="47.48431" lon="-3.09925">
        <ele>9.243367</ele>
        <time>2021-12-01T11:57:47.000Z</time>
      </trkpt>
      <trkpt lat="47.48474" lon="-3.09943">
        <ele>9.006173</ele>
        <time>2021-12-01T11:57:56.000Z</time>
      </trkpt>
      <trkpt lat="47.48504" lon="-3.09956">
        <ele>8.794036</ele>
        <time>2021-12-01T11:58:02.000Z</time>
      </trkpt>
      <trkpt lat="47.48508" lon="-3.0996">
        <ele>8.740999</ele>
        <time>2021-12-01T11:58:03.000Z</time>
      </trkpt>
      <trkpt lat="47.48511" lon="-3.09966">
        <ele>8.688644</ele>
        <time>2021-12-01T11:58:04.000Z</time>
      </trkpt>
      <trkpt lat="47.48515" lon="-3.09978">
        <ele>8.589835</ele>
        <time>2021-12-01T11:58:06.000Z</time>
      </trkpt>
      <trkpt lat="47.48523" lon="-3.10007">
        <ele>8.366159</ele>
        <time>2021-12-01T11:58:11.000Z</time>
      </trkpt>
      <trkpt lat="47.48524" lon="-3.10013">
        <ele>8.324597</ele>
        <time>2021-12-01T11:58:12.000Z</time>
      </trkpt>
      <trkpt lat="47.48525" lon="-3.10024">
        <ele>8.24269</ele>
        <time>2021-12-01T11:58:14.000Z</time>
      </trkpt>
      <trkpt lat="47.48524" lon="-3.10035">
        <ele>8.16149</ele>
        <time>2021-12-01T11:58:16.000Z</time>
      </trkpt>
      <trkpt lat="47.4851" lon="-3.10056">
        <ele>7.948255</ele>
        <time>2021-12-01T11:58:21.000Z</time>
      </trkpt>
      <trkpt lat="47.48497" lon="-3.10075">
        <ele>7.754294</ele>
        <time>2021-12-01T11:58:25.000Z</time>
      </trkpt>
      <trkpt lat="47.48486" lon="-3.10087">
        <ele>7.614349</ele>
        <time>2021-12-01T11:58:28.000Z</time>
      </trkpt>
      <trkpt lat="47.48483" lon="-3.1009">
        <ele>7.573712</ele>
        <time>2021-12-01T11:58:29.000Z</time>
      </trkpt>
      <trkpt lat="47.48475" lon="-3.10094">
        <ele>7.477452</ele>
        <time>2021-12-01T11:58:32.000Z</time>
      </trkpt>
      <trkpt lat="47.4847" lon="-3.10097">
        <ele>7.420038</ele>
        <time>2021-12-01T11:58:35.000Z</time>
      </trkpt>
      <trkpt lat="47.48468" lon="-3.10099">
        <ele>7.396198</ele>
        <time>2021-12-01T11:58:36.000Z</time>
      </trkpt>
      <trkpt lat="47.4846" lon="-3.10116">
        <ele>7.247837</ele>
        <time>2021-12-01T11:58:42.000Z</time>
      </trkpt>
      <trkpt lat="47.48458" lon="-3.10128">
        <ele>7.160087</ele>
        <time>2021-12-01T11:58:47.000Z</time>
      </trkpt>
      <trkpt lat="47.48458" lon="-3.10129">
        <ele>7.15702</ele>
        <time>2021-12-01T11:58:48.000Z</time>
      </trkpt>
      <trkpt lat="47.48459" lon="-3.10131">
        <ele>7.140823</ele>
        <time>2021-12-01T11:58:50.000Z</time>
      </trkpt>
      <trkpt lat="47.48459" lon="-3.10133">
        <ele>7.121291</ele>
        <time>2021-12-01T11:58:52.000Z</time>
      </trkpt>
      <trkpt lat="47.48457" lon="-3.10134">
        <ele>7.105048</ele>
        <time>2021-12-01T11:58:54.000Z</time>
      </trkpt>
      <trkpt lat="47.48455" lon="-3.10136">
        <ele>7.080645</ele>
        <time>2021-12-01T11:58:57.000Z</time>
      </trkpt>
      <trkpt lat="47.48454" lon="-3.10139">
        <ele>7.050805</ele>
        <time>2021-12-01T11:58:59.000Z</time>
      </trkpt>
      <trkpt lat="47.48454" lon="-3.10143">
        <ele>7.026979</ele>
        <time>2021-12-01T11:59:00.000Z</time>
      </trkpt>
      <trkpt lat="47.48455" lon="-3.10152">
        <ele>6.98939</ele>
        <time>2021-12-01T11:59:02.000Z</time>
      </trkpt>
      <trkpt lat="47.48461" lon="-3.10159">
        <ele>7.117298</ele>
        <time>2021-12-01T11:59:04.000Z</time>
      </trkpt>
      <trkpt lat="47.48476" lon="-3.1017">
        <ele>7.394909</ele>
        <time>2021-12-01T11:59:08.000Z</time>
      </trkpt>
      <trkpt lat="47.48487" lon="-3.1018">
        <ele>7.607694</ele>
        <time>2021-12-01T11:59:11.000Z</time>
      </trkpt>
      <trkpt lat="47.48489" lon="-3.10184">
        <ele>7.677065</ele>
        <time>2021-12-01T11:59:12.000Z</time>
      </trkpt>
      <trkpt lat="47.48491" lon="-3.10189">
        <ele>7.736465</ele>
        <time>2021-12-01T11:59:13.000Z</time>
      </trkpt>
      <trkpt lat="47.48491" lon="-3.10197">
        <ele>7.831511</ele>
        <time>2021-12-01T11:59:15.000Z</time>
      </trkpt>
      <trkpt lat="47.48489" lon="-3.10207">
        <ele>7.943825</ele>
        <time>2021-12-01T11:59:19.000Z</time>
      </trkpt>
      <trkpt lat="47.48489" lon="-3.10208">
        <ele>7.959626</ele>
        <time>2021-12-01T11:59:23.000Z</time>
      </trkpt>
      <trkpt lat="47.48486" lon="-3.10214">
        <ele>8.034857</ele>
        <time>2021-12-01T11:59:29.000Z</time>
      </trkpt>
      <trkpt lat="47.48482" lon="-3.10233">
        <ele>8.268522</ele>
        <time>2021-12-01T11:59:34.000Z</time>
      </trkpt>
      <trkpt lat="47.48481" lon="-3.10238">
        <ele>8.324662</ele>
        <time>2021-12-01T11:59:35.000Z</time>
      </trkpt>
      <trkpt lat="47.48477" lon="-3.10262">
        <ele>8.602978</ele>
        <time>2021-12-01T11:59:40.000Z</time>
      </trkpt>
      <trkpt lat="47.48476" lon="-3.10267">
        <ele>8.659876</ele>
        <time>2021-12-01T11:59:41.000Z</time>
      </trkpt>
      <trkpt lat="47.48473" lon="-3.10287">
        <ele>8.889661</ele>
        <time>2021-12-01T11:59:45.000Z</time>
      </trkpt>
      <trkpt lat="47.48468" lon="-3.10313">
        <ele>9.201506</ele>
        <time>2021-12-01T11:59:50.000Z</time>
      </trkpt>
      <trkpt lat="47.48464" lon="-3.10332">
        <ele>9.419886</ele>
        <time>2021-12-01T11:59:53.000Z</time>
      </trkpt>
      <trkpt lat="47.4846" lon="-3.10351">
        <ele>9.648236</ele>
        <time>2021-12-01T11:59:56.000Z</time>
      </trkpt>
      <trkpt lat="47.48458" lon="-3.10364">
        <ele>9.800199</ele>
        <time>2021-12-01T11:59:58.000Z</time>
      </trkpt>
      <trkpt lat="47.48456" lon="-3.10384">
        <ele>9.991302</ele>
        <time>2021-12-01T12:00:01.000Z</time>
      </trkpt>
      <trkpt lat="47.48456" lon="-3.10391">
        <ele>10.015191</ele>
        <time>2021-12-01T12:00:02.000Z</time>
      </trkpt>
      <trkpt lat="47.48455" lon="-3.10418">
        <ele>10.112684</ele>
        <time>2021-12-01T12:00:06.000Z</time>
      </trkpt>
      <trkpt lat="47.48458" lon="-3.10431">
        <ele>10.161398</ele>
        <time>2021-12-01T12:00:08.000Z</time>
      </trkpt>
      <trkpt lat="47.48459" lon="-3.10438">
        <ele>10.186527</ele>
        <time>2021-12-01T12:00:09.000Z</time>
      </trkpt>
      <trkpt lat="47.48464" lon="-3.10457">
        <ele>10.260252</ele>
        <time>2021-12-01T12:00:12.000Z</time>
      </trkpt>
      <trkpt lat="47.4847" lon="-3.10482">
        <ele>10.35384</ele>
        <time>2021-12-01T12:00:16.000Z</time>
      </trkpt>
      <trkpt lat="47.48473" lon="-3.10514">
        <ele>10.468497</ele>
        <time>2021-12-01T12:00:21.000Z</time>
      </trkpt>
      <trkpt lat="47.48472" lon="-3.10521">
        <ele>10.492125</ele>
        <time>2021-12-01T12:00:22.000Z</time>
      </trkpt>
      <trkpt lat="47.48471" lon="-3.10527">
        <ele>10.515619</ele>
        <time>2021-12-01T12:00:23.000Z</time>
      </trkpt>
      <trkpt lat="47.48464" lon="-3.1055">
        <ele>10.603419</ele>
        <time>2021-12-01T12:00:27.000Z</time>
      </trkpt>
      <trkpt lat="47.48445" lon="-3.10603">
        <ele>10.819312</ele>
        <time>2021-12-01T12:00:36.000Z</time>
      </trkpt>
      <trkpt lat="47.48434" lon="-3.1065">
        <ele>10.864609</ele>
        <time>2021-12-01T12:00:43.000Z</time>
      </trkpt>
      <trkpt lat="47.48434" lon="-3.10657">
        <ele>10.842361</ele>
        <time>2021-12-01T12:00:44.000Z</time>
      </trkpt>
      <trkpt lat="47.48434" lon="-3.10694">
        <ele>10.731914</ele>
        <time>2021-12-01T12:00:49.000Z</time>
      </trkpt>
      <trkpt lat="47.48439" lon="-3.10736">
        <ele>10.604102</ele>
        <time>2021-12-01T12:00:55.000Z</time>
      </trkpt>
      <trkpt lat="47.48441" lon="-3.10743">
        <ele>10.581867</ele>
        <time>2021-12-01T12:00:56.000Z</time>
      </trkpt>
      <trkpt lat="47.48444" lon="-3.10749">
        <ele>10.558617</ele>
        <time>2021-12-01T12:00:57.000Z</time>
      </trkpt>
      <trkpt lat="47.48451" lon="-3.1076">
        <ele>10.51449</ele>
        <time>2021-12-01T12:00:59.000Z</time>
      </trkpt>
      <trkpt lat="47.48483" lon="-3.10794">
        <ele>10.3421</ele>
        <time>2021-12-01T12:01:07.000Z</time>
      </trkpt>
      <trkpt lat="47.48522" lon="-3.10827">
        <ele>10.143216</ele>
        <time>2021-12-01T12:01:16.000Z</time>
      </trkpt>
      <trkpt lat="47.4856" lon="-3.10856">
        <ele>10.8327</ele>
        <time>2021-12-01T12:01:25.000Z</time>
      </trkpt>
      <trkpt lat="47.48577" lon="-3.10869">
        <ele>11.170108</ele>
        <time>2021-12-01T12:01:29.000Z</time>
      </trkpt>
      <trkpt lat="47.48581" lon="-3.10872">
        <ele>11.248099</ele>
        <time>2021-12-01T12:01:30.000Z</time>
      </trkpt>
      <trkpt lat="47.48595" lon="-3.10885">
        <ele>11.546284</ele>
        <time>2021-12-01T12:01:34.000Z</time>
      </trkpt>
      <trkpt lat="47.48598" lon="-3.10889">
        <ele>11.61778</ele>
        <time>2021-12-01T12:01:35.000Z</time>
      </trkpt>
      <trkpt lat="47.48606" lon="-3.10892">
        <ele>11.759691</ele>
        <time>2021-12-01T12:01:37.000Z</time>
      </trkpt>
      <trkpt lat="47.4861" lon="-3.10892">
        <ele>11.830705</ele>
        <time>2021-12-01T12:01:38.000Z</time>
      </trkpt>
      <trkpt lat="47.48614" lon="-3.10893">
        <ele>11.903371</ele>
        <time>2021-12-01T12:01:39.000Z</time>
      </trkpt>
      <trkpt lat="47.48618" lon="-3.10898">
        <ele>11.988984</ele>
        <time>2021-12-01T12:01:40.000Z</time>
      </trkpt>
      <trkpt lat="47.4862" lon="-3.10902">
        <ele>12.0508</ele>
        <time>2021-12-01T12:01:41.000Z</time>
      </trkpt>
      <trkpt lat="47.48624" lon="-3.10914">
        <ele>12.211036</ele>
        <time>2021-12-01T12:01:43.000Z</time>
      </trkpt>
      <trkpt lat="47.48634" lon="-3.10927">
        <ele>12.449112</ele>
        <time>2021-12-01T12:01:46.000Z</time>
      </trkpt>
      <trkpt lat="47.48664" lon="-3.10969">
        <ele>13.173749</ele>
        <time>2021-12-01T12:01:55.000Z</time>
      </trkpt>
      <trkpt lat="47.48666" lon="-3.10974">
        <ele>13.251611</ele>
        <time>2021-12-01T12:01:56.000Z</time>
      </trkpt>
      <trkpt lat="47.48677" lon="-3.11001">
        <ele>13.564374</ele>
        <time>2021-12-01T12:02:01.000Z</time>
      </trkpt>
      <trkpt lat="47.48682" lon="-3.11018">
        <ele>13.734234</ele>
        <time>2021-12-01T12:02:04.000Z</time>
      </trkpt>
      <trkpt lat="47.48685" lon="-3.11042">
        <ele>13.95879</ele>
        <time>2021-12-01T12:02:08.000Z</time>
      </trkpt>
      <trkpt lat="47.48689" lon="-3.11059">
        <ele>14.125866</ele>
        <time>2021-12-01T12:02:11.000Z</time>
      </trkpt>
      <trkpt lat="47.48691" lon="-3.11064">
        <ele>14.18239</ele>
        <time>2021-12-01T12:02:12.000Z</time>
      </trkpt>
      <trkpt lat="47.48696" lon="-3.11072">
        <ele>14.289152</ele>
        <time>2021-12-01T12:02:14.000Z</time>
      </trkpt>
      <trkpt lat="47.4872" lon="-3.11105">
        <ele>14.73748</ele>
        <time>2021-12-01T12:02:22.000Z</time>
      </trkpt>
      <trkpt lat="47.4873" lon="-3.11118">
        <ele>14.9116</ele>
        <time>2021-12-01T12:02:25.000Z</time>
      </trkpt>
      <trkpt lat="47.48745" lon="-3.11131">
        <ele>15.162129</ele>
        <time>2021-12-01T12:02:29.000Z</time>
      </trkpt>
      <trkpt lat="47.4875" lon="-3.11134">
        <ele>15.229012</ele>
        <time>2021-12-01T12:02:30.000Z</time>
      </trkpt>
      <trkpt lat="47.48772" lon="-3.11151">
        <ele>15.580346</ele>
        <time>2021-12-01T12:02:35.000Z</time>
      </trkpt>
      <trkpt lat="47.48805" lon="-3.11177">
        <ele>15.817916</ele>
        <time>2021-12-01T12:02:42.000Z</time>
      </trkpt>
      <trkpt lat="47.48814" lon="-3.11185">
        <ele>15.824717</ele>
        <time>2021-12-01T12:02:44.000Z</time>
      </trkpt>
      <trkpt lat="47.4882" lon="-3.11194">
        <ele>15.830695</ele>
        <time>2021-12-01T12:02:46.000Z</time>
      </trkpt>
      <trkpt lat="47.48824" lon="-3.11197">
        <ele>15.833596</ele>
        <time>2021-12-01T12:02:47.000Z</time>
      </trkpt>
      <trkpt lat="47.48832" lon="-3.11202">
        <ele>15.839575</ele>
        <time>2021-12-01T12:02:49.000Z</time>
      </trkpt>
      <trkpt lat="47.48837" lon="-3.11213">
        <ele>15.845609</ele>
        <time>2021-12-01T12:02:51.000Z</time>
      </trkpt>
      <trkpt lat="47.4884" lon="-3.11227">
        <ele>15.852367</ele>
        <time>2021-12-01T12:02:53.000Z</time>
      </trkpt>
      <trkpt lat="47.48846" lon="-3.11239">
        <ele>15.859206</ele>
        <time>2021-12-01T12:02:55.000Z</time>
      </trkpt>
      <trkpt lat="47.48849" lon="-3.11245">
        <ele>15.862701</ele>
        <time>2021-12-01T12:02:56.000Z</time>
      </trkpt>
      <trkpt lat="47.48882" lon="-3.11299">
        <ele>15.896399</ele>
        <time>2021-12-01T12:03:06.000Z</time>
      </trkpt>
      <trkpt lat="47.48919" lon="-3.11349">
        <ele>15.984203</ele>
        <time>2021-12-01T12:03:17.000Z</time>
      </trkpt>
      <trkpt lat="47.48932" lon="-3.11365">
        <ele>16.145923</ele>
        <time>2021-12-01T12:03:21.000Z</time>
      </trkpt>
      <trkpt lat="47.4895" lon="-3.11395">
        <ele>16.40311</ele>
        <time>2021-12-01T12:03:27.000Z</time>
      </trkpt>
      <trkpt lat="47.48962" lon="-3.11441">
        <ele>16.723868</ele>
        <time>2021-12-01T12:03:34.000Z</time>
      </trkpt>
      <trkpt lat="47.48965" lon="-3.11454">
        <ele>16.81407</ele>
        <time>2021-12-01T12:03:36.000Z</time>
      </trkpt>
      <trkpt lat="47.48966" lon="-3.11461">
        <ele>16.858184</ele>
        <time>2021-12-01T12:03:37.000Z</time>
      </trkpt>
      <trkpt lat="47.48971" lon="-3.1148">
        <ele>16.991495</ele>
        <time>2021-12-01T12:03:40.000Z</time>
      </trkpt>
      <trkpt lat="47.48978" lon="-3.11506">
        <ele>17.168007</ele>
        <time>2021-12-01T12:03:44.000Z</time>
      </trkpt>
      <trkpt lat="47.48982" lon="-3.11525">
        <ele>17.299785</ele>
        <time>2021-12-01T12:03:47.000Z</time>
      </trkpt>
      <trkpt lat="47.49005" lon="-3.11579">
        <ele>17.641884</ele>
        <time>2021-12-01T12:03:56.000Z</time>
      </trkpt>
      <trkpt lat="47.49008" lon="-3.11585">
        <ele>17.640224</ele>
        <time>2021-12-01T12:03:57.000Z</time>
      </trkpt>
      <trkpt lat="47.49017" lon="-3.11595">
        <ele>17.636436</ele>
        <time>2021-12-01T12:03:59.000Z</time>
      </trkpt>
      <trkpt lat="47.49025" lon="-3.11601">
        <ele>17.633324</ele>
        <time>2021-12-01T12:04:01.000Z</time>
      </trkpt>
      <trkpt lat="47.49065" lon="-3.11615">
        <ele>17.619156</ele>
        <time>2021-12-01T12:04:09.000Z</time>
      </trkpt>
      <trkpt lat="47.49091" lon="-3.11621">
        <ele>17.610273</ele>
        <time>2021-12-01T12:04:14.000Z</time>
      </trkpt>
      <trkpt lat="47.49105" lon="-3.11629">
        <ele>17.605154</ele>
        <time>2021-12-01T12:04:17.000Z</time>
      </trkpt>
      <trkpt lat="47.49144" lon="-3.11655">
        <ele>17.590318</ele>
        <time>2021-12-01T12:04:26.000Z</time>
      </trkpt>
      <trkpt lat="47.49166" lon="-3.1168">
        <ele>17.593463</ele>
        <time>2021-12-01T12:04:32.000Z</time>
      </trkpt>
      <trkpt lat="47.49168" lon="-3.11685">
        <ele>17.602959</ele>
        <time>2021-12-01T12:04:33.000Z</time>
      </trkpt>
      <trkpt lat="47.49181" lon="-3.11712">
        <ele>17.652383</ele>
        <time>2021-12-01T12:04:38.000Z</time>
      </trkpt>
      <trkpt lat="47.4919" lon="-3.11737">
        <ele>17.693652</ele>
        <time>2021-12-01T12:04:42.000Z</time>
      </trkpt>
      <trkpt lat="47.49202" lon="-3.11789">
        <ele>17.775751</ele>
        <time>2021-12-01T12:04:50.000Z</time>
      </trkpt>
      <trkpt lat="47.49204" lon="-3.11795">
        <ele>17.785169</ele>
        <time>2021-12-01T12:04:51.000Z</time>
      </trkpt>
      <trkpt lat="47.49207" lon="-3.11805">
        <ele>17.80168</ele>
        <time>2021-12-01T12:04:53.000Z</time>
      </trkpt>
      <trkpt lat="47.49212" lon="-3.11815">
        <ele>17.819663</ele>
        <time>2021-12-01T12:04:55.000Z</time>
      </trkpt>
      <trkpt lat="47.49229" lon="-3.11828">
        <ele>17.8609</ele>
        <time>2021-12-01T12:04:59.000Z</time>
      </trkpt>
      <trkpt lat="47.49233" lon="-3.11831">
        <ele>17.8716</ele>
        <time>2021-12-01T12:05:00.000Z</time>
      </trkpt>
      <trkpt lat="47.49261" lon="-3.11845">
        <ele>17.936078</ele>
        <time>2021-12-01T12:05:06.000Z</time>
      </trkpt>
      <trkpt lat="47.49316" lon="-3.11861">
        <ele>18.099378</ele>
        <time>2021-12-01T12:05:17.000Z</time>
      </trkpt>
      <trkpt lat="47.49332" lon="-3.11865">
        <ele>18.149798</ele>
        <time>2021-12-01T12:05:20.000Z</time>
      </trkpt>
      <trkpt lat="47.49358" lon="-3.11869">
        <ele>18.235725</ele>
        <time>2021-12-01T12:05:25.000Z</time>
      </trkpt>
      <trkpt lat="47.49363" lon="-3.11871">
        <ele>18.252164</ele>
        <time>2021-12-01T12:05:26.000Z</time>
      </trkpt>
      <trkpt lat="47.494" lon="-3.11892">
        <ele>18.379374</ele>
        <time>2021-12-01T12:05:34.000Z</time>
      </trkpt>
      <trkpt lat="47.49412" lon="-3.11901">
        <ele>18.421854</ele>
        <time>2021-12-01T12:05:37.000Z</time>
      </trkpt>
      <trkpt lat="47.4942" lon="-3.11904">
        <ele>18.449738</ele>
        <time>2021-12-01T12:05:39.000Z</time>
      </trkpt>
      <trkpt lat="47.49437" lon="-3.11903">
        <ele>18.505204</ele>
        <time>2021-12-01T12:05:43.000Z</time>
      </trkpt>
      <trkpt lat="47.49447" lon="-3.119">
        <ele>18.53587</ele>
        <time>2021-12-01T12:05:45.000Z</time>
      </trkpt>
      <trkpt lat="47.49469" lon="-3.11903">
        <ele>18.009382</ele>
        <time>2021-12-01T12:05:49.000Z</time>
      </trkpt>
      <trkpt lat="47.49474" lon="-3.11904">
        <ele>17.80579</ele>
        <time>2021-12-01T12:05:50.000Z</time>
      </trkpt>
      <trkpt lat="47.49495" lon="-3.11903">
        <ele>17.039305</ele>
        <time>2021-12-01T12:05:54.000Z</time>
      </trkpt>
      <trkpt lat="47.495" lon="-3.11902">
        <ele>16.853882</ele>
        <time>2021-12-01T12:05:55.000Z</time>
      </trkpt>
      <trkpt lat="47.49523" lon="-3.11893">
        <ele>16.015781</ele>
        <time>2021-12-01T12:05:59.000Z</time>
      </trkpt>
      <trkpt lat="47.49551" lon="-3.11881">
        <ele>14.95457</ele>
        <time>2021-12-01T12:06:04.000Z</time>
      </trkpt>
      <trkpt lat="47.49563" lon="-3.11876">
        <ele>14.505415</ele>
        <time>2021-12-01T12:06:06.000Z</time>
      </trkpt>
      <trkpt lat="47.49582" lon="-3.11867">
        <ele>13.774158</ele>
        <time>2021-12-01T12:06:09.000Z</time>
      </trkpt>
      <trkpt lat="47.49595" lon="-3.1186">
        <ele>13.271594</ele>
        <time>2021-12-01T12:06:11.000Z</time>
      </trkpt>
      <trkpt lat="47.49602" lon="-3.11857">
        <ele>13.024768</ele>
        <time>2021-12-01T12:06:12.000Z</time>
      </trkpt>
      <trkpt lat="47.49626" lon="-3.11842">
        <ele>12.085535</ele>
        <time>2021-12-01T12:06:16.000Z</time>
      </trkpt>
      <trkpt lat="47.49632" lon="-3.11839">
        <ele>11.926356</ele>
        <time>2021-12-01T12:06:17.000Z</time>
      </trkpt>
      <trkpt lat="47.49648" lon="-3.11829">
        <ele>11.501907</ele>
        <time>2021-12-01T12:06:20.000Z</time>
      </trkpt>
      <trkpt lat="47.49663" lon="-3.11819">
        <ele>11.110229</ele>
        <time>2021-12-01T12:06:23.000Z</time>
      </trkpt>
      <trkpt lat="47.49668" lon="-3.11816">
        <ele>10.98234</ele>
        <time>2021-12-01T12:06:24.000Z</time>
      </trkpt>
      <trkpt lat="47.49687" lon="-3.11806">
        <ele>10.499414</ele>
        <time>2021-12-01T12:06:28.000Z</time>
      </trkpt>
      <trkpt lat="47.49694" lon="-3.11802">
        <ele>10.302563</ele>
        <time>2021-12-01T12:06:30.000Z</time>
      </trkpt>
      <trkpt lat="47.49702" lon="-3.11801">
        <ele>10.117159</ele>
        <time>2021-12-01T12:06:32.000Z</time>
      </trkpt>
      <trkpt lat="47.49709" lon="-3.11805">
        <ele>9.939588</ele>
        <time>2021-12-01T12:06:34.000Z</time>
      </trkpt>
      <trkpt lat="47.49715" lon="-3.1181">
        <ele>9.770823</ele>
        <time>2021-12-01T12:06:36.000Z</time>
      </trkpt>
      <trkpt lat="47.49726" lon="-3.11819">
        <ele>9.465867</ele>
        <time>2021-12-01T12:06:39.000Z</time>
      </trkpt>
      <trkpt lat="47.49742" lon="-3.11838">
        <ele>8.982392</ele>
        <time>2021-12-01T12:06:44.000Z</time>
      </trkpt>
      <trkpt lat="47.49757" lon="-3.11841">
        <ele>8.607845</ele>
        <time>2021-12-01T12:06:48.000Z</time>
      </trkpt>
      <trkpt lat="47.49781" lon="-3.11851">
        <ele>8.010052</ele>
        <time>2021-12-01T12:06:54.000Z</time>
      </trkpt>
      <trkpt lat="47.49791" lon="-3.11856">
        <ele>7.77082</ele>
        <time>2021-12-01T12:06:56.000Z</time>
      </trkpt>
      <trkpt lat="47.49804" lon="-3.11863">
        <ele>7.776346</ele>
        <time>2021-12-01T12:06:59.000Z</time>
      </trkpt>
      <trkpt lat="47.49813" lon="-3.11868">
        <ele>7.807936</ele>
        <time>2021-12-01T12:07:01.000Z</time>
      </trkpt>
      <trkpt lat="47.49821" lon="-3.11872">
        <ele>7.838658</ele>
        <time>2021-12-01T12:07:03.000Z</time>
      </trkpt>
      <trkpt lat="47.49859" lon="-3.11895">
        <ele>7.976321</ele>
        <time>2021-12-01T12:07:11.000Z</time>
      </trkpt>
      <trkpt lat="47.49896" lon="-3.11925">
        <ele>8.116862</ele>
        <time>2021-12-01T12:07:18.000Z</time>
      </trkpt>
      <trkpt lat="47.49902" lon="-3.11929">
        <ele>8.136822</ele>
        <time>2021-12-01T12:07:19.000Z</time>
      </trkpt>
      <trkpt lat="47.49922" lon="-3.11945">
        <ele>8.213861</ele>
        <time>2021-12-01T12:07:23.000Z</time>
      </trkpt>
      <trkpt lat="47.49935" lon="-3.11954">
        <ele>8.263849</ele>
        <time>2021-12-01T12:07:26.000Z</time>
      </trkpt>
      <trkpt lat="47.4996" lon="-3.11971">
        <ele>8.341819</ele>
        <time>2021-12-01T12:07:32.000Z</time>
      </trkpt>
      <trkpt lat="47.49993" lon="-3.11991">
        <ele>8.375671</ele>
        <time>2021-12-01T12:07:40.000Z</time>
      </trkpt>
      <trkpt lat="47.49998" lon="-3.11992">
        <ele>8.380014</ele>
        <time>2021-12-01T12:07:41.000Z</time>
      </trkpt>
      <trkpt lat="47.50011" lon="-3.11996">
        <ele>8.392881</ele>
        <time>2021-12-01T12:07:44.000Z</time>
      </trkpt>
      <trkpt lat="47.50015" lon="-3.11998">
        <ele>8.397237</ele>
        <time>2021-12-01T12:07:45.000Z</time>
      </trkpt>
      <trkpt lat="47.5003" lon="-3.11999">
        <ele>8.41129</ele>
        <time>2021-12-01T12:07:48.000Z</time>
      </trkpt>
      <trkpt lat="47.50072" lon="-3.11996">
        <ele>8.451529</ele>
        <time>2021-12-01T12:07:56.000Z</time>
      </trkpt>
      <trkpt lat="47.50101" lon="-3.11999">
        <ele>8.479196</ele>
        <time>2021-12-01T12:08:01.000Z</time>
      </trkpt>
      <trkpt lat="47.50112" lon="-3.12003">
        <ele>8.490431</ele>
        <time>2021-12-01T12:08:03.000Z</time>
      </trkpt>
      <trkpt lat="47.50123" lon="-3.12007">
        <ele>8.501062</ele>
        <time>2021-12-01T12:08:05.000Z</time>
      </trkpt>
      <trkpt lat="47.50145" lon="-3.12015">
        <ele>8.276144</ele>
        <time>2021-12-01T12:08:09.000Z</time>
      </trkpt>
      <trkpt lat="47.50169" lon="-3.12021">
        <ele>7.889922</ele>
        <time>2021-12-01T12:08:13.000Z</time>
      </trkpt>
      <trkpt lat="47.50188" lon="-3.12025">
        <ele>7.593099</ele>
        <time>2021-12-01T12:08:16.000Z</time>
      </trkpt>
      <trkpt lat="47.50204" lon="-3.12026">
        <ele>7.326781</ele>
        <time>2021-12-01T12:08:19.000Z</time>
      </trkpt>
      <trkpt lat="47.5023" lon="-3.12025">
        <ele>6.929953</ele>
        <time>2021-12-01T12:08:23.000Z</time>
      </trkpt>
      <trkpt lat="47.50254" lon="-3.12024">
        <ele>6.5456</ele>
        <time>2021-12-01T12:08:27.000Z</time>
      </trkpt>
      <trkpt lat="47.50272" lon="-3.12023">
        <ele>6.262202</ele>
        <time>2021-12-01T12:08:30.000Z</time>
      </trkpt>
      <trkpt lat="47.5033" lon="-3.12022">
        <ele>5.822892</ele>
        <time>2021-12-01T12:08:40.000Z</time>
      </trkpt>
      <trkpt lat="47.50341" lon="-3.12021">
        <ele>5.901488</ele>
        <time>2021-12-01T12:08:42.000Z</time>
      </trkpt>
      <trkpt lat="47.5037" lon="-3.12022">
        <ele>6.110695</ele>
        <time>2021-12-01T12:08:48.000Z</time>
      </trkpt>
      <trkpt lat="47.50383" lon="-3.12024">
        <ele>6.200905</ele>
        <time>2021-12-01T12:08:51.000Z</time>
      </trkpt>
      <trkpt lat="47.5039" lon="-3.12024">
        <ele>6.253723</ele>
        <time>2021-12-01T12:08:53.000Z</time>
      </trkpt>
      <trkpt lat="47.50409" lon="-3.12031">
        <ele>6.392186</ele>
        <time>2021-12-01T12:08:59.000Z</time>
      </trkpt>
      <trkpt lat="47.50432" lon="-3.12047">
        <ele>6.575984</ele>
        <time>2021-12-01T12:09:05.000Z</time>
      </trkpt>
      <trkpt lat="47.50449" lon="-3.12058">
        <ele>6.707081</ele>
        <time>2021-12-01T12:09:09.000Z</time>
      </trkpt>
      <trkpt lat="47.50454" lon="-3.1206">
        <ele>6.742259</ele>
        <time>2021-12-01T12:09:10.000Z</time>
      </trkpt>
      <trkpt lat="47.50458" lon="-3.12061">
        <ele>6.775287</ele>
        <time>2021-12-01T12:09:11.000Z</time>
      </trkpt>
      <trkpt lat="47.50463" lon="-3.12064">
        <ele>6.807755</ele>
        <time>2021-12-01T12:09:12.000Z</time>
      </trkpt>
      <trkpt lat="47.50489" lon="-3.12077">
        <ele>7.110089</ele>
        <time>2021-12-01T12:09:18.000Z</time>
      </trkpt>
      <trkpt lat="47.50515" lon="-3.12085">
        <ele>7.71045</ele>
        <time>2021-12-01T12:09:24.000Z</time>
      </trkpt>
      <trkpt lat="47.50527" lon="-3.12089">
        <ele>8.000382</ele>
        <time>2021-12-01T12:09:27.000Z</time>
      </trkpt>
      <trkpt lat="47.50543" lon="-3.12096">
        <ele>8.369715</ele>
        <time>2021-12-01T12:09:31.000Z</time>
      </trkpt>
      <trkpt lat="47.50547" lon="-3.12098">
        <ele>8.467401</ele>
        <time>2021-12-01T12:09:32.000Z</time>
      </trkpt>
      <trkpt lat="47.50576" lon="-3.12112">
        <ele>9.150422</ele>
        <time>2021-12-01T12:09:39.000Z</time>
      </trkpt>
      <trkpt lat="47.50579" lon="-3.12113">
        <ele>9.234003</ele>
        <time>2021-12-01T12:09:40.000Z</time>
      </trkpt>
      <trkpt lat="47.50582" lon="-3.12114">
        <ele>9.307263</ele>
        <time>2021-12-01T12:09:41.000Z</time>
      </trkpt>
      <trkpt lat="47.50601" lon="-3.12129">
        <ele>9.798051</ele>
        <time>2021-12-01T12:09:46.000Z</time>
      </trkpt>
      <trkpt lat="47.50609" lon="-3.12136">
        <ele>10.010618</ele>
        <time>2021-12-01T12:09:48.000Z</time>
      </trkpt>
      <trkpt lat="47.5062" lon="-3.12149">
        <ele>10.327731</ele>
        <time>2021-12-01T12:09:51.000Z</time>
      </trkpt>
      <trkpt lat="47.50624" lon="-3.12153">
        <ele>10.434864</ele>
        <time>2021-12-01T12:09:52.000Z</time>
      </trkpt>
      <trkpt lat="47.50635" lon="-3.12166">
        <ele>10.755274</ele>
        <time>2021-12-01T12:09:55.000Z</time>
      </trkpt>
      <trkpt lat="47.50651" lon="-3.1219">
        <ele>11.182611</ele>
        <time>2021-12-01T12:10:00.000Z</time>
      </trkpt>
      <trkpt lat="47.50672" lon="-3.12224">
        <ele>11.591086</ele>
        <time>2021-12-01T12:10:07.000Z</time>
      </trkpt>
      <trkpt lat="47.5068" lon="-3.12237">
        <ele>11.752069</ele>
        <time>2021-12-01T12:10:10.000Z</time>
      </trkpt>
      <trkpt lat="47.50693" lon="-3.12255">
        <ele>11.980919</ele>
        <time>2021-12-01T12:10:14.000Z</time>
      </trkpt>
      <trkpt lat="47.50699" lon="-3.12263">
        <ele>12.089943</ele>
        <time>2021-12-01T12:10:16.000Z</time>
      </trkpt>
      <trkpt lat="47.50708" lon="-3.12276">
        <ele>12.268933</ele>
        <time>2021-12-01T12:10:20.000Z</time>
      </trkpt>
      <trkpt lat="47.50714" lon="-3.12286">
        <ele>12.38847</ele>
        <time>2021-12-01T12:10:24.000Z</time>
      </trkpt>
      <trkpt lat="47.50716" lon="-3.12287">
        <ele>12.408436</ele>
        <time>2021-12-01T12:10:27.000Z</time>
      </trkpt>
      <trkpt lat="47.50717" lon="-3.12292">
        <ele>12.458744</ele>
        <time>2021-12-01T12:10:33.000Z</time>
      </trkpt>
      <trkpt lat="47.50717" lon="-3.12295">
        <ele>12.487426</ele>
        <time>2021-12-01T12:10:35.000Z</time>
      </trkpt>
      <trkpt lat="47.50713" lon="-3.12307">
        <ele>12.601606</ele>
        <time>2021-12-01T12:10:37.000Z</time>
      </trkpt>
      <trkpt lat="47.50713" lon="-3.12312">
        <ele>12.645664</ele>
        <time>2021-12-01T12:10:38.000Z</time>
      </trkpt>
      <trkpt lat="47.50715" lon="-3.12351">
        <ele>13.001469</ele>
        <time>2021-12-01T12:10:46.000Z</time>
      </trkpt>
      <trkpt lat="47.50715" lon="-3.12361">
        <ele>13.089635</ele>
        <time>2021-12-01T12:10:50.000Z</time>
      </trkpt>
      <trkpt lat="47.50715" lon="-3.12361">
        <ele>13.089635</ele>
        <time>2021-12-01T12:10:51.000Z</time>
      </trkpt>
      <trkpt lat="47.50715" lon="-3.12361">
        <ele>13.093468</ele>
        <time>2021-12-01T12:10:52.000Z</time>
      </trkpt>
      <trkpt lat="47.50717" lon="-3.12368">
        <ele>13.162421</ele>
        <time>2021-12-01T12:10:57.000Z</time>
      </trkpt>
      <trkpt lat="47.50721" lon="-3.12374">
        <ele>13.241043</ele>
        <time>2021-12-01T12:10:59.000Z</time>
      </trkpt>
      <trkpt lat="47.50735" lon="-3.12385">
        <ele>13.443312</ele>
        <time>2021-12-01T12:11:02.000Z</time>
      </trkpt>
      <trkpt lat="47.50739" lon="-3.12387">
        <ele>13.439752</ele>
        <time>2021-12-01T12:11:03.000Z</time>
      </trkpt>
      <trkpt lat="47.50744" lon="-3.12389">
        <ele>13.435453</ele>
        <time>2021-12-01T12:11:05.000Z</time>
      </trkpt>
      <trkpt lat="47.50755" lon="-3.12394">
        <ele>13.425297</ele>
        <time>2021-12-01T12:11:07.000Z</time>
      </trkpt>
      <trkpt lat="47.50764" lon="-3.12398">
        <ele>13.416879</ele>
        <time>2021-12-01T12:11:10.000Z</time>
      </trkpt>
      <trkpt lat="47.50786" lon="-3.12407">
        <ele>13.397272</ele>
        <time>2021-12-01T12:11:15.000Z</time>
      </trkpt>
      <trkpt lat="47.50794" lon="-3.12405">
        <ele>13.390474</ele>
        <time>2021-12-01T12:11:17.000Z</time>
      </trkpt>
      <trkpt lat="47.50801" lon="-3.12395">
        <ele>13.382291</ele>
        <time>2021-12-01T12:11:19.000Z</time>
      </trkpt>
      <trkpt lat="47.50804" lon="-3.12384">
        <ele>13.375385</ele>
        <time>2021-12-01T12:11:21.000Z</time>
      </trkpt>
      <trkpt lat="47.5081" lon="-3.12357">
        <ele>13.358726</ele>
        <time>2021-12-01T12:11:25.000Z</time>
      </trkpt>
      <trkpt lat="47.50816" lon="-3.12349">
        <ele>13.351858</ele>
        <time>2021-12-01T12:11:27.000Z</time>
      </trkpt>
      <trkpt lat="47.50819" lon="-3.12345">
        <ele>13.34806</ele>
        <time>2021-12-01T12:11:28.000Z</time>
      </trkpt>
      <trkpt lat="47.50829" lon="-3.12343">
        <ele>13.339932</ele>
        <time>2021-12-01T12:11:30.000Z</time>
      </trkpt>
      <trkpt lat="47.50839" lon="-3.12348">
        <ele>13.330525</ele>
        <time>2021-12-01T12:11:32.000Z</time>
      </trkpt>
      <trkpt lat="47.50848" lon="-3.12354">
        <ele>13.322538</ele>
        <time>2021-12-01T12:11:34.000Z</time>
      </trkpt>
      <trkpt lat="47.50862" lon="-3.12365">
        <ele>13.308488</ele>
        <time>2021-12-01T12:11:37.000Z</time>
      </trkpt>
      <trkpt lat="47.50884" lon="-3.12384">
        <ele>13.243833</ele>
        <time>2021-12-01T12:11:42.000Z</time>
      </trkpt>
      <trkpt lat="47.50923" lon="-3.1241">
        <ele>12.441461</ele>
        <time>2021-12-01T12:11:50.000Z</time>
      </trkpt>
      <trkpt lat="47.50928" lon="-3.12412">
        <ele>12.336753</ele>
        <time>2021-12-01T12:11:51.000Z</time>
      </trkpt>
      <trkpt lat="47.5097" lon="-3.12425">
        <ele>11.518717</ele>
        <time>2021-12-01T12:11:59.000Z</time>
      </trkpt>
      <trkpt lat="47.51001" lon="-3.12427">
        <ele>10.942042</ele>
        <time>2021-12-01T12:12:04.000Z</time>
      </trkpt>
      <trkpt lat="47.51014" lon="-3.12426">
        <ele>10.690511</ele>
        <time>2021-12-01T12:12:06.000Z</time>
      </trkpt>
      <trkpt lat="47.51037" lon="-3.12429">
        <ele>10.252637</ele>
        <time>2021-12-01T12:12:10.000Z</time>
      </trkpt>
      <trkpt lat="47.51042" lon="-3.12434">
        <ele>10.13951</ele>
        <time>2021-12-01T12:12:11.000Z</time>
      </trkpt>
      <trkpt lat="47.51045" lon="-3.12439">
        <ele>10.053209</ele>
        <time>2021-12-01T12:12:12.000Z</time>
      </trkpt>
      <trkpt lat="47.51052" lon="-3.12453">
        <ele>9.884495</ele>
        <time>2021-12-01T12:12:15.000Z</time>
      </trkpt>
      <trkpt lat="47.51058" lon="-3.12467">
        <ele>9.86024</ele>
        <time>2021-12-01T12:12:16.000Z</time>
      </trkpt>
      <trkpt lat="47.51077" lon="-3.12504">
        <ele>9.792764</ele>
        <time>2021-12-01T12:12:22.000Z</time>
      </trkpt>
      <trkpt lat="47.51106" lon="-3.12563">
        <ele>9.687083</ele>
        <time>2021-12-01T12:12:32.000Z</time>
      </trkpt>
      <trkpt lat="47.5111" lon="-3.12575">
        <ele>9.667124</ele>
        <time>2021-12-01T12:12:34.000Z</time>
      </trkpt>
      <trkpt lat="47.51125" lon="-3.12605">
        <ele>9.614142</ele>
        <time>2021-12-01T12:12:39.000Z</time>
      </trkpt>
      <trkpt lat="47.51145" lon="-3.12644">
        <ele>9.542225</ele>
        <time>2021-12-01T12:12:47.000Z</time>
      </trkpt>
      <trkpt lat="47.51149" lon="-3.12647">
        <ele>9.533105</ele>
        <time>2021-12-01T12:12:48.000Z</time>
      </trkpt>
      <trkpt lat="47.51153" lon="-3.12649">
        <ele>9.524178</ele>
        <time>2021-12-01T12:12:49.000Z</time>
      </trkpt>
      <trkpt lat="47.51161" lon="-3.12651">
        <ele>9.505503</ele>
        <time>2021-12-01T12:12:51.000Z</time>
      </trkpt>
      <trkpt lat="47.51168" lon="-3.12652">
        <ele>9.432573</ele>
        <time>2021-12-01T12:12:52.000Z</time>
      </trkpt>
      <trkpt lat="47.5119" lon="-3.12652">
        <ele>9.152845</ele>
        <time>2021-12-01T12:12:56.000Z</time>
      </trkpt>
      <trkpt lat="47.51201" lon="-3.12653">
        <ele>9.024157</ele>
        <time>2021-12-01T12:12:58.000Z</time>
      </trkpt>
      <trkpt lat="47.5125" lon="-3.12659">
        <ele>8.408417</ele>
        <time>2021-12-01T12:13:07.000Z</time>
      </trkpt>
      <trkpt lat="47.51272" lon="-3.12663">
        <ele>8.136521</ele>
        <time>2021-12-01T12:13:11.000Z</time>
      </trkpt>
      <trkpt lat="47.51293" lon="-3.12668">
        <ele>7.868199</ele>
        <time>2021-12-01T12:13:15.000Z</time>
      </trkpt>
      <trkpt lat="47.51298" lon="-3.1267">
        <ele>7.804598</ele>
        <time>2021-12-01T12:13:16.000Z</time>
      </trkpt>
      <trkpt lat="47.51316" lon="-3.12685">
        <ele>7.549967</ele>
        <time>2021-12-01T12:13:20.000Z</time>
      </trkpt>
      <trkpt lat="47.51322" lon="-3.12691">
        <ele>7.465927</ele>
        <time>2021-12-01T12:13:21.000Z</time>
      </trkpt>
      <trkpt lat="47.51344" lon="-3.12717">
        <ele>7.400346</ele>
        <time>2021-12-01T12:13:26.000Z</time>
      </trkpt>
      <trkpt lat="47.51347" lon="-3.12721">
        <ele>7.436427</ele>
        <time>2021-12-01T12:13:27.000Z</time>
      </trkpt>
      <trkpt lat="47.51355" lon="-3.12734">
        <ele>7.539591</ele>
        <time>2021-12-01T12:13:29.000Z</time>
      </trkpt>
      <trkpt lat="47.51365" lon="-3.12752">
        <ele>7.679563</ele>
        <time>2021-12-01T12:13:32.000Z</time>
      </trkpt>
      <trkpt lat="47.51381" lon="-3.12772">
        <ele>7.868519</ele>
        <time>2021-12-01T12:13:36.000Z</time>
      </trkpt>
      <trkpt lat="47.51395" lon="-3.12781">
        <ele>8.007322</ele>
        <time>2021-12-01T12:13:39.000Z</time>
      </trkpt>
      <trkpt lat="47.51438" lon="-3.12801">
        <ele>8.411836</ele>
        <time>2021-12-01T12:13:48.000Z</time>
      </trkpt>
      <trkpt lat="47.51474" lon="-3.1281">
        <ele>8.736905</ele>
        <time>2021-12-01T12:13:56.000Z</time>
      </trkpt>
      <trkpt lat="47.51483" lon="-3.12814">
        <ele>8.82217</ele>
        <time>2021-12-01T12:13:58.000Z</time>
      </trkpt>
      <trkpt lat="47.51491" lon="-3.12818">
        <ele>8.904567</ele>
        <time>2021-12-01T12:14:00.000Z</time>
      </trkpt>
      <trkpt lat="47.51504" lon="-3.12825">
        <ele>9.189336</ele>
        <time>2021-12-01T12:14:03.000Z</time>
      </trkpt>
      <trkpt lat="47.51508" lon="-3.12825">
        <ele>9.275613</ele>
        <time>2021-12-01T12:14:04.000Z</time>
      </trkpt>
      <trkpt lat="47.51541" lon="-3.12827">
        <ele>9.936341</ele>
        <time>2021-12-01T12:14:11.000Z</time>
      </trkpt>
      <trkpt lat="47.51551" lon="-3.12825">
        <ele>10.14987</ele>
        <time>2021-12-01T12:14:13.000Z</time>
      </trkpt>
      <trkpt lat="47.51601" lon="-3.12816">
        <ele>11.186353</ele>
        <time>2021-12-01T12:14:23.000Z</time>
      </trkpt>
      <trkpt lat="47.51635" lon="-3.12811">
        <ele>11.886618</ele>
        <time>2021-12-01T12:14:30.000Z</time>
      </trkpt>
      <trkpt lat="47.51645" lon="-3.12811">
        <ele>12.074813</ele>
        <time>2021-12-01T12:14:32.000Z</time>
      </trkpt>
      <trkpt lat="47.51678" lon="-3.12811">
        <ele>12.638536</ele>
        <time>2021-12-01T12:14:39.000Z</time>
      </trkpt>
      <trkpt lat="47.51683" lon="-3.1281">
        <ele>12.680665</ele>
        <time>2021-12-01T12:14:40.000Z</time>
      </trkpt>
      <trkpt lat="47.51696" lon="-3.12806">
        <ele>12.787986</ele>
        <time>2021-12-01T12:14:43.000Z</time>
      </trkpt>
      <trkpt lat="47.51708" lon="-3.12801">
        <ele>12.883072</ele>
        <time>2021-12-01T12:14:46.000Z</time>
      </trkpt>
      <trkpt lat="47.51712" lon="-3.128">
        <ele>12.914464</ele>
        <time>2021-12-01T12:14:47.000Z</time>
      </trkpt>
      <trkpt lat="47.51724" lon="-3.12795">
        <ele>13.011203</ele>
        <time>2021-12-01T12:14:50.000Z</time>
      </trkpt>
      <trkpt lat="47.5174" lon="-3.12795">
        <ele>13.139364</ele>
        <time>2021-12-01T12:14:54.000Z</time>
      </trkpt>
      <trkpt lat="47.51748" lon="-3.12797">
        <ele>13.203809</ele>
        <time>2021-12-01T12:14:56.000Z</time>
      </trkpt>
      <trkpt lat="47.51762" lon="-3.12805">
        <ele>13.323995</ele>
        <time>2021-12-01T12:14:59.000Z</time>
      </trkpt>
      <trkpt lat="47.51796" lon="-3.12828">
        <ele>13.618997</ele>
        <time>2021-12-01T12:15:07.000Z</time>
      </trkpt>
      <trkpt lat="47.51809" lon="-3.12834">
        <ele>13.725923</ele>
        <time>2021-12-01T12:15:10.000Z</time>
      </trkpt>
      <trkpt lat="47.51829" lon="-3.1284">
        <ele>13.891067</ele>
        <time>2021-12-01T12:15:14.000Z</time>
      </trkpt>
      <trkpt lat="47.51872" lon="-3.12854">
        <ele>13.244168</ele>
        <time>2021-12-01T12:15:23.000Z</time>
      </trkpt>
      <trkpt lat="47.5191" lon="-3.12872">
        <ele>12.296881</ele>
        <time>2021-12-01T12:15:31.000Z</time>
      </trkpt>
      <trkpt lat="47.51918" lon="-3.12877">
        <ele>12.105051</ele>
        <time>2021-12-01T12:15:33.000Z</time>
      </trkpt>
      <trkpt lat="47.5195" lon="-3.12892">
        <ele>11.308184</ele>
        <time>2021-12-01T12:15:40.000Z</time>
      </trkpt>
      <trkpt lat="47.51964" lon="-3.129">
        <ele>10.94904</ele>
        <time>2021-12-01T12:15:43.000Z</time>
      </trkpt>
      <trkpt lat="47.51978" lon="-3.12907">
        <ele>10.613091</ele>
        <time>2021-12-01T12:15:46.000Z</time>
      </trkpt>
      <trkpt lat="47.51987" lon="-3.1291">
        <ele>10.374616</ele>
        <time>2021-12-01T12:15:48.000Z</time>
      </trkpt>
      <trkpt lat="47.51994" lon="-3.12912">
        <ele>10.222361</ele>
        <time>2021-12-01T12:15:49.000Z</time>
      </trkpt>
      <trkpt lat="47.52017" lon="-3.12918">
        <ele>9.692999</ele>
        <time>2021-12-01T12:15:54.000Z</time>
      </trkpt>
      <trkpt lat="47.52021" lon="-3.12918">
        <ele>9.642692</ele>
        <time>2021-12-01T12:15:55.000Z</time>
      </trkpt>
      <trkpt lat="47.52041" lon="-3.12913">
        <ele>9.365725</ele>
        <time>2021-12-01T12:15:59.000Z</time>
      </trkpt>
      <trkpt lat="47.52045" lon="-3.12914">
        <ele>9.311586</ele>
        <time>2021-12-01T12:16:01.000Z</time>
      </trkpt>
      <trkpt lat="47.52057" lon="-3.12919">
        <ele>9.14774</ele>
        <time>2021-12-01T12:16:02.000Z</time>
      </trkpt>
      <trkpt lat="47.52064" lon="-3.12927">
        <ele>9.024134</ele>
        <time>2021-12-01T12:16:04.000Z</time>
      </trkpt>
      <trkpt lat="47.52073" lon="-3.12936">
        <ele>8.882281</ele>
        <time>2021-12-01T12:16:06.000Z</time>
      </trkpt>
      <trkpt lat="47.52088" lon="-3.12949">
        <ele>8.644115</ele>
        <time>2021-12-01T12:16:10.000Z</time>
      </trkpt>
      <trkpt lat="47.52093" lon="-3.12953">
        <ele>8.574366</ele>
        <time>2021-12-01T12:16:11.000Z</time>
      </trkpt>
      <trkpt lat="47.52099" lon="-3.12959">
        <ele>8.47132</ele>
        <time>2021-12-01T12:16:13.000Z</time>
      </trkpt>
      <trkpt lat="47.52108" lon="-3.12967">
        <ele>8.33337</ele>
        <time>2021-12-01T12:16:16.000Z</time>
      </trkpt>
      <trkpt lat="47.52111" lon="-3.12974">
        <ele>8.25709</ele>
        <time>2021-12-01T12:16:18.000Z</time>
      </trkpt>
      <trkpt lat="47.52111" lon="-3.12978">
        <ele>8.220559</ele>
        <time>2021-12-01T12:16:19.000Z</time>
      </trkpt>
      <trkpt lat="47.52103" lon="-3.12994">
        <ele>8.045444</ele>
        <time>2021-12-01T12:16:24.000Z</time>
      </trkpt>
      <trkpt lat="47.52093" lon="-3.13022">
        <ele>7.753088</ele>
        <time>2021-12-01T12:16:31.000Z</time>
      </trkpt>
      <trkpt lat="47.52093" lon="-3.13029">
        <ele>7.685568</ele>
        <time>2021-12-01T12:16:33.000Z</time>
      </trkpt>
      <trkpt lat="47.52095" lon="-3.13032">
        <ele>7.654564</ele>
        <time>2021-12-01T12:16:34.000Z</time>
      </trkpt>
      <trkpt lat="47.52104" lon="-3.13042">
        <ele>7.500037</ele>
        <time>2021-12-01T12:16:39.000Z</time>
      </trkpt>
      <trkpt lat="47.52123" lon="-3.13062">
        <ele>7.502462</ele>
        <time>2021-12-01T12:16:44.000Z</time>
      </trkpt>
      <trkpt lat="47.52152" lon="-3.13094">
        <ele>8.17562</ele>
        <time>2021-12-01T12:16:53.000Z</time>
      </trkpt>
      <trkpt lat="47.52185" lon="-3.13131">
        <ele>8.945918</ele>
        <time>2021-12-01T12:17:02.000Z</time>
      </trkpt>
      <trkpt lat="47.52192" lon="-3.13139">
        <ele>9.114293</ele>
        <time>2021-12-01T12:17:04.000Z</time>
      </trkpt>
      <trkpt lat="47.5221" lon="-3.13152">
        <ele>9.507872</ele>
        <time>2021-12-01T12:17:09.000Z</time>
      </trkpt>
      <trkpt lat="47.52217" lon="-3.13157">
        <ele>9.648901</ele>
        <time>2021-12-01T12:17:11.000Z</time>
      </trkpt>
      <trkpt lat="47.52245" lon="-3.13176">
        <ele>10.221363</ele>
        <time>2021-12-01T12:17:18.000Z</time>
      </trkpt>
      <trkpt lat="47.52248" lon="-3.13178">
        <ele>10.301034</ele>
        <time>2021-12-01T12:17:19.000Z</time>
      </trkpt>
      <trkpt lat="47.5226" lon="-3.13186">
        <ele>10.547243</ele>
        <time>2021-12-01T12:17:22.000Z</time>
      </trkpt>
      <trkpt lat="47.52272" lon="-3.13193">
        <ele>10.816449</ele>
        <time>2021-12-01T12:17:25.000Z</time>
      </trkpt>
      <trkpt lat="47.5228" lon="-3.13197">
        <ele>11.096995</ele>
        <time>2021-12-01T12:17:27.000Z</time>
      </trkpt>
      <trkpt lat="47.52312" lon="-3.13209">
        <ele>12.099426</ele>
        <time>2021-12-01T12:17:36.000Z</time>
      </trkpt>
      <trkpt lat="47.52317" lon="-3.13212">
        <ele>12.272469</ele>
        <time>2021-12-01T12:17:38.000Z</time>
      </trkpt>
      <trkpt lat="47.52329" lon="-3.13216">
        <ele>12.654735</ele>
        <time>2021-12-01T12:17:42.000Z</time>
      </trkpt>
      <trkpt lat="47.52337" lon="-3.13226">
        <ele>12.964151</ele>
        <time>2021-12-01T12:17:45.000Z</time>
      </trkpt>
      <trkpt lat="47.52336" lon="-3.13231">
        <ele>13.068179</ele>
        <time>2021-12-01T12:17:46.000Z</time>
      </trkpt>
      <trkpt lat="47.52334" lon="-3.13253">
        <ele>13.522098</ele>
        <time>2021-12-01T12:17:50.000Z</time>
      </trkpt>
      <trkpt lat="47.52333" lon="-3.1326">
        <ele>13.671865</ele>
        <time>2021-12-01T12:17:52.000Z</time>
      </trkpt>
      <trkpt lat="47.52334" lon="-3.13294">
        <ele>14.370637</ele>
        <time>2021-12-01T12:17:57.000Z</time>
      </trkpt>
      <trkpt lat="47.52336" lon="-3.13323">
        <ele>14.989289</ele>
        <time>2021-12-01T12:18:02.000Z</time>
      </trkpt>
      <trkpt lat="47.52342" lon="-3.13354">
        <ele>15.671098</ele>
        <time>2021-12-01T12:18:09.000Z</time>
      </trkpt>
      <trkpt lat="47.52346" lon="-3.13361">
        <ele>15.851565</ele>
        <time>2021-12-01T12:18:10.000Z</time>
      </trkpt>
      <trkpt lat="47.52356" lon="-3.13365">
        <ele>16.155561</ele>
        <time>2021-12-01T12:18:13.000Z</time>
      </trkpt>
      <trkpt lat="47.52381" lon="-3.13368">
        <ele>16.55336</ele>
        <time>2021-12-01T12:18:19.000Z</time>
      </trkpt>
      <trkpt lat="47.52389" lon="-3.13368">
        <ele>16.67012</ele>
        <time>2021-12-01T12:18:21.000Z</time>
      </trkpt>
      <trkpt lat="47.52407" lon="-3.1337">
        <ele>16.926463</ele>
        <time>2021-12-01T12:18:26.000Z</time>
      </trkpt>
      <trkpt lat="47.52449" lon="-3.13374">
        <ele>17.520949</ele>
        <time>2021-12-01T12:18:35.000Z</time>
      </trkpt>
      <trkpt lat="47.52459" lon="-3.13375">
        <ele>17.653688</ele>
        <time>2021-12-01T12:18:36.000Z</time>
      </trkpt>
      <trkpt lat="47.52504" lon="-3.1338">
        <ele>18.296183</ele>
        <time>2021-12-01T12:18:45.000Z</time>
      </trkpt>
      <trkpt lat="47.52553" lon="-3.13385">
        <ele>18.599567</ele>
        <time>2021-12-01T12:18:54.000Z</time>
      </trkpt>
      <trkpt lat="47.5261" lon="-3.13391">
        <ele>17.933016</ele>
        <time>2021-12-01T12:19:03.000Z</time>
      </trkpt>
      <trkpt lat="47.52664" lon="-3.13396">
        <ele>17.305924</ele>
        <time>2021-12-01T12:19:11.000Z</time>
      </trkpt>
      <trkpt lat="47.52671" lon="-3.13397">
        <ele>17.225797</ele>
        <time>2021-12-01T12:19:12.000Z</time>
      </trkpt>
      <trkpt lat="47.52686" lon="-3.13399">
        <ele>17.053689</ele>
        <time>2021-12-01T12:19:14.000Z</time>
      </trkpt>
      <trkpt lat="47.52699" lon="-3.134">
        <ele>16.908458</ele>
        <time>2021-12-01T12:19:16.000Z</time>
      </trkpt>
      <trkpt lat="47.52733" lon="-3.13404">
        <ele>16.367211</ele>
        <time>2021-12-01T12:19:21.000Z</time>
      </trkpt>
      <trkpt lat="47.52767" lon="-3.13408">
        <ele>15.658691</ele>
        <time>2021-12-01T12:19:26.000Z</time>
      </trkpt>
      <trkpt lat="47.52799" lon="-3.13411">
        <ele>14.979085</ele>
        <time>2021-12-01T12:19:31.000Z</time>
      </trkpt>
      <trkpt lat="47.52819" lon="-3.13413">
        <ele>14.556037</ele>
        <time>2021-12-01T12:19:34.000Z</time>
      </trkpt>
      <trkpt lat="47.52842" lon="-3.13416">
        <ele>14.079465</ele>
        <time>2021-12-01T12:19:37.000Z</time>
      </trkpt>
      <trkpt lat="47.52862" lon="-3.13418">
        <ele>13.649103</ele>
        <time>2021-12-01T12:19:40.000Z</time>
      </trkpt>
      <trkpt lat="47.52892" lon="-3.13421">
        <ele>13.024531</ele>
        <time>2021-12-01T12:19:44.000Z</time>
      </trkpt>
      <trkpt lat="47.52929" lon="-3.13424">
        <ele>13.024955</ele>
        <time>2021-12-01T12:19:49.000Z</time>
      </trkpt>
      <trkpt lat="47.52988" lon="-3.13431">
        <ele>13.202082</ele>
        <time>2021-12-01T12:19:57.000Z</time>
      </trkpt>
      <trkpt lat="47.53002" lon="-3.13431">
        <ele>13.245154</ele>
        <time>2021-12-01T12:20:00.000Z</time>
      </trkpt>
      <trkpt lat="47.53053" lon="-3.13435">
        <ele>13.397358</ele>
        <time>2021-12-01T12:20:07.000Z</time>
      </trkpt>
      <trkpt lat="47.53097" lon="-3.13441">
        <ele>13.603634</ele>
        <time>2021-12-01T12:20:14.000Z</time>
      </trkpt>
      <trkpt lat="47.53126" lon="-3.13444">
        <ele>13.796116</ele>
        <time>2021-12-01T12:20:19.000Z</time>
      </trkpt>
      <trkpt lat="47.53126" lon="-3.13444">
        <ele>13.796116</ele>
        <time>2021-12-01T12:20:20.000Z</time>
      </trkpt>
      <trkpt lat="47.53155" lon="-3.13446">
        <ele>13.991626</ele>
        <time>2021-12-01T12:20:24.000Z</time>
      </trkpt>
      <trkpt lat="47.53166" lon="-3.13448">
        <ele>14.062322</ele>
        <time>2021-12-01T12:20:26.000Z</time>
      </trkpt>
      <trkpt lat="47.53173" lon="-3.13449">
        <ele>14.110789</ele>
        <time>2021-12-01T12:20:27.000Z</time>
      </trkpt>
      <trkpt lat="47.53196" lon="-3.13451">
        <ele>14.265467</ele>
        <time>2021-12-01T12:20:31.000Z</time>
      </trkpt>
      <trkpt lat="47.53246" lon="-3.13457">
        <ele>14.595631</ele>
        <time>2021-12-01T12:20:40.000Z</time>
      </trkpt>
      <trkpt lat="47.53298" lon="-3.13463">
        <ele>14.634419</ele>
        <time>2021-12-01T12:20:47.000Z</time>
      </trkpt>
      <trkpt lat="47.53355" lon="-3.13468">
        <ele>14.600568</ele>
        <time>2021-12-01T12:20:56.000Z</time>
      </trkpt>
      <trkpt lat="47.53366" lon="-3.13468">
        <ele>14.59377</ele>
        <time>2021-12-01T12:20:58.000Z</time>
      </trkpt>
      <trkpt lat="47.53391" lon="-3.13466">
        <ele>14.578845</ele>
        <time>2021-12-01T12:21:02.000Z</time>
      </trkpt>
      <trkpt lat="47.53404" lon="-3.13471">
        <ele>14.570683</ele>
        <time>2021-12-01T12:21:04.000Z</time>
      </trkpt>
      <trkpt lat="47.53434" lon="-3.13475">
        <ele>14.552641</ele>
        <time>2021-12-01T12:21:09.000Z</time>
      </trkpt>
      <trkpt lat="47.53492" lon="-3.13482">
        <ele>14.912814</ele>
        <time>2021-12-01T12:21:18.000Z</time>
      </trkpt>
      <trkpt lat="47.53498" lon="-3.13482">
        <ele>14.952065</ele>
        <time>2021-12-01T12:21:19.000Z</time>
      </trkpt>
      <trkpt lat="47.53528" lon="-3.13485">
        <ele>15.141235</ele>
        <time>2021-12-01T12:21:24.000Z</time>
      </trkpt>
      <trkpt lat="47.53556" lon="-3.13486">
        <ele>15.322077</ele>
        <time>2021-12-01T12:21:29.000Z</time>
      </trkpt>
      <trkpt lat="47.5359" lon="-3.13491">
        <ele>15.535135</ele>
        <time>2021-12-01T12:21:36.000Z</time>
      </trkpt>
      <trkpt lat="47.5361" lon="-3.13493">
        <ele>15.661743</ele>
        <time>2021-12-01T12:21:42.000Z</time>
      </trkpt>
      <trkpt lat="47.5362" lon="-3.13495">
        <ele>15.633513</ele>
        <time>2021-12-01T12:21:47.000Z</time>
      </trkpt>
      <trkpt lat="47.53622" lon="-3.13495">
        <ele>15.614956</ele>
        <time>2021-12-01T12:21:52.000Z</time>
      </trkpt>
      <trkpt lat="47.53624" lon="-3.13495">
        <ele>15.590916</ele>
        <time>2021-12-01T12:22:08.000Z</time>
      </trkpt>
      <trkpt lat="47.53643" lon="-3.13497">
        <ele>15.413549</ele>
        <time>2021-12-01T12:22:13.000Z</time>
      </trkpt>
      <trkpt lat="47.5365" lon="-3.13499">
        <ele>15.341635</ele>
        <time>2021-12-01T12:22:15.000Z</time>
      </trkpt>
      <trkpt lat="47.53654" lon="-3.13506">
        <ele>15.2816</ele>
        <time>2021-12-01T12:22:17.000Z</time>
      </trkpt>
      <trkpt lat="47.53655" lon="-3.13526">
        <ele>15.151976</ele>
        <time>2021-12-01T12:22:20.000Z</time>
      </trkpt>
      <trkpt lat="47.53655" lon="-3.13531">
        <ele>15.114273</ele>
        <time>2021-12-01T12:22:21.000Z</time>
      </trkpt>
      <trkpt lat="47.53653" lon="-3.13554">
        <ele>14.96589</ele>
        <time>2021-12-01T12:22:24.000Z</time>
      </trkpt>
      <trkpt lat="47.5365" lon="-3.13574">
        <ele>14.832841</ele>
        <time>2021-12-01T12:22:27.000Z</time>
      </trkpt>
      <trkpt lat="47.53637" lon="-3.13606">
        <ele>14.592049</ele>
        <time>2021-12-01T12:22:32.000Z</time>
      </trkpt>
      <trkpt lat="47.53628" lon="-3.13623">
        <ele>14.447777</ele>
        <time>2021-12-01T12:22:35.000Z</time>
      </trkpt>
      <trkpt lat="47.53623" lon="-3.13639">
        <ele>14.336253</ele>
        <time>2021-12-01T12:22:37.000Z</time>
      </trkpt>
      <trkpt lat="47.53622" lon="-3.13646">
        <ele>14.28761</ele>
        <time>2021-12-01T12:22:38.000Z</time>
      </trkpt>
      <trkpt lat="47.53619" lon="-3.13667">
        <ele>14.148363</ele>
        <time>2021-12-01T12:22:42.000Z</time>
      </trkpt>
      <trkpt lat="47.53624" lon="-3.1367">
        <ele>14.095831</ele>
        <time>2021-12-01T12:22:44.000Z</time>
      </trkpt>
      <trkpt lat="47.53627" lon="-3.13668">
        <ele>14.065585</ele>
        <time>2021-12-01T12:22:45.000Z</time>
      </trkpt>
      <trkpt lat="47.53635" lon="-3.13663">
        <ele>13.984225</ele>
        <time>2021-12-01T12:22:49.000Z</time>
      </trkpt>
      <trkpt lat="47.53635" lon="-3.13663">
        <ele>13.984225</ele>
        <time>2021-12-01T12:22:50.000Z</time>
      </trkpt>
      <trkpt lat="47.53637" lon="-3.13662">
        <ele>13.961507</ele>
        <time>2021-12-01T12:26:35.000Z</time>
      </trkpt>
      <trkpt lat="47.53644" lon="-3.13661">
        <ele>13.896497</ele>
        <time>2021-12-01T12:26:38.000Z</time>
      </trkpt>
      <trkpt lat="47.53664" lon="-3.13657">
        <ele>13.722096</ele>
        <time>2021-12-01T12:26:43.000Z</time>
      </trkpt>
      <trkpt lat="47.53695" lon="-3.1365">
        <ele>13.443549</ele>
        <time>2021-12-01T12:26:50.000Z</time>
      </trkpt>
      <trkpt lat="47.53699" lon="-3.13648">
        <ele>13.404297</ele>
        <time>2021-12-01T12:26:51.000Z</time>
      </trkpt>
      <trkpt lat="47.53707" lon="-3.13644">
        <ele>13.333823</ele>
        <time>2021-12-01T12:26:53.000Z</time>
      </trkpt>
      <trkpt lat="47.53724" lon="-3.13638">
        <ele>13.175332</ele>
        <time>2021-12-01T12:26:57.000Z</time>
      </trkpt>
      <trkpt lat="47.53764" lon="-3.13626">
        <ele>12.815167</ele>
        <time>2021-12-01T12:27:06.000Z</time>
      </trkpt>
      <trkpt lat="47.53769" lon="-3.13625">
        <ele>12.770828</ele>
        <time>2021-12-01T12:27:07.000Z</time>
      </trkpt>
      <trkpt lat="47.5378" lon="-3.13626">
        <ele>12.672523</ele>
        <time>2021-12-01T12:27:09.000Z</time>
      </trkpt>
      <trkpt lat="47.53789" lon="-3.13624">
        <ele>12.591938</ele>
        <time>2021-12-01T12:27:11.000Z</time>
      </trkpt>
      <trkpt lat="47.53795" lon="-3.13622">
        <ele>12.539902</ele>
        <time>2021-12-01T12:27:12.000Z</time>
      </trkpt>
      <trkpt lat="47.53817" lon="-3.13621">
        <ele>12.347791</ele>
        <time>2021-12-01T12:27:17.000Z</time>
      </trkpt>
      <trkpt lat="47.53849" lon="-3.13615">
        <ele>12.133962</ele>
        <time>2021-12-01T12:27:23.000Z</time>
      </trkpt>
      <trkpt lat="47.53854" lon="-3.13614">
        <ele>12.102153</ele>
        <time>2021-12-01T12:27:24.000Z</time>
      </trkpt>
      <trkpt lat="47.53867" lon="-3.13611">
        <ele>12.018691</ele>
        <time>2021-12-01T12:27:26.000Z</time>
      </trkpt>
      <trkpt lat="47.53886" lon="-3.13601">
        <ele>11.885908</ele>
        <time>2021-12-01T12:27:30.000Z</time>
      </trkpt>
      <trkpt lat="47.53897" lon="-3.13596">
        <ele>11.810638</ele>
        <time>2021-12-01T12:27:32.000Z</time>
      </trkpt>
      <trkpt lat="47.53906" lon="-3.13595">
        <ele>11.746459</ele>
        <time>2021-12-01T12:27:34.000Z</time>
      </trkpt>
      <trkpt lat="47.53913" lon="-3.13594">
        <ele>11.70403</ele>
        <time>2021-12-01T12:27:35.000Z</time>
      </trkpt>
      <trkpt lat="47.53944" lon="-3.13584">
        <ele>11.491135</ele>
        <time>2021-12-01T12:27:41.000Z</time>
      </trkpt>
      <trkpt lat="47.54001" lon="-3.13566">
        <ele>11.335253</ele>
        <time>2021-12-01T12:27:51.000Z</time>
      </trkpt>
      <trkpt lat="47.54047" lon="-3.13552">
        <ele>12.004324</ele>
        <time>2021-12-01T12:28:00.000Z</time>
      </trkpt>
      <trkpt lat="47.54061" lon="-3.13547">
        <ele>12.209886</ele>
        <time>2021-12-01T12:28:03.000Z</time>
      </trkpt>
      <trkpt lat="47.5407" lon="-3.13542">
        <ele>12.344546</ele>
        <time>2021-12-01T12:28:05.000Z</time>
      </trkpt>
      <trkpt lat="47.54078" lon="-3.13539">
        <ele>12.465399</ele>
        <time>2021-12-01T12:28:07.000Z</time>
      </trkpt>
      <trkpt lat="47.54116" lon="-3.13526">
        <ele>13.021008</ele>
        <time>2021-12-01T12:28:15.000Z</time>
      </trkpt>
      <trkpt lat="47.54149" lon="-3.13517">
        <ele>13.502916</ele>
        <time>2021-12-01T12:28:22.000Z</time>
      </trkpt>
      <trkpt lat="47.54198" lon="-3.13502">
        <ele>14.094013</ele>
        <time>2021-12-01T12:28:32.000Z</time>
      </trkpt>
      <trkpt lat="47.54208" lon="-3.135">
        <ele>14.207817</ele>
        <time>2021-12-01T12:28:34.000Z</time>
      </trkpt>
      <trkpt lat="47.54243" lon="-3.13491">
        <ele>14.582032</ele>
        <time>2021-12-01T12:28:41.000Z</time>
      </trkpt>
      <trkpt lat="47.54247" lon="-3.1349">
        <ele>14.628002</ele>
        <time>2021-12-01T12:28:42.000Z</time>
      </trkpt>
      <trkpt lat="47.54264" lon="-3.13486">
        <ele>14.807035</ele>
        <time>2021-12-01T12:28:47.000Z</time>
      </trkpt>
      <trkpt lat="47.54276" lon="-3.13482">
        <ele>14.941835</ele>
        <time>2021-12-01T12:28:51.000Z</time>
      </trkpt>
      <trkpt lat="47.54296" lon="-3.13477">
        <ele>15.161592</ele>
        <time>2021-12-01T12:28:56.000Z</time>
      </trkpt>
      <trkpt lat="47.54331" lon="-3.13468">
        <ele>15.539871</ele>
        <time>2021-12-01T12:29:04.000Z</time>
      </trkpt>
      <trkpt lat="47.54341" lon="-3.13465">
        <ele>15.645269</ele>
        <time>2021-12-01T12:29:06.000Z</time>
      </trkpt>
      <trkpt lat="47.54344" lon="-3.13464">
        <ele>15.651914</ele>
        <time>2021-12-01T12:29:07.000Z</time>
      </trkpt>
      <trkpt lat="47.54375" lon="-3.13455">
        <ele>15.402616</ele>
        <time>2021-12-01T12:29:13.000Z</time>
      </trkpt>
      <trkpt lat="47.54433" lon="-3.13439">
        <ele>14.925181</ele>
        <time>2021-12-01T12:29:24.000Z</time>
      </trkpt>
      <trkpt lat="47.54449" lon="-3.13435">
        <ele>14.794171</ele>
        <time>2021-12-01T12:29:27.000Z</time>
      </trkpt>
      <trkpt lat="47.54485" lon="-3.13425">
        <ele>14.498443</ele>
        <time>2021-12-01T12:29:34.000Z</time>
      </trkpt>
      <trkpt lat="47.54509" lon="-3.13419">
        <ele>14.303243</ele>
        <time>2021-12-01T12:29:39.000Z</time>
      </trkpt>
      <trkpt lat="47.54524" lon="-3.13414">
        <ele>14.164976</ele>
        <time>2021-12-01T12:29:42.000Z</time>
      </trkpt>
      <trkpt lat="47.54554" lon="-3.13407">
        <ele>13.878104</ele>
        <time>2021-12-01T12:29:48.000Z</time>
      </trkpt>
      <trkpt lat="47.54564" lon="-3.13405">
        <ele>13.778015</ele>
        <time>2021-12-01T12:29:50.000Z</time>
      </trkpt>
      <trkpt lat="47.54569" lon="-3.13405">
        <ele>13.733922</ele>
        <time>2021-12-01T12:29:51.000Z</time>
      </trkpt>
      <trkpt lat="47.54594" lon="-3.13409">
        <ele>13.488287</ele>
        <time>2021-12-01T12:29:57.000Z</time>
      </trkpt>
      <trkpt lat="47.54604" lon="-3.1341">
        <ele>13.399711</ele>
        <time>2021-12-01T12:29:59.000Z</time>
      </trkpt>
      <trkpt lat="47.54642" lon="-3.13414">
        <ele>13.031849</ele>
        <time>2021-12-01T12:30:07.000Z</time>
      </trkpt>
      <trkpt lat="47.54686" lon="-3.13415">
        <ele>12.611076</ele>
        <time>2021-12-01T12:30:16.000Z</time>
      </trkpt>
      <trkpt lat="47.5474" lon="-3.13416">
        <ele>12.324639</ele>
        <time>2021-12-01T12:30:27.000Z</time>
      </trkpt>
      <trkpt lat="47.54784" lon="-3.13417">
        <ele>12.147995</ele>
        <time>2021-12-01T12:30:36.000Z</time>
      </trkpt>
      <trkpt lat="47.54835" lon="-3.13419">
        <ele>11.946142</ele>
        <time>2021-12-01T12:30:46.000Z</time>
      </trkpt>
      <trkpt lat="47.5484" lon="-3.13419">
        <ele>11.926161</ele>
        <time>2021-12-01T12:30:47.000Z</time>
      </trkpt>
      <trkpt lat="47.54854" lon="-3.13419">
        <ele>11.868585</ele>
        <time>2021-12-01T12:30:50.000Z</time>
      </trkpt>
      <trkpt lat="47.54865" lon="-3.13421">
        <ele>11.823668</ele>
        <time>2021-12-01T12:30:52.000Z</time>
      </trkpt>
      <trkpt lat="47.5488" lon="-3.13421">
        <ele>11.77592</ele>
        <time>2021-12-01T12:30:55.000Z</time>
      </trkpt>
      <trkpt lat="47.54906" lon="-3.1342">
        <ele>11.831588</ele>
        <time>2021-12-01T12:31:00.000Z</time>
      </trkpt>
      <trkpt lat="47.54962" lon="-3.13422">
        <ele>11.953513</ele>
        <time>2021-12-01T12:31:11.000Z</time>
      </trkpt>
      <trkpt lat="47.55019" lon="-3.13424">
        <ele>12.075236</ele>
        <time>2021-12-01T12:31:22.000Z</time>
      </trkpt>
      <trkpt lat="47.55039" lon="-3.13425">
        <ele>12.118332</ele>
        <time>2021-12-01T12:31:26.000Z</time>
      </trkpt>
      <trkpt lat="47.55095" lon="-3.13428">
        <ele>11.718869</ele>
        <time>2021-12-01T12:31:37.000Z</time>
      </trkpt>
      <trkpt lat="47.551" lon="-3.13428">
        <ele>11.658387</ele>
        <time>2021-12-01T12:31:38.000Z</time>
      </trkpt>
      <trkpt lat="47.5515" lon="-3.13429">
        <ele>11.051135</ele>
        <time>2021-12-01T12:31:48.000Z</time>
      </trkpt>
      <trkpt lat="47.55169" lon="-3.13429">
        <ele>10.814031</ele>
        <time>2021-12-01T12:31:52.000Z</time>
      </trkpt>
      <trkpt lat="47.55183" lon="-3.13429">
        <ele>10.647091</ele>
        <time>2021-12-01T12:31:55.000Z</time>
      </trkpt>
      <trkpt lat="47.55211" lon="-3.1343">
        <ele>10.308365</ele>
        <time>2021-12-01T12:32:01.000Z</time>
      </trkpt>
      <trkpt lat="47.55214" lon="-3.1343">
        <ele>10.278113</ele>
        <time>2021-12-01T12:32:02.000Z</time>
      </trkpt>
      <trkpt lat="47.55216" lon="-3.13427">
        <ele>10.244547</ele>
        <time>2021-12-01T12:32:05.000Z</time>
      </trkpt>
      <trkpt lat="47.55216" lon="-3.13427">
        <ele>10.244547</ele>
        <time>2021-12-01T12:32:06.000Z</time>
      </trkpt>
      <trkpt lat="47.55217" lon="-3.13421">
        <ele>10.186917</ele>
        <time>2021-12-01T12:32:11.000Z</time>
      </trkpt>
      <trkpt lat="47.55221" lon="-3.13417">
        <ele>10.127613</ele>
        <time>2021-12-01T12:32:13.000Z</time>
      </trkpt>
      <trkpt lat="47.55228" lon="-3.13412">
        <ele>10.04192</ele>
        <time>2021-12-01T12:32:15.000Z</time>
      </trkpt>
      <trkpt lat="47.55231" lon="-3.13404">
        <ele>9.978288</ele>
        <time>2021-12-01T12:32:17.000Z</time>
      </trkpt>
      <trkpt lat="47.55231" lon="-3.13391">
        <ele>9.930743</ele>
        <time>2021-12-01T12:32:19.000Z</time>
      </trkpt>
      <trkpt lat="47.55231" lon="-3.1338">
        <ele>9.888466</ele>
        <time>2021-12-01T12:32:21.000Z</time>
      </trkpt>
      <trkpt lat="47.55231" lon="-3.13376">
        <ele>9.874364</ele>
        <time>2021-12-01T12:32:22.000Z</time>
      </trkpt>
      <trkpt lat="47.55232" lon="-3.13372">
        <ele>9.859041</ele>
        <time>2021-12-01T12:32:23.000Z</time>
      </trkpt>
      <trkpt lat="47.55237" lon="-3.13366">
        <ele>9.821662</ele>
        <time>2021-12-01T12:32:25.000Z</time>
      </trkpt>
      <trkpt lat="47.55253" lon="-3.13366">
        <ele>9.734839</ele>
        <time>2021-12-01T12:32:29.000Z</time>
      </trkpt>
      <trkpt lat="47.55284" lon="-3.13367">
        <ele>9.563917</ele>
        <time>2021-12-01T12:32:35.000Z</time>
      </trkpt>
      <trkpt lat="47.55318" lon="-3.13367">
        <ele>9.37656</ele>
        <time>2021-12-01T12:32:42.000Z</time>
      </trkpt>
      <trkpt lat="47.55341" lon="-3.13366">
        <ele>9.246281</ele>
        <time>2021-12-01T12:32:47.000Z</time>
      </trkpt>
      <trkpt lat="47.5535" lon="-3.13367">
        <ele>9.197896</ele>
        <time>2021-12-01T12:32:49.000Z</time>
      </trkpt>
      <trkpt lat="47.55354" lon="-3.13367">
        <ele>9.178103</ele>
        <time>2021-12-01T12:32:50.000Z</time>
      </trkpt>
      <trkpt lat="47.55374" lon="-3.13368">
        <ele>9.069225</ele>
        <time>2021-12-01T12:32:54.000Z</time>
      </trkpt>
      <trkpt lat="47.55378" lon="-3.13368">
        <ele>9.047682</ele>
        <time>2021-12-01T12:32:55.000Z</time>
      </trkpt>
      <trkpt lat="47.55416" lon="-3.13368">
        <ele>8.851665</ele>
        <time>2021-12-01T12:33:03.000Z</time>
      </trkpt>
      <trkpt lat="47.55424" lon="-3.13368">
        <ele>8.813825</ele>
        <time>2021-12-01T12:33:05.000Z</time>
      </trkpt>
      <trkpt lat="47.55439" lon="-3.13367">
        <ele>8.742481</ele>
        <time>2021-12-01T12:33:09.000Z</time>
      </trkpt>
      <trkpt lat="47.55466" lon="-3.13369">
        <ele>8.605764</ele>
        <time>2021-12-01T12:33:15.000Z</time>
      </trkpt>
      <trkpt lat="47.55515" lon="-3.1337">
        <ele>8.365525</ele>
        <time>2021-12-01T12:33:24.000Z</time>
      </trkpt>
      <trkpt lat="47.55568" lon="-3.13371">
        <ele>8.117098</ele>
        <time>2021-12-01T12:33:34.000Z</time>
      </trkpt>
      <trkpt lat="47.55615" lon="-3.13372">
        <ele>8.261198</ele>
        <time>2021-12-01T12:33:43.000Z</time>
      </trkpt>
      <trkpt lat="47.55626" lon="-3.13371">
        <ele>8.294097</ele>
        <time>2021-12-01T12:33:45.000Z</time>
      </trkpt>
      <trkpt lat="47.55662" lon="-3.13371">
        <ele>8.407469</ele>
        <time>2021-12-01T12:33:52.000Z</time>
      </trkpt>
      <trkpt lat="47.55721" lon="-3.1337">
        <ele>8.587218</ele>
        <time>2021-12-01T12:34:03.000Z</time>
      </trkpt>
      <trkpt lat="47.55749" lon="-3.13371">
        <ele>8.695571</ele>
        <time>2021-12-01T12:34:09.000Z</time>
      </trkpt>
      <trkpt lat="47.55759" lon="-3.1337">
        <ele>8.82036</ele>
        <time>2021-12-01T12:34:11.000Z</time>
      </trkpt>
      <trkpt lat="47.55767" lon="-3.1337">
        <ele>8.925959</ele>
        <time>2021-12-01T12:34:13.000Z</time>
      </trkpt>
      <trkpt lat="47.55786" lon="-3.13369">
        <ele>9.166293</ele>
        <time>2021-12-01T12:34:17.000Z</time>
      </trkpt>
      <trkpt lat="47.5579" lon="-3.13367">
        <ele>9.210225</ele>
        <time>2021-12-01T12:34:18.000Z</time>
      </trkpt>
      <trkpt lat="47.55798" lon="-3.13365">
        <ele>9.323016</ele>
        <time>2021-12-01T12:34:20.000Z</time>
      </trkpt>
      <trkpt lat="47.55812" lon="-3.13366">
        <ele>9.498082</ele>
        <time>2021-12-01T12:34:24.000Z</time>
      </trkpt>
      <trkpt lat="47.55828" lon="-3.13368">
        <ele>9.701094</ele>
        <time>2021-12-01T12:34:29.000Z</time>
      </trkpt>
      <trkpt lat="47.55851" lon="-3.13367">
        <ele>9.980224</ele>
        <time>2021-12-01T12:34:34.000Z</time>
      </trkpt>
      <trkpt lat="47.55885" lon="-3.13366">
        <ele>10.407735</ele>
        <time>2021-12-01T12:34:42.000Z</time>
      </trkpt>
      <trkpt lat="47.55901" lon="-3.13364">
        <ele>10.614324</ele>
        <time>2021-12-01T12:34:47.000Z</time>
      </trkpt>
      <trkpt lat="47.55903" lon="-3.13362">
        <ele>10.646832</ele>
        <time>2021-12-01T12:34:48.000Z</time>
      </trkpt>
      <trkpt lat="47.55906" lon="-3.13355">
        <ele>10.715223</ele>
        <time>2021-12-01T12:34:50.000Z</time>
      </trkpt>
      <trkpt lat="47.55906" lon="-3.13346">
        <ele>10.787324</ele>
        <time>2021-12-01T12:34:52.000Z</time>
      </trkpt>
      <trkpt lat="47.5591" lon="-3.13326">
        <ele>10.859687</ele>
        <time>2021-12-01T12:34:56.000Z</time>
      </trkpt>
      <trkpt lat="47.55917" lon="-3.13321">
        <ele>10.715009</ele>
        <time>2021-12-01T12:34:59.000Z</time>
      </trkpt>
      <trkpt lat="47.55918" lon="-3.13321">
        <ele>10.681739</ele>
        <time>2021-12-01T12:35:00.000Z</time>
      </trkpt>
      <trkpt lat="47.55929" lon="-3.13323">
        <ele>10.468749</ele>
        <time>2021-12-01T12:35:05.000Z</time>
      </trkpt>
      <trkpt lat="47.55932" lon="-3.13323">
        <ele>10.408704</ele>
        <time>2021-12-01T12:35:06.000Z</time>
      </trkpt>
      <trkpt lat="47.55945" lon="-3.1332">
        <ele>10.162446</ele>
        <time>2021-12-01T12:35:10.000Z</time>
      </trkpt>
      <trkpt lat="47.55948" lon="-3.1332">
        <ele>10.103936</ele>
        <time>2021-12-01T12:35:11.000Z</time>
      </trkpt>
      <trkpt lat="47.5596" lon="-3.13317">
        <ele>9.857278</ele>
        <time>2021-12-01T12:35:17.000Z</time>
      </trkpt>
      <trkpt lat="47.55966" lon="-3.13314">
        <ele>9.748954</ele>
        <time>2021-12-01T12:35:22.000Z</time>
      </trkpt>
      <trkpt lat="47.55967" lon="-3.13312">
        <ele>9.717281</ele>
        <time>2021-12-01T12:35:23.000Z</time>
      </trkpt>
      <trkpt lat="47.55968" lon="-3.1331">
        <ele>9.683338</ele>
        <time>2021-12-01T12:35:28.000Z</time>
      </trkpt>
      <trkpt lat="47.55969" lon="-3.13308">
        <ele>9.650336</ele>
        <time>2021-12-01T12:35:29.000Z</time>
      </trkpt>
      <trkpt lat="47.5597" lon="-3.13307">
        <ele>9.618662</ele>
        <time>2021-12-01T12:35:30.000Z</time>
      </trkpt>
      <trkpt lat="47.55972" lon="-3.13305">
        <ele>9.58566</ele>
        <time>2021-12-01T12:35:32.000Z</time>
      </trkpt>
      <trkpt lat="47.55973" lon="-3.13303">
        <ele>9.552658</ele>
        <time>2021-12-01T12:35:37.000Z</time>
      </trkpt>
      <trkpt lat="47.55974" lon="-3.13301">
        <ele>9.519655</ele>
        <time>2021-12-01T12:35:38.000Z</time>
      </trkpt>
      <trkpt lat="47.55975" lon="-3.13299">
        <ele>9.487003</ele>
        <time>2021-12-01T12:35:41.000Z</time>
      </trkpt>
      <trkpt lat="47.55976" lon="-3.13297">
        <ele>9.454001</ele>
        <time>2021-12-01T12:35:42.000Z</time>
      </trkpt>
      <trkpt lat="47.55977" lon="-3.13296">
        <ele>9.420999</ele>
        <time>2021-12-01T12:35:47.000Z</time>
      </trkpt>
      <trkpt lat="47.55979" lon="-3.13294">
        <ele>9.389325</ele>
        <time>2021-12-01T12:35:48.000Z</time>
      </trkpt>
      <trkpt lat="47.5598" lon="-3.13292">
        <ele>9.356323</ele>
        <time>2021-12-01T12:35:53.000Z</time>
      </trkpt>
      <trkpt lat="47.55981" lon="-3.1329">
        <ele>9.322381</ele>
        <time>2021-12-01T12:35:55.000Z</time>
      </trkpt>
      <trkpt lat="47.55982" lon="-3.13288">
        <ele>9.290707</ele>
        <time>2021-12-01T12:36:31.000Z</time>
      </trkpt>
      <trkpt lat="47.55983" lon="-3.13287">
        <ele>9.257705</ele>
        <time>2021-12-01T12:36:32.000Z</time>
      </trkpt>
      <trkpt lat="47.55987" lon="-3.13281">
        <ele>9.151922</ele>
        <time>2021-12-01T12:36:33.000Z</time>
      </trkpt>
      <trkpt lat="47.55999" lon="-3.13266">
        <ele>8.857828</ele>
        <time>2021-12-01T12:36:36.000Z</time>
      </trkpt>
      <trkpt lat="47.56015" lon="-3.13247">
        <ele>8.457424</ele>
        <time>2021-12-01T12:36:41.000Z</time>
      </trkpt>
      <trkpt lat="47.56021" lon="-3.13242">
        <ele>8.3267</ele>
        <time>2021-12-01T12:36:43.000Z</time>
      </trkpt>
      <trkpt lat="47.56037" lon="-3.13236">
        <ele>8.006453</ele>
        <time>2021-12-01T12:36:48.000Z</time>
      </trkpt>
      <trkpt lat="47.56055" lon="-3.13224">
        <ele>7.614356</ele>
        <time>2021-12-01T12:36:53.000Z</time>
      </trkpt>
      <trkpt lat="47.56065" lon="-3.13206">
        <ele>7.488775</ele>
        <time>2021-12-01T12:36:57.000Z</time>
      </trkpt>
      <trkpt lat="47.56074" lon="-3.13168">
        <ele>7.636372</ele>
        <time>2021-12-01T12:37:03.000Z</time>
      </trkpt>
      <trkpt lat="47.56081" lon="-3.13144">
        <ele>7.734094</ele>
        <time>2021-12-01T12:37:08.000Z</time>
      </trkpt>
      <trkpt lat="47.56082" lon="-3.13128">
        <ele>7.793553</ele>
        <time>2021-12-01T12:37:13.000Z</time>
      </trkpt>
      <trkpt lat="47.56089" lon="-3.13122">
        <ele>7.837155</ele>
        <time>2021-12-01T12:37:18.000Z</time>
      </trkpt>
      <trkpt lat="47.56091" lon="-3.1312">
        <ele>7.851917</ele>
        <time>2021-12-01T12:37:19.000Z</time>
      </trkpt>
      <trkpt lat="47.561" lon="-3.13115">
        <ele>7.905343</ele>
        <time>2021-12-01T12:37:22.000Z</time>
      </trkpt>
      <trkpt lat="47.56107" lon="-3.1311">
        <ele>7.944512</ele>
        <time>2021-12-01T12:37:25.000Z</time>
      </trkpt>
      <trkpt lat="47.56109" lon="-3.13108">
        <ele>7.959914</ele>
        <time>2021-12-01T12:37:26.000Z</time>
      </trkpt>
      <trkpt lat="47.56112" lon="-3.131">
        <ele>7.993199</ele>
        <time>2021-12-01T12:37:28.000Z</time>
      </trkpt>
      <trkpt lat="47.56112" lon="-3.13095">
        <ele>8.012067</ele>
        <time>2021-12-01T12:37:29.000Z</time>
      </trkpt>
      <trkpt lat="47.5611" lon="-3.13074">
        <ele>8.090842</ele>
        <time>2021-12-01T12:37:33.000Z</time>
      </trkpt>
      <trkpt lat="47.56111" lon="-3.13068">
        <ele>8.111523</ele>
        <time>2021-12-01T12:37:34.000Z</time>
      </trkpt>
      <trkpt lat="47.56112" lon="-3.13053">
        <ele>8.167612</ele>
        <time>2021-12-01T12:37:36.000Z</time>
      </trkpt>
      <trkpt lat="47.56112" lon="-3.13047">
        <ele>8.192383</ele>
        <time>2021-12-01T12:37:37.000Z</time>
      </trkpt>
      <trkpt lat="47.56112" lon="-3.13011">
        <ele>8.323509</ele>
        <time>2021-12-01T12:37:43.000Z</time>
      </trkpt>
      <trkpt lat="47.56114" lon="-3.1298">
        <ele>8.441513</ele>
        <time>2021-12-01T12:37:48.000Z</time>
      </trkpt>
      <trkpt lat="47.56114" lon="-3.12975">
        <ele>8.482774</ele>
        <time>2021-12-01T12:37:49.000Z</time>
      </trkpt>
      <trkpt lat="47.5612" lon="-3.12935">
        <ele>8.775171</ele>
        <time>2021-12-01T12:37:56.000Z</time>
      </trkpt>
      <trkpt lat="47.56121" lon="-3.12927">
        <ele>8.833597</ele>
        <time>2021-12-01T12:37:58.000Z</time>
      </trkpt>
      <trkpt lat="47.56122" lon="-3.12924">
        <ele>8.858312</ele>
        <time>2021-12-01T12:37:59.000Z</time>
      </trkpt>
      <trkpt lat="47.56124" lon="-3.12921">
        <ele>8.884121</ele>
        <time>2021-12-01T12:38:00.000Z</time>
      </trkpt>
      <trkpt lat="47.56129" lon="-3.12905">
        <ele>9.014445</ele>
        <time>2021-12-01T12:38:05.000Z</time>
      </trkpt>
      <trkpt lat="47.56135" lon="-3.12898">
        <ele>9.094789</ele>
        <time>2021-12-01T12:38:08.000Z</time>
      </trkpt>
      <trkpt lat="47.56144" lon="-3.12892">
        <ele>9.197954</ele>
        <time>2021-12-01T12:38:11.000Z</time>
      </trkpt>
      <trkpt lat="47.56152" lon="-3.12887">
        <ele>9.298149</ele>
        <time>2021-12-01T12:38:14.000Z</time>
      </trkpt>
      <trkpt lat="47.56161" lon="-3.12883">
        <ele>9.399568</ele>
        <time>2021-12-01T12:38:18.000Z</time>
      </trkpt>
      <trkpt lat="47.56162" lon="-3.12883">
        <ele>9.406361</ele>
        <time>2021-12-01T12:38:21.000Z</time>
      </trkpt>
      <trkpt lat="47.56165" lon="-3.12881">
        <ele>9.447604</ele>
        <time>2021-12-01T12:38:49.000Z</time>
      </trkpt>
      <trkpt lat="47.56186" lon="-3.12878">
        <ele>9.66873</ele>
        <time>2021-12-01T12:38:54.000Z</time>
      </trkpt>
      <trkpt lat="47.56207" lon="-3.12872">
        <ele>9.896312</ele>
        <time>2021-12-01T12:38:59.000Z</time>
      </trkpt>
      <trkpt lat="47.56212" lon="-3.1287">
        <ele>9.948972</ele>
        <time>2021-12-01T12:39:00.000Z</time>
      </trkpt>
      <trkpt lat="47.56221" lon="-3.12864">
        <ele>10.061022</ele>
        <time>2021-12-01T12:39:03.000Z</time>
      </trkpt>
      <trkpt lat="47.56234" lon="-3.12855">
        <ele>10.218754</ele>
        <time>2021-12-01T12:39:07.000Z</time>
      </trkpt>
      <trkpt lat="47.56247" lon="-3.12846">
        <ele>10.362894</ele>
        <time>2021-12-01T12:39:11.000Z</time>
      </trkpt>
      <trkpt lat="47.56265" lon="-3.12837">
        <ele>10.264401</ele>
        <time>2021-12-01T12:39:15.000Z</time>
      </trkpt>
      <trkpt lat="47.56285" lon="-3.12826">
        <ele>10.157494</ele>
        <time>2021-12-01T12:39:20.000Z</time>
      </trkpt>
      <trkpt lat="47.56305" lon="-3.12814">
        <ele>10.047098</ele>
        <time>2021-12-01T12:39:25.000Z</time>
      </trkpt>
      <trkpt lat="47.56317" lon="-3.12802">
        <ele>9.970166</ele>
        <time>2021-12-01T12:39:29.000Z</time>
      </trkpt>
      <trkpt lat="47.56335" lon="-3.12792">
        <ele>9.872169</ele>
        <time>2021-12-01T12:39:34.000Z</time>
      </trkpt>
      <trkpt lat="47.56351" lon="-3.12788">
        <ele>9.788943</ele>
        <time>2021-12-01T12:39:39.000Z</time>
      </trkpt>
      <trkpt lat="47.56357" lon="-3.12786">
        <ele>9.760481</ele>
        <time>2021-12-01T12:39:41.000Z</time>
      </trkpt>
      <trkpt lat="47.56363" lon="-3.12781">
        <ele>9.722059</ele>
        <time>2021-12-01T12:39:43.000Z</time>
      </trkpt>
      <trkpt lat="47.5638" lon="-3.12773">
        <ele>9.635325</ele>
        <time>2021-12-01T12:39:48.000Z</time>
      </trkpt>
      <trkpt lat="47.56395" lon="-3.12764">
        <ele>9.551288</ele>
        <time>2021-12-01T12:39:53.000Z</time>
      </trkpt>
      <trkpt lat="47.56416" lon="-3.12753">
        <ele>9.448916</ele>
        <time>2021-12-01T12:40:00.000Z</time>
      </trkpt>
      <trkpt lat="47.56437" lon="-3.12743">
        <ele>9.496049</ele>
        <time>2021-12-01T12:40:06.000Z</time>
      </trkpt>
      <trkpt lat="47.56464" lon="-3.1273">
        <ele>9.560143</ele>
        <time>2021-12-01T12:40:12.000Z</time>
      </trkpt>
      <trkpt lat="47.56477" lon="-3.12721">
        <ele>9.590783</ele>
        <time>2021-12-01T12:40:16.000Z</time>
      </trkpt>
      <trkpt lat="47.56493" lon="-3.12701">
        <ele>9.63815</ele>
        <time>2021-12-01T12:40:22.000Z</time>
      </trkpt>
      <trkpt lat="47.56509" lon="-3.12686">
        <ele>9.680496</ele>
        <time>2021-12-01T12:40:27.000Z</time>
      </trkpt>
      <trkpt lat="47.56531" lon="-3.12665">
        <ele>9.738124</ele>
        <time>2021-12-01T12:40:33.000Z</time>
      </trkpt>
      <trkpt lat="47.56538" lon="-3.12657">
        <ele>9.756535</ele>
        <time>2021-12-01T12:40:35.000Z</time>
      </trkpt>
      <trkpt lat="47.56549" lon="-3.12648">
        <ele>9.786268</ele>
        <time>2021-12-01T12:40:38.000Z</time>
      </trkpt>
      <trkpt lat="47.56574" lon="-3.12621">
        <ele>9.855252</ele>
        <time>2021-12-01T12:40:45.000Z</time>
      </trkpt>
      <trkpt lat="47.56577" lon="-3.12617">
        <ele>9.865961</ele>
        <time>2021-12-01T12:40:46.000Z</time>
      </trkpt>
      <trkpt lat="47.56581" lon="-3.12614">
        <ele>9.875957</ele>
        <time>2021-12-01T12:40:47.000Z</time>
      </trkpt>
      <trkpt lat="47.56589" lon="-3.12606">
        <ele>9.901919</ele>
        <time>2021-12-01T12:40:50.000Z</time>
      </trkpt>
      <trkpt lat="47.56592" lon="-3.12603">
        <ele>9.911135</ele>
        <time>2021-12-01T12:40:51.000Z</time>
      </trkpt>
      <trkpt lat="47.5661" lon="-3.12583">
        <ele>9.967143</ele>
        <time>2021-12-01T12:40:57.000Z</time>
      </trkpt>
      <trkpt lat="47.56617" lon="-3.12576">
        <ele>9.989376</ele>
        <time>2021-12-01T12:41:00.000Z</time>
      </trkpt>
      <trkpt lat="47.5662" lon="-3.12575">
        <ele>9.996688</ele>
        <time>2021-12-01T12:41:01.000Z</time>
      </trkpt>
      <trkpt lat="47.56633" lon="-3.12563">
        <ele>10.035181</ele>
        <time>2021-12-01T12:41:05.000Z</time>
      </trkpt>
      <trkpt lat="47.56636" lon="-3.12554">
        <ele>10.051814</ele>
        <time>2021-12-01T12:41:07.000Z</time>
      </trkpt>
      <trkpt lat="47.56636" lon="-3.12551">
        <ele>10.058028</ele>
        <time>2021-12-01T12:41:08.000Z</time>
      </trkpt>
      <trkpt lat="47.56635" lon="-3.1255">
        <ele>10.060475</ele>
        <time>2021-12-01T12:41:12.000Z</time>
      </trkpt>
      <trkpt lat="47.56637" lon="-3.1255">
        <ele>10.064584</ele>
        <time>2021-12-01T12:41:58.000Z</time>
      </trkpt>
      <trkpt lat="47.5664" lon="-3.12551">
        <ele>10.073825</ele>
        <time>2021-12-01T12:42:01.000Z</time>
      </trkpt>
      <trkpt lat="47.56645" lon="-3.12551">
        <ele>10.084742</ele>
        <time>2021-12-01T12:42:05.000Z</time>
      </trkpt>
      <trkpt lat="47.56649" lon="-3.12551">
        <ele>10.094667</ele>
        <time>2021-12-01T12:42:10.000Z</time>
      </trkpt>
      <trkpt lat="47.56661" lon="-3.12545">
        <ele>10.128132</ele>
        <time>2021-12-01T12:42:14.000Z</time>
      </trkpt>
      <trkpt lat="47.56688" lon="-3.12528">
        <ele>10.201606</ele>
        <time>2021-12-01T12:42:21.000Z</time>
      </trkpt>
      <trkpt lat="47.56725" lon="-3.12507">
        <ele>10.308374</ele>
        <time>2021-12-01T12:42:30.000Z</time>
      </trkpt>
      <trkpt lat="47.56741" lon="-3.125">
        <ele>10.401163</ele>
        <time>2021-12-01T12:42:34.000Z</time>
      </trkpt>
      <trkpt lat="47.56747" lon="-3.12496">
        <ele>10.442729</ele>
        <time>2021-12-01T12:42:36.000Z</time>
      </trkpt>
      <trkpt lat="47.56751" lon="-3.12494">
        <ele>10.463618</ele>
        <time>2021-12-01T12:42:37.000Z</time>
      </trkpt>
      <trkpt lat="47.56753" lon="-3.12491">
        <ele>10.481514</ele>
        <time>2021-12-01T12:42:38.000Z</time>
      </trkpt>
      <trkpt lat="47.5676" lon="-3.12486">
        <ele>10.528288</ele>
        <time>2021-12-01T12:42:40.000Z</time>
      </trkpt>
      <trkpt lat="47.56782" lon="-3.12475">
        <ele>10.661082</ele>
        <time>2021-12-01T12:42:45.000Z</time>
      </trkpt>
      <trkpt lat="47.56798" lon="-3.1247">
        <ele>10.755839</ele>
        <time>2021-12-01T12:42:49.000Z</time>
      </trkpt>
      <trkpt lat="47.56819" lon="-3.12465">
        <ele>10.877076</ele>
        <time>2021-12-01T12:42:54.000Z</time>
      </trkpt>
      <trkpt lat="47.56847" lon="-3.12451">
        <ele>11.049063</ele>
        <time>2021-12-01T12:43:00.000Z</time>
      </trkpt>
      <trkpt lat="47.56863" lon="-3.12442">
        <ele>11.147485</ele>
        <time>2021-12-01T12:43:04.000Z</time>
      </trkpt>
      <trkpt lat="47.5688" lon="-3.12435">
        <ele>11.247143</ele>
        <time>2021-12-01T12:43:08.000Z</time>
      </trkpt>
      <trkpt lat="47.56903" lon="-3.12428">
        <ele>11.386164</ele>
        <time>2021-12-01T12:43:12.000Z</time>
      </trkpt>
      <trkpt lat="47.56935" lon="-3.1242">
        <ele>11.595162</ele>
        <time>2021-12-01T12:43:19.000Z</time>
      </trkpt>
      <trkpt lat="47.56952" lon="-3.12422">
        <ele>11.704897</ele>
        <time>2021-12-01T12:43:23.000Z</time>
      </trkpt>
      <trkpt lat="47.5696" lon="-3.12426">
        <ele>11.755612</ele>
        <time>2021-12-01T12:43:25.000Z</time>
      </trkpt>
      <trkpt lat="47.56996" lon="-3.12435">
        <ele>11.984952</ele>
        <time>2021-12-01T12:43:33.000Z</time>
      </trkpt>
      <trkpt lat="47.57021" lon="-3.12439">
        <ele>12.144926</ele>
        <time>2021-12-01T12:43:39.000Z</time>
      </trkpt>
      <trkpt lat="47.57029" lon="-3.12442">
        <ele>12.199229</ele>
        <time>2021-12-01T12:43:41.000Z</time>
      </trkpt>
      <trkpt lat="47.57055" lon="-3.12454">
        <ele>12.373408</ele>
        <time>2021-12-01T12:43:47.000Z</time>
      </trkpt>
      <trkpt lat="47.57062" lon="-3.1246">
        <ele>12.426123</ele>
        <time>2021-12-01T12:43:49.000Z</time>
      </trkpt>
      <trkpt lat="47.57065" lon="-3.12463">
        <ele>12.446826</ele>
        <time>2021-12-01T12:43:50.000Z</time>
      </trkpt>
      <trkpt lat="47.5708" lon="-3.12481">
        <ele>12.422824</ele>
        <time>2021-12-01T12:43:55.000Z</time>
      </trkpt>
      <trkpt lat="47.57088" lon="-3.12497">
        <ele>12.364664</ele>
        <time>2021-12-01T12:43:58.000Z</time>
      </trkpt>
      <trkpt lat="47.57095" lon="-3.12507">
        <ele>12.326162</ele>
        <time>2021-12-01T12:44:00.000Z</time>
      </trkpt>
      <trkpt lat="47.57113" lon="-3.12538">
        <ele>12.206835</ele>
        <time>2021-12-01T12:44:06.000Z</time>
      </trkpt>
      <trkpt lat="47.57145" lon="-3.12591">
        <ele>12.00284</ele>
        <time>2021-12-01T12:44:16.000Z</time>
      </trkpt>
      <trkpt lat="47.57177" lon="-3.12636">
        <ele>11.817258</ele>
        <time>2021-12-01T12:44:24.000Z</time>
      </trkpt>
      <trkpt lat="47.57198" lon="-3.12663">
        <ele>11.673904</ele>
        <time>2021-12-01T12:44:30.000Z</time>
      </trkpt>
      <trkpt lat="47.57201" lon="-3.12666">
        <ele>11.638968</ele>
        <time>2021-12-01T12:44:31.000Z</time>
      </trkpt>
      <trkpt lat="47.5722" lon="-3.12701">
        <ele>11.338434</ele>
        <time>2021-12-01T12:44:38.000Z</time>
      </trkpt>
      <trkpt lat="47.57237" lon="-3.12725">
        <ele>11.114417</ele>
        <time>2021-12-01T12:44:43.000Z</time>
      </trkpt>
      <trkpt lat="47.57246" lon="-3.1274">
        <ele>10.979425</ele>
        <time>2021-12-01T12:44:46.000Z</time>
      </trkpt>
      <trkpt lat="47.5726" lon="-3.12769">
        <ele>10.743384</ele>
        <time>2021-12-01T12:44:51.000Z</time>
      </trkpt>
      <trkpt lat="47.57272" lon="-3.12793">
        <ele>10.547909</ele>
        <time>2021-12-01T12:44:55.000Z</time>
      </trkpt>
      <trkpt lat="47.5728" lon="-3.12811">
        <ele>10.403011</ele>
        <time>2021-12-01T12:44:58.000Z</time>
      </trkpt>
      <trkpt lat="47.57292" lon="-3.12834">
        <ele>10.210249</ele>
        <time>2021-12-01T12:45:02.000Z</time>
      </trkpt>
      <trkpt lat="47.57321" lon="-3.12891">
        <ele>9.962813</ele>
        <time>2021-12-01T12:45:12.000Z</time>
      </trkpt>
      <trkpt lat="47.57347" lon="-3.12939">
        <ele>9.976388</ele>
        <time>2021-12-01T12:45:21.000Z</time>
      </trkpt>
      <trkpt lat="47.57383" lon="-3.13004">
        <ele>9.994522</ele>
        <time>2021-12-01T12:45:33.000Z</time>
      </trkpt>
      <trkpt lat="47.57386" lon="-3.1301">
        <ele>9.99605</ele>
        <time>2021-12-01T12:45:34.000Z</time>
      </trkpt>
      <trkpt lat="47.57416" lon="-3.13057">
        <ele>10.010184</ele>
        <time>2021-12-01T12:45:43.000Z</time>
      </trkpt>
      <trkpt lat="47.57452" lon="-3.13103">
        <ele>9.92379</ele>
        <time>2021-12-01T12:45:53.000Z</time>
      </trkpt>
      <trkpt lat="47.57487" lon="-3.1314">
        <ele>9.817024</ele>
        <time>2021-12-01T12:46:02.000Z</time>
      </trkpt>
      <trkpt lat="47.57499" lon="-3.13143">
        <ele>9.786325</ele>
        <time>2021-12-01T12:46:06.000Z</time>
      </trkpt>
      <trkpt lat="47.57522" lon="-3.13157">
        <ele>9.725407</ele>
        <time>2021-12-01T12:46:12.000Z</time>
      </trkpt>
      <trkpt lat="47.5755" lon="-3.13175">
        <ele>9.65225</ele>
        <time>2021-12-01T12:46:20.000Z</time>
      </trkpt>
      <trkpt lat="47.5757" lon="-3.13182">
        <ele>9.600304</ele>
        <time>2021-12-01T12:46:26.000Z</time>
      </trkpt>
      <trkpt lat="47.57586" lon="-3.13185">
        <ele>9.567459</ele>
        <time>2021-12-01T12:46:31.000Z</time>
      </trkpt>
      <trkpt lat="47.57602" lon="-3.13185">
        <ele>9.550223</ele>
        <time>2021-12-01T12:46:36.000Z</time>
      </trkpt>
      <trkpt lat="47.5762" lon="-3.13181">
        <ele>9.531788</ele>
        <time>2021-12-01T12:46:41.000Z</time>
      </trkpt>
      <trkpt lat="47.57648" lon="-3.13181">
        <ele>9.502829</ele>
        <time>2021-12-01T12:46:48.000Z</time>
      </trkpt>
      <trkpt lat="47.57665" lon="-3.13183">
        <ele>9.48514</ele>
        <time>2021-12-01T12:46:52.000Z</time>
      </trkpt>
      <trkpt lat="47.57674" lon="-3.13183">
        <ele>9.475798</ele>
        <time>2021-12-01T12:46:54.000Z</time>
      </trkpt>
      <trkpt lat="47.57686" lon="-3.13183">
        <ele>9.462511</ele>
        <time>2021-12-01T12:46:57.000Z</time>
      </trkpt>
      <trkpt lat="47.57694" lon="-3.13184">
        <ele>9.454293</ele>
        <time>2021-12-01T12:46:59.000Z</time>
      </trkpt>
      <trkpt lat="47.57698" lon="-3.13184">
        <ele>9.450965</ele>
        <time>2021-12-01T12:47:00.000Z</time>
      </trkpt>
      <trkpt lat="47.57716" lon="-3.1318">
        <ele>9.43195</ele>
        <time>2021-12-01T12:47:05.000Z</time>
      </trkpt>
      <trkpt lat="47.57729" lon="-3.13168">
        <ele>9.415701</ele>
        <time>2021-12-01T12:47:09.000Z</time>
      </trkpt>
      <trkpt lat="47.57738" lon="-3.13154">
        <ele>9.402649</ele>
        <time>2021-12-01T12:47:13.000Z</time>
      </trkpt>
      <trkpt lat="47.57759" lon="-3.13126">
        <ele>9.439436</ele>
        <time>2021-12-01T12:47:20.000Z</time>
      </trkpt>
      <trkpt lat="47.57774" lon="-3.13111">
        <ele>9.529286</ele>
        <time>2021-12-01T12:47:24.000Z</time>
      </trkpt>
      <trkpt lat="47.57783" lon="-3.13106">
        <ele>9.579409</ele>
        <time>2021-12-01T12:47:26.000Z</time>
      </trkpt>
      <trkpt lat="47.57806" lon="-3.13095">
        <ele>9.697046</ele>
        <time>2021-12-01T12:47:31.000Z</time>
      </trkpt>
      <trkpt lat="47.5781" lon="-3.13094">
        <ele>9.716471</ele>
        <time>2021-12-01T12:47:32.000Z</time>
      </trkpt>
      <trkpt lat="47.5782" lon="-3.13091">
        <ele>9.767814</ele>
        <time>2021-12-01T12:47:34.000Z</time>
      </trkpt>
      <trkpt lat="47.57832" lon="-3.13086">
        <ele>9.829386</ele>
        <time>2021-12-01T12:47:37.000Z</time>
      </trkpt>
      <trkpt lat="47.57841" lon="-3.13085">
        <ele>9.875696</ele>
        <time>2021-12-01T12:47:39.000Z</time>
      </trkpt>
      <trkpt lat="47.57845" lon="-3.13086">
        <ele>9.896104</ele>
        <time>2021-12-01T12:47:40.000Z</time>
      </trkpt>
      <trkpt lat="47.57857" lon="-3.13087">
        <ele>9.953233</ele>
        <time>2021-12-01T12:47:43.000Z</time>
      </trkpt>
      <trkpt lat="47.57865" lon="-3.13087">
        <ele>9.992919</ele>
        <time>2021-12-01T12:47:45.000Z</time>
      </trkpt>
      <trkpt lat="47.57869" lon="-3.13087">
        <ele>10.0129</ele>
        <time>2021-12-01T12:47:46.000Z</time>
      </trkpt>
      <trkpt lat="47.57877" lon="-3.13089">
        <ele>10.053811</ele>
        <time>2021-12-01T12:47:48.000Z</time>
      </trkpt>
      <trkpt lat="47.57881" lon="-3.1309">
        <ele>10.074843</ele>
        <time>2021-12-01T12:47:49.000Z</time>
      </trkpt>
      <trkpt lat="47.57889" lon="-3.13093">
        <ele>10.115887</ele>
        <time>2021-12-01T12:47:51.000Z</time>
      </trkpt>
      <trkpt lat="47.57915" lon="-3.13099">
        <ele>10.2462</ele>
        <time>2021-12-01T12:47:57.000Z</time>
      </trkpt>
      <trkpt lat="47.57927" lon="-3.13103">
        <ele>10.298346</ele>
        <time>2021-12-01T12:48:00.000Z</time>
      </trkpt>
      <trkpt lat="47.57937" lon="-3.13106">
        <ele>10.329119</ele>
        <time>2021-12-01T12:48:02.000Z</time>
      </trkpt>
      <trkpt lat="47.57952" lon="-3.13108">
        <ele>10.379753</ele>
        <time>2021-12-01T12:48:06.000Z</time>
      </trkpt>
      <trkpt lat="47.57981" lon="-3.13107">
        <ele>10.473208</ele>
        <time>2021-12-01T12:48:13.000Z</time>
      </trkpt>
      <trkpt lat="47.57985" lon="-3.13108">
        <ele>10.486189</ele>
        <time>2021-12-01T12:48:14.000Z</time>
      </trkpt>
      <trkpt lat="47.57989" lon="-3.13109">
        <ele>10.499214</ele>
        <time>2021-12-01T12:48:15.000Z</time>
      </trkpt>
      <trkpt lat="47.5801" lon="-3.13109">
        <ele>10.56519</ele>
        <time>2021-12-01T12:48:20.000Z</time>
      </trkpt>
      <trkpt lat="47.58041" lon="-3.13106">
        <ele>10.666887</ele>
        <time>2021-12-01T12:48:28.000Z</time>
      </trkpt>
      <trkpt lat="47.58046" lon="-3.13107">
        <ele>10.681197</ele>
        <time>2021-12-01T12:48:29.000Z</time>
      </trkpt>
      <trkpt lat="47.58072" lon="-3.13113">
        <ele>10.766673</ele>
        <time>2021-12-01T12:48:36.000Z</time>
      </trkpt>
      <trkpt lat="47.581" lon="-3.13117">
        <ele>10.857515</ele>
        <time>2021-12-01T12:48:43.000Z</time>
      </trkpt>
      <trkpt lat="47.58134" lon="-3.13122">
        <ele>10.710943</ele>
        <time>2021-12-01T12:48:51.000Z</time>
      </trkpt>
      <trkpt lat="47.58151" lon="-3.13123">
        <ele>10.638604</ele>
        <time>2021-12-01T12:48:55.000Z</time>
      </trkpt>
      <trkpt lat="47.58165" lon="-3.13124">
        <ele>10.577732</ele>
        <time>2021-12-01T12:48:58.000Z</time>
      </trkpt>
      <trkpt lat="47.582" lon="-3.13125">
        <ele>10.428348</ele>
        <time>2021-12-01T12:49:06.000Z</time>
      </trkpt>
      <trkpt lat="47.5824" lon="-3.13117">
        <ele>10.259073</ele>
        <time>2021-12-01T12:49:15.000Z</time>
      </trkpt>
      <trkpt lat="47.58283" lon="-3.13106">
        <ele>10.101303</ele>
        <time>2021-12-01T12:49:24.000Z</time>
      </trkpt>
      <trkpt lat="47.5832" lon="-3.13097">
        <ele>10.221413</ele>
        <time>2021-12-01T12:49:32.000Z</time>
      </trkpt>
      <trkpt lat="47.58357" lon="-3.13089">
        <ele>10.340361</ele>
        <time>2021-12-01T12:49:40.000Z</time>
      </trkpt>
      <trkpt lat="47.58394" lon="-3.1308">
        <ele>10.457448</ele>
        <time>2021-12-01T12:49:48.000Z</time>
      </trkpt>
      <trkpt lat="47.58433" lon="-3.13069">
        <ele>10.584785</ele>
        <time>2021-12-01T12:49:57.000Z</time>
      </trkpt>
      <trkpt lat="47.58472" lon="-3.13062">
        <ele>10.687964</ele>
        <time>2021-12-01T12:50:06.000Z</time>
      </trkpt>
      <trkpt lat="47.58523" lon="-3.13068">
        <ele>10.785368</ele>
        <time>2021-12-01T12:50:17.000Z</time>
      </trkpt>
      <trkpt lat="47.58565" lon="-3.13076">
        <ele>10.867562</ele>
        <time>2021-12-01T12:50:26.000Z</time>
      </trkpt>
      <trkpt lat="47.58605" lon="-3.13083">
        <ele>10.944028</ele>
        <time>2021-12-01T12:50:34.000Z</time>
      </trkpt>
      <trkpt lat="47.58611" lon="-3.13084">
        <ele>10.955362</ele>
        <time>2021-12-01T12:50:35.000Z</time>
      </trkpt>
      <trkpt lat="47.58639" lon="-3.13082">
        <ele>11.006961</ele>
        <time>2021-12-01T12:50:41.000Z</time>
      </trkpt>
      <trkpt lat="47.58671" lon="-3.13079">
        <ele>11.043773</ele>
        <time>2021-12-01T12:50:48.000Z</time>
      </trkpt>
      <trkpt lat="47.58715" lon="-3.13074">
        <ele>11.093339</ele>
        <time>2021-12-01T12:50:57.000Z</time>
      </trkpt>
      <trkpt lat="47.58754" lon="-3.13071">
        <ele>11.137946</ele>
        <time>2021-12-01T12:51:05.000Z</time>
      </trkpt>
      <trkpt lat="47.58786" lon="-3.13075">
        <ele>11.173551</ele>
        <time>2021-12-01T12:51:11.000Z</time>
      </trkpt>
      <trkpt lat="47.58796" lon="-3.13075">
        <ele>11.185337</ele>
        <time>2021-12-01T12:51:13.000Z</time>
      </trkpt>
      <trkpt lat="47.58811" lon="-3.13075">
        <ele>11.202351</ele>
        <time>2021-12-01T12:51:16.000Z</time>
      </trkpt>
      <trkpt lat="47.5883" lon="-3.13077">
        <ele>11.255395</ele>
        <time>2021-12-01T12:51:20.000Z</time>
      </trkpt>
      <trkpt lat="47.58836" lon="-3.13077">
        <ele>11.273707</ele>
        <time>2021-12-01T12:51:21.000Z</time>
      </trkpt>
      <trkpt lat="47.58861" lon="-3.13076">
        <ele>11.353296</ele>
        <time>2021-12-01T12:51:26.000Z</time>
      </trkpt>
      <trkpt lat="47.58895" lon="-3.13074">
        <ele>11.460418</ele>
        <time>2021-12-01T12:51:33.000Z</time>
      </trkpt>
      <trkpt lat="47.58906" lon="-3.13072">
        <ele>11.496588</ele>
        <time>2021-12-01T12:51:35.000Z</time>
      </trkpt>
      <trkpt lat="47.58941" lon="-3.1306">
        <ele>11.609641</ele>
        <time>2021-12-01T12:51:42.000Z</time>
      </trkpt>
      <trkpt lat="47.58986" lon="-3.13038">
        <ele>11.7594</ele>
        <time>2021-12-01T12:51:51.000Z</time>
      </trkpt>
      <trkpt lat="47.59006" lon="-3.1303">
        <ele>11.812752</ele>
        <time>2021-12-01T12:51:55.000Z</time>
      </trkpt>
      <trkpt lat="47.59021" lon="-3.13028">
        <ele>11.846961</ele>
        <time>2021-12-01T12:51:58.000Z</time>
      </trkpt>
      <trkpt lat="47.59026" lon="-3.13028">
        <ele>11.860854</ele>
        <time>2021-12-01T12:51:59.000Z</time>
      </trkpt>
      <trkpt lat="47.59035" lon="-3.13027">
        <ele>11.882468</ele>
        <time>2021-12-01T12:52:01.000Z</time>
      </trkpt>
      <trkpt lat="47.59068" lon="-3.13017">
        <ele>11.961624</ele>
        <time>2021-12-01T12:52:07.000Z</time>
      </trkpt>
      <trkpt lat="47.59084" lon="-3.13009">
        <ele>12.002444</ele>
        <time>2021-12-01T12:52:10.000Z</time>
      </trkpt>
      <trkpt lat="47.59097" lon="-3.12997">
        <ele>12.03957</ele>
        <time>2021-12-01T12:52:13.000Z</time>
      </trkpt>
      <trkpt lat="47.59101" lon="-3.12992">
        <ele>12.052099</ele>
        <time>2021-12-01T12:52:14.000Z</time>
      </trkpt>
      <trkpt lat="47.59121" lon="-3.12958">
        <ele>12.125123</ele>
        <time>2021-12-01T12:52:20.000Z</time>
      </trkpt>
      <trkpt lat="47.59139" lon="-3.12929">
        <ele>12.187854</ele>
        <time>2021-12-01T12:52:25.000Z</time>
      </trkpt>
      <trkpt lat="47.59145" lon="-3.12917">
        <ele>12.196454</ele>
        <time>2021-12-01T12:52:27.000Z</time>
      </trkpt>
      <trkpt lat="47.59153" lon="-3.12903">
        <ele>12.163854</ele>
        <time>2021-12-01T12:52:30.000Z</time>
      </trkpt>
      <trkpt lat="47.59159" lon="-3.12891">
        <ele>12.136863</ele>
        <time>2021-12-01T12:52:32.000Z</time>
      </trkpt>
      <trkpt lat="47.59172" lon="-3.12878">
        <ele>12.095235</ele>
        <time>2021-12-01T12:52:35.000Z</time>
      </trkpt>
      <trkpt lat="47.59183" lon="-3.12874">
        <ele>12.06622</ele>
        <time>2021-12-01T12:52:37.000Z</time>
      </trkpt>
      <trkpt lat="47.59193" lon="-3.12874">
        <ele>12.03859</ele>
        <time>2021-12-01T12:52:39.000Z</time>
      </trkpt>
      <trkpt lat="47.592" lon="-3.12876">
        <ele>12.020693</ele>
        <time>2021-12-01T12:52:40.000Z</time>
      </trkpt>
      <trkpt lat="47.59211" lon="-3.12881">
        <ele>11.99058</ele>
        <time>2021-12-01T12:52:42.000Z</time>
      </trkpt>
      <trkpt lat="47.59256" lon="-3.12907">
        <ele>11.859902</ele>
        <time>2021-12-01T12:52:51.000Z</time>
      </trkpt>
      <trkpt lat="47.593" lon="-3.12931">
        <ele>11.735847</ele>
        <time>2021-12-01T12:53:00.000Z</time>
      </trkpt>
      <trkpt lat="47.59317" lon="-3.12941">
        <ele>11.619402</ele>
        <time>2021-12-01T12:53:04.000Z</time>
      </trkpt>
      <trkpt lat="47.59329" lon="-3.12947">
        <ele>11.522651</ele>
        <time>2021-12-01T12:53:07.000Z</time>
      </trkpt>
      <trkpt lat="47.59366" lon="-3.12965">
        <ele>11.235746</ele>
        <time>2021-12-01T12:53:15.000Z</time>
      </trkpt>
      <trkpt lat="47.59381" lon="-3.12973">
        <ele>11.113261</ele>
        <time>2021-12-01T12:53:18.000Z</time>
      </trkpt>
      <trkpt lat="47.5941" lon="-3.1299">
        <ele>10.88002</ele>
        <time>2021-12-01T12:53:24.000Z</time>
      </trkpt>
      <trkpt lat="47.59454" lon="-3.13016">
        <ele>10.528828</ele>
        <time>2021-12-01T12:53:33.000Z</time>
      </trkpt>
      <trkpt lat="47.59483" lon="-3.13041">
        <ele>10.511611</ele>
        <time>2021-12-01T12:53:40.000Z</time>
      </trkpt>
      <trkpt lat="47.595" lon="-3.13058">
        <ele>10.690179</ele>
        <time>2021-12-01T12:53:45.000Z</time>
      </trkpt>
      <trkpt lat="47.59503" lon="-3.13063">
        <ele>10.73166</ele>
        <time>2021-12-01T12:53:46.000Z</time>
      </trkpt>
      <trkpt lat="47.59505" lon="-3.13068">
        <ele>10.763712</ele>
        <time>2021-12-01T12:53:47.000Z</time>
      </trkpt>
      <trkpt lat="47.5951" lon="-3.13074">
        <ele>10.820349</ele>
        <time>2021-12-01T12:53:49.000Z</time>
      </trkpt>
      <trkpt lat="47.59513" lon="-3.13078">
        <ele>10.858844</ele>
        <time>2021-12-01T12:53:50.000Z</time>
      </trkpt>
      <trkpt lat="47.59532" lon="-3.13101">
        <ele>11.068159</ele>
        <time>2021-12-01T12:53:56.000Z</time>
      </trkpt>
      <trkpt lat="47.59548" lon="-3.1312">
        <ele>11.24491</ele>
        <time>2021-12-01T12:54:02.000Z</time>
      </trkpt>
      <trkpt lat="47.5955" lon="-3.13128">
        <ele>11.296215</ele>
        <time>2021-12-01T12:54:05.000Z</time>
      </trkpt>
      <trkpt lat="47.5955" lon="-3.1313">
        <ele>11.308041</ele>
        <time>2021-12-01T12:54:06.000Z</time>
      </trkpt>
      <trkpt lat="47.59548" lon="-3.13138">
        <ele>11.358868</ele>
        <time>2021-12-01T12:54:09.000Z</time>
      </trkpt>
      <trkpt lat="47.59543" lon="-3.13145">
        <ele>11.421236</ele>
        <time>2021-12-01T12:54:11.000Z</time>
      </trkpt>
      <trkpt lat="47.59539" lon="-3.13147">
        <ele>11.453182</ele>
        <time>2021-12-01T12:54:12.000Z</time>
      </trkpt>
      <trkpt lat="47.59524" lon="-3.13151">
        <ele>11.587624</ele>
        <time>2021-12-01T12:54:15.000Z</time>
      </trkpt>
      <trkpt lat="47.5948" lon="-3.13162">
        <ele>11.954233</ele>
        <time>2021-12-01T12:54:24.000Z</time>
      </trkpt>
      <trkpt lat="47.59476" lon="-3.13165">
        <ele>11.966261</ele>
        <time>2021-12-01T12:54:25.000Z</time>
      </trkpt>
      <trkpt lat="47.59473" lon="-3.13169">
        <ele>11.975759</ele>
        <time>2021-12-01T12:54:26.000Z</time>
      </trkpt>
      <trkpt lat="47.5946" lon="-3.13186">
        <ele>12.019814</ele>
        <time>2021-12-01T12:54:30.000Z</time>
      </trkpt>
      <trkpt lat="47.59458" lon="-3.13198">
        <ele>12.040978</ele>
        <time>2021-12-01T12:54:32.000Z</time>
      </trkpt>
      <trkpt lat="47.5946" lon="-3.13204">
        <ele>12.052539</ele>
        <time>2021-12-01T12:54:33.000Z</time>
      </trkpt>
      <trkpt lat="47.59463" lon="-3.13209">
        <ele>12.064585</ele>
        <time>2021-12-01T12:54:34.000Z</time>
      </trkpt>
      <trkpt lat="47.59471" lon="-3.13217">
        <ele>12.088274</ele>
        <time>2021-12-01T12:54:36.000Z</time>
      </trkpt>
      <trkpt lat="47.59477" lon="-3.1322">
        <ele>12.104203</ele>
        <time>2021-12-01T12:54:37.000Z</time>
      </trkpt>
      <trkpt lat="47.59483" lon="-3.1322">
        <ele>12.117312</ele>
        <time>2021-12-01T12:54:38.000Z</time>
      </trkpt>
      <trkpt lat="47.59497" lon="-3.13218">
        <ele>12.152899</ele>
        <time>2021-12-01T12:54:41.000Z</time>
      </trkpt>
    </trkseg>
  </trk>
</gpx>